HappyWetter - St.Margarethen im Burgenland
Wetterdaten: Montag, 09.01.2012
Datum Zeit Temp. A. Feuchte A. Luftdruck Regen Wind Richtung Richtung Sonnenschein ET Solar Taupunkt Windchill Windben Empfang
09.01.2012 00:00 4,4 C 80 % 1017,6 hPa 0,0 l/m 0,0 km/h (0 Bft) SW 229 0 min 0,000 mm 0 W/m 1,3 C 4,4 C 0,0 km/h (0 Bft) 100,00 %
09.01.2012 00:01 4,4 C 80 % 1017,6 hPa 0,0 l/m 0,0 km/h (0 Bft) SW 229 0 min 0,000 mm 0 W/m 1,3 C 4,4 C 8,0 km/h (2 Bft) 100,00 %
09.01.2012 00:02 4,4 C 80 % 1017,6 hPa 0,0 l/m 1,6 km/h (1 Bft) SW 227 0 min 0,000 mm 0 W/m 1,3 C 4,4 C 9,7 km/h (2 Bft) 100,00 %
09.01.2012 00:03 4,4 C 80 % 1017,5 hPa 0,0 l/m 6,0 km/h (2 Bft) SW 225 0 min 0,000 mm 0 W/m 1,3 C 4,4 C 9,7 km/h (2 Bft) 100,00 %
09.01.2012 00:04 4,4 C 80 % 1017,5 hPa 0,0 l/m 3,4 km/h (1 Bft) SW 225 0 min 0,000 mm 0 W/m 1,3 C 4,4 C 8,0 km/h (2 Bft) 100,00 %
09.01.2012 00:05 4,4 C 80 % 1017,6 hPa 0,0 l/m 2,9 km/h (1 Bft) SW 225 0 min 0,000 mm 0 W/m 1,3 C 4,4 C 6,4 km/h (2 Bft) 100,00 %
09.01.2012 00:06 4,4 C 80 % 1017,5 hPa 0,0 l/m 0,0 km/h (0 Bft) SW 225 0 min 0,000 mm 0 W/m 1,3 C 4,4 C 0,0 km/h (0 Bft) 100,00 %
09.01.2012 00:07 4,4 C 80 % 1017,6 hPa 0,0 l/m 0,0 km/h (0 Bft) SW 225 0 min 0,000 mm 0 W/m 1,3 C 4,4 C 0,0 km/h (0 Bft) 100,00 %
09.01.2012 00:08 4,4 C 80 % 1017,6 hPa 0,0 l/m 0,0 km/h (0 Bft) SW 225 0 min 0,000 mm 0 W/m 1,3 C 4,4 C 0,0 km/h (0 Bft) 100,00 %
09.01.2012 00:09 4,4 C 80 % 1017,6 hPa 0,0 l/m 6,1 km/h (2 Bft) SW 224 0 min 0,000 mm 0 W/m 1,3 C 4,4 C 9,7 km/h (2 Bft) 100,00 %
09.01.2012 00:10 4,4 C 80 % 1017,5 hPa 0,0 l/m 5,9 km/h (2 Bft) SW 224 0 min 0,000 mm 0 W/m 1,3 C 4,4 C 8,0 km/h (2 Bft) 100,00 %
09.01.2012 00:11 4,4 C 80 % 1017,6 hPa 0,0 l/m 6,0 km/h (2 Bft) SW 224 0 min 0,000 mm 0 W/m 1,3 C 4,4 C 8,0 km/h (2 Bft) 100,00 %
09.01.2012 00:12 4,4 C 80 % 1017,6 hPa 0,0 l/m 7,2 km/h (2 Bft) S-SW 208 0 min 0,000 mm 0 W/m 1,3 C 3,7 C 11,3 km/h (2 Bft) 100,00 %
09.01.2012 00:13 4,4 C 80 % 1017,5 hPa 0,0 l/m 7,3 km/h (2 Bft) S-SW 209 0 min 0,000 mm 0 W/m 1,3 C 3,6 C 9,7 km/h (2 Bft) 100,00 %
09.01.2012 00:14 4,4 C 80 % 1017,6 hPa 0,0 l/m 5,3 km/h (1 Bft) S-SW 209 0 min 0,000 mm 0 W/m 1,3 C 4,4 C 6,4 km/h (2 Bft) 100,00 %
09.01.2012 00:15 4,4 C 80 % 1017,5 hPa 0,0 l/m 4,0 km/h (1 Bft) S-SW 209 0 min 0,000 mm 0 W/m 1,3 C 4,4 C 8,0 km/h (2 Bft) 100,00 %
09.01.2012 00:16 4,4 C 80 % 1017,5 hPa 0,0 l/m 6,8 km/h (2 Bft) SW 221 0 min 0,000 mm 0 W/m 1,3 C 4,1 C 11,3 km/h (2 Bft) 100,00 %
09.01.2012 00:17 4,4 C 80 % 1017,5 hPa 0,0 l/m 3,8 km/h (1 Bft) SW 221 0 min 0,000 mm 0 W/m 1,3 C 4,4 C 6,4 km/h (2 Bft) 100,00 %
09.01.2012 00:18 4,4 C 80 % 1017,6 hPa 0,0 l/m 3,0 km/h (1 Bft) SW 221 0 min 0,000 mm 0 W/m 1,3 C 4,4 C 6,4 km/h (2 Bft) 100,00 %
09.01.2012 00:19 4,4 C 80 % 1017,5 hPa 0,0 l/m 0,8 km/h (0 Bft) SW 221 0 min 0,000 mm 0 W/m 1,3 C 4,4 C 3,2 km/h (1 Bft) 100,00 %
09.01.2012 00:20 4,4 C 80 % 1017,5 hPa 0,0 l/m 0,0 km/h (0 Bft) SW 221 0 min 0,000 mm 0 W/m 1,3 C 4,4 C 0,0 km/h (0 Bft) 100,00 %
09.01.2012 00:21 4,4 C 80 % 1017,6 hPa 0,0 l/m 0,0 km/h (0 Bft) SW 221 0 min 0,000 mm 0 W/m 1,3 C 4,4 C 0,0 km/h (0 Bft) 100,00 %
09.01.2012 00:22 4,4 C 80 % 1017,6 hPa 0,0 l/m 0,0 km/h (0 Bft) SW 221 0 min 0,000 mm 0 W/m 1,3 C 4,4 C 0,0 km/h (0 Bft) 100,00 %
09.01.2012 00:23 4,4 C 80 % 1017,6 hPa 0,0 l/m 0,1 km/h (0 Bft) SW 221 0 min 0,000 mm 0 W/m 1,3 C 4,4 C 1,6 km/h (1 Bft) 95,83 %
09.01.2012 00:24 4,4 C 80 % 1017,6 hPa 0,0 l/m 0,3 km/h (0 Bft) SW 221 0 min 0,000 mm 0 W/m 1,3 C 4,4 C 3,2 km/h (1 Bft) 100,00 %
09.01.2012 00:25 4,4 C 80 % 1017,7 hPa 0,0 l/m 0,0 km/h (0 Bft) SW 221 0 min 0,000 mm 0 W/m 1,3 C 4,4 C 0,0 km/h (0 Bft) 100,00 %
09.01.2012 00:26 4,4 C 80 % 1017,6 hPa 0,0 l/m 0,0 km/h (0 Bft) SW 221 0 min 0,000 mm 0 W/m 1,3 C 4,4 C 0,0 km/h (0 Bft) 100,00 %
09.01.2012 00:27 4,4 C 80 % 1017,7 hPa 0,0 l/m 0,0 km/h (0 Bft) SW 221 0 min 0,000 mm 0 W/m 1,3 C 4,4 C 0,0 km/h (0 Bft) 100,00 %
09.01.2012 00:28 4,4 C 80 % 1017,6 hPa 0,0 l/m 4,6 km/h (1 Bft) SW 229 0 min 0,000 mm 0 W/m 1,3 C 4,4 C 11,3 km/h (2 Bft) 100,00 %
09.01.2012 00:29 4,4 C 80 % 1017,7 hPa 0,0 l/m 6,9 km/h (2 Bft) W 261 0 min 0,000 mm 0 W/m 1,3 C 4,0 C 11,3 km/h (2 Bft) 100,00 %
09.01.2012 00:30 4,4 C 80 % 1017,7 hPa 0,0 l/m 3,0 km/h (1 Bft) W 261 0 min 0,000 mm 0 W/m 1,3 C 4,4 C 4,8 km/h (1 Bft) 100,00 %
09.01.2012 00:31 4,4 C 80 % 1017,8 hPa 0,0 l/m 3,1 km/h (1 Bft) W 261 0 min 0,000 mm 0 W/m 1,3 C 4,4 C 6,4 km/h (2 Bft) 100,00 %
09.01.2012 00:32 4,4 C 80 % 1017,8 hPa 0,0 l/m 2,1 km/h (1 Bft) W 261 0 min 0,000 mm 0 W/m 1,3 C 4,4 C 4,8 km/h (1 Bft) 100,00 %
09.01.2012 00:33 4,4 C 80 % 1017,7 hPa 0,0 l/m 0,0 km/h (0 Bft) W 261 0 min 0,000 mm 0 W/m 1,3 C 4,4 C 0,0 km/h (0 Bft) 100,00 %
09.01.2012 00:34 4,4 C 80 % 1017,8 hPa 0,0 l/m 0,0 km/h (0 Bft) W 261 0 min 0,000 mm 0 W/m 1,3 C 4,4 C 0,0 km/h (0 Bft) 100,00 %
09.01.2012 00:35 4,4 C 80 % 1017,8 hPa 0,0 l/m 0,0 km/h (0 Bft) W 261 0 min 0,000 mm 0 W/m 1,3 C 4,4 C 0,0 km/h (0 Bft) 100,00 %
09.01.2012 00:36 4,4 C 80 % 1017,8 hPa 0,0 l/m 3,4 km/h (1 Bft) W 261 0 min 0,000 mm 0 W/m 1,3 C 4,4 C 6,4 km/h (2 Bft) 100,00 %
09.01.2012 00:37 4,4 C 80 % 1017,8 hPa 0,0 l/m 1,8 km/h (1 Bft) W 261 0 min 0,000 mm 0 W/m 1,3 C 4,4 C 4,8 km/h (1 Bft) 100,00 %
09.01.2012 00:38 4,4 C 80 % 1017,8 hPa 0,0 l/m 0,0 km/h (0 Bft) W 261 0 min 0,000 mm 0 W/m 1,3 C 4,4 C 0,0 km/h (0 Bft) 100,00 %
09.01.2012 00:39 4,4 C 80 % 1017,8 hPa 0,0 l/m 5,8 km/h (2 Bft) W 261 0 min 0,000 mm 0 W/m 1,3 C 4,4 C 8,0 km/h (2 Bft) 100,00 %
09.01.2012 00:40 4,4 C 79 % 1017,8 hPa 0,0 l/m 4,1 km/h (1 Bft) W 263 0 min 0,000 mm 0 W/m 1,1 C 4,4 C 6,4 km/h (2 Bft) 100,00 %
09.01.2012 00:41 4,4 C 79 % 1017,8 hPa 0,0 l/m 0,0 km/h (0 Bft) W 265 0 min 0,000 mm 0 W/m 1,1 C 4,4 C 0,0 km/h (0 Bft) 100,00 %
09.01.2012 00:42 4,4 C 79 % 1017,8 hPa 0,0 l/m 1,0 km/h (0 Bft) W 266 0 min 0,000 mm 0 W/m 1,1 C 4,4 C 3,2 km/h (1 Bft) 100,00 %
09.01.2012 00:43 4,4 C 79 % 1017,8 hPa 0,0 l/m 0,0 km/h (0 Bft) W 265 0 min 0,000 mm 0 W/m 1,1 C 4,4 C 0,0 km/h (0 Bft) 100,00 %
09.01.2012 00:44 4,4 C 79 % 1017,8 hPa 0,0 l/m 1,1 km/h (1 Bft) W 270 0 min 0,000 mm 0 W/m 1,1 C 4,4 C 9,7 km/h (2 Bft) 100,00 %
09.01.2012 00:45 4,4 C 79 % 1017,8 hPa 0,0 l/m 5,0 km/h (1 Bft) W-SW 246 0 min 0,000 mm 0 W/m 1,1 C 4,4 C 19,3 km/h (3 Bft) 100,00 %
09.01.2012 00:46 4,4 C 79 % 1017,8 hPa 0,0 l/m 4,0 km/h (1 Bft) SW 232 0 min 0,000 mm 0 W/m 1,1 C 4,4 C 14,5 km/h (3 Bft) 100,00 %
09.01.2012 00:47 4,5 C 79 % 1017,8 hPa 0,0 l/m 10,7 km/h (2 Bft) W-SW 256 0 min 0,000 mm 0 W/m 1,2 C 1,0 C 19,3 km/h (3 Bft) 99,91 %
09.01.2012 00:48 4,5 C 79 % 1017,8 hPa 0,0 l/m 9,8 km/h (2 Bft) W-NW 283 0 min 0,000 mm 0 W/m 1,2 C 1,7 C 16,1 km/h (3 Bft) 100,00 %
09.01.2012 00:49 4,5 C 79 % 1017,8 hPa 0,0 l/m 11,6 km/h (2 Bft) W 279 0 min 0,000 mm 0 W/m 1,2 C 0,4 C 20,9 km/h (4 Bft) 100,00 %
09.01.2012 00:50 4,6 C 79 % 1017,8 hPa 0,0 l/m 5,8 km/h (2 Bft) W 277 0 min 0,000 mm 0 W/m 1,3 C 4,6 C 9,7 km/h (2 Bft) 100,00 %
09.01.2012 00:51 4,6 C 79 % 1017,8 hPa 0,0 l/m 10,3 km/h (2 Bft) W 277 0 min 0,000 mm 0 W/m 1,3 C 1,4 C 19,3 km/h (3 Bft) 100,00 %
09.01.2012 00:52 4,6 C 79 % 1017,8 hPa 0,0 l/m 6,5 km/h (2 Bft) W-NW 290 0 min 0,000 mm 0 W/m 1,3 C 4,5 C 16,1 km/h (3 Bft) 100,00 %
09.01.2012 00:53 4,6 C 79 % 1017,8 hPa 0,0 l/m 12,2 km/h (2 Bft) W-SW 256 0 min 0,000 mm 0 W/m 1,3 C 0,2 C 20,9 km/h (4 Bft) 100,00 %
09.01.2012 00:54 4,6 C 79 % 1017,8 hPa 0,0 l/m 10,0 km/h (2 Bft) W 272 0 min 0,000 mm 0 W/m 1,3 C 1,6 C 17,7 km/h (3 Bft) 100,00 %
09.01.2012 00:55 4,6 C 79 % 1017,8 hPa 0,0 l/m 13,6 km/h (3 Bft) W-NW 302 0 min 0,000 mm 0 W/m 1,3 C -0,7 C 25,7 km/h (4 Bft) 100,00 %
09.01.2012 00:56 4,6 C 79 % 1017,8 hPa 0,0 l/m 14,1 km/h (3 Bft) W 265 0 min 0,000 mm 0 W/m 1,3 C -0,9 C 29,0 km/h (5 Bft) 100,00 %
09.01.2012 00:57 4,7 C 79 % 1017,8 hPa 0,0 l/m 11,6 km/h (2 Bft) W-NW 288 0 min 0,000 mm 0 W/m 1,4 C 0,7 C 20,9 km/h (4 Bft) 100,00 %
09.01.2012 00:58 4,7 C 79 % 1017,8 hPa 0,0 l/m 13,1 km/h (3 Bft) W 269 0 min 0,000 mm 0 W/m 1,4 C -0,2 C 19,3 km/h (3 Bft) 100,00 %
09.01.2012 00:59 4,7 C 79 % 1017,8 hPa 0,0 l/m 10,3 km/h (2 Bft) W 278 0 min 0,000 mm 0 W/m 1,4 C 1,5 C 19,3 km/h (3 Bft) 100,00 %
09.01.2012 01:00 4,7 C 79 % 1017,8 hPa 0,0 l/m 12,9 km/h (3 Bft) W-NW 286 0 min 0,025 mm 0 W/m 1,4 C -0,1 C 20,9 km/h (4 Bft) 100,00 %
09.01.2012 01:01 4,7 C 79 % 1017,8 hPa 0,0 l/m 13,6 km/h (3 Bft) W 281 0 min 0,000 mm 0 W/m 1,4 C -0,5 C 20,9 km/h (4 Bft) 100,00 %
09.01.2012 01:02 4,7 C 79 % 1017,8 hPa 0,0 l/m 12,2 km/h (2 Bft) W 267 0 min 0,000 mm 0 W/m 1,4 C 0,3 C 24,1 km/h (4 Bft) 100,00 %
09.01.2012 01:03 4,7 C 79 % 1017,8 hPa 0,0 l/m 16,0 km/h (3 Bft) W 272 0 min 0,000 mm 0 W/m 1,4 C -1,8 C 22,5 km/h (4 Bft) 100,00 %
09.01.2012 01:04 4,7 C 79 % 1017,8 hPa 0,0 l/m 17,3 km/h (3 Bft) W 269 0 min 0,000 mm 0 W/m 1,4 C -2,4 C 24,1 km/h (4 Bft) 100,00 %
09.01.2012 01:05 4,7 C 79 % 1017,8 hPa 0,0 l/m 16,9 km/h (3 Bft) W-NW 282 0 min 0,000 mm 0 W/m 1,4 C -2,2 C 22,5 km/h (4 Bft) 100,00 %
09.01.2012 01:06 4,7 C 79 % 1017,8 hPa 0,0 l/m 13,9 km/h (3 Bft) W 279 0 min 0,000 mm 0 W/m 1,4 C -0,7 C 22,5 km/h (4 Bft) 100,00 %
09.01.2012 01:07 4,7 C 79 % 1017,8 hPa 0,0 l/m 10,0 km/h (2 Bft) W 274 0 min 0,000 mm 0 W/m 1,4 C 1,7 C 20,9 km/h (4 Bft) 100,00 %
09.01.2012 01:08 4,8 C 79 % 1017,8 hPa 0,0 l/m 11,1 km/h (2 Bft) W-NW 291 0 min 0,000 mm 0 W/m 1,5 C 1,1 C 19,3 km/h (3 Bft) 100,00 %
09.01.2012 01:09 4,8 C 79 % 1017,9 hPa 0,0 l/m 10,1 km/h (2 Bft) W 264 0 min 0,000 mm 0 W/m 1,5 C 1,8 C 16,1 km/h (3 Bft) 100,00 %
09.01.2012 01:10 4,8 C 79 % 1017,8 hPa 0,0 l/m 9,9 km/h (2 Bft) W 274 0 min 0,000 mm 0 W/m 1,5 C 1,9 C 16,1 km/h (3 Bft) 100,00 %
09.01.2012 01:11 4,8 C 79 % 1017,9 hPa 0,0 l/m 16,4 km/h (3 Bft) W 267 0 min 0,000 mm 0 W/m 1,5 C -1,9 C 22,5 km/h (4 Bft) 100,00 %
09.01.2012 01:12 4,8 C 79 % 1018,0 hPa 0,0 l/m 9,0 km/h (2 Bft) W 268 0 min 0,000 mm 0 W/m 1,5 C 2,6 C 16,1 km/h (3 Bft) 100,00 %
09.01.2012 01:13 4,8 C 79 % 1018,0 hPa 0,0 l/m 8,7 km/h (2 Bft) W 269 0 min 0,000 mm 0 W/m 1,5 C 2,8 C 16,1 km/h (3 Bft) 100,00 %
09.01.2012 01:14 4,8 C 79 % 1018,0 hPa 0,0 l/m 9,0 km/h (2 Bft) W 261 0 min 0,000 mm 0 W/m 1,5 C 2,6 C 16,1 km/h (3 Bft) 100,00 %
09.01.2012 01:15 4,8 C 79 % 1018,0 hPa 0,0 l/m 13,8 km/h (3 Bft) W-NW 287 0 min 0,000 mm 0 W/m 1,5 C -0,5 C 25,7 km/h (4 Bft) 100,00 %
09.01.2012 01:16 4,8 C 79 % 1018,0 hPa 0,0 l/m 12,6 km/h (3 Bft) W-SW 254 0 min 0,000 mm 0 W/m 1,5 C 0,2 C 20,9 km/h (4 Bft) 100,00 %
09.01.2012 01:17 4,8 C 79 % 1018,1 hPa 0,0 l/m 11,5 km/h (2 Bft) W 269 0 min 0,000 mm 0 W/m 1,5 C 0,8 C 20,9 km/h (4 Bft) 100,00 %
09.01.2012 01:18 4,8 C 79 % 1018,0 hPa 0,0 l/m 7,4 km/h (2 Bft) W 267 0 min 0,000 mm 0 W/m 1,5 C 3,9 C 9,7 km/h (2 Bft) 95,65 %
09.01.2012 01:19 4,8 C 79 % 1018,0 hPa 0,0 l/m 5,9 km/h (2 Bft) W 267 0 min 0,000 mm 0 W/m 1,5 C 4,8 C 8,0 km/h (2 Bft) 100,00 %
09.01.2012 01:20 4,8 C 79 % 1018,1 hPa 0,0 l/m 8,3 km/h (2 Bft) W-SW 253 0 min 0,000 mm 0 W/m 1,5 C 3,1 C 12,9 km/h (3 Bft) 100,00 %
09.01.2012 01:21 4,8 C 79 % 1018,0 hPa 0,0 l/m 5,4 km/h (1 Bft) W-SW 253 0 min 0,000 mm 0 W/m 1,5 C 4,8 C 9,7 km/h (2 Bft) 100,00 %
09.01.2012 01:22 4,7 C 79 % 1018,1 hPa 0,0 l/m 3,8 km/h (1 Bft) W-SW 253 0 min 0,000 mm 0 W/m 1,4 C 4,7 C 6,4 km/h (2 Bft) 100,00 %
09.01.2012 01:23 4,7 C 79 % 1018,1 hPa 0,0 l/m 4,8 km/h (1 Bft) W-SW 254 0 min 0,000 mm 0 W/m 1,4 C 4,7 C 8,0 km/h (2 Bft) 100,00 %
09.01.2012 01:24 4,7 C 79 % 1018,1 hPa 0,0 l/m 3,9 km/h (1 Bft) W-SW 254 0 min 0,000 mm 0 W/m 1,4 C 4,7 C 8,0 km/h (2 Bft) 100,00 %
09.01.2012 01:25 4,7 C 79 % 1018,1 hPa 0,0 l/m 10,9 km/h (2 Bft) W 270 0 min 0,000 mm 0 W/m 1,4 C 1,1 C 17,7 km/h (3 Bft) 100,00 %
09.01.2012 01:26 4,7 C 79 % 1018,1 hPa 0,0 l/m 4,3 km/h (1 Bft) W 274 0 min 0,000 mm 0 W/m 1,4 C 4,7 C 8,0 km/h (2 Bft) 100,00 %
09.01.2012 01:27 4,7 C 79 % 1018,1 hPa 0,0 l/m 11,1 km/h (2 Bft) W 277 0 min 0,000 mm 0 W/m 1,4 C 1,0 C 20,9 km/h (4 Bft) 100,00 %
09.01.2012 01:28 4,7 C 79 % 1018,1 hPa 0,0 l/m 9,7 km/h (2 Bft) W 271 0 min 0,000 mm 0 W/m 1,4 C 2,0 C 19,3 km/h (3 Bft) 100,00 %
09.01.2012 01:29 4,7 C 79 % 1018,1 hPa 0,0 l/m 7,3 km/h (2 Bft) W-NW 286 0 min 0,000 mm 0 W/m 1,4 C 3,9 C 11,3 km/h (2 Bft) 100,00 %
09.01.2012 01:30 4,7 C 80 % 1018,1 hPa 0,0 l/m 15,2 km/h (3 Bft) W 273 0 min 0,000 mm 0 W/m 1,6 C -1,4 C 22,5 km/h (4 Bft) 100,00 %
09.01.2012 01:31 4,7 C 80 % 1018,1 hPa 0,0 l/m 15,2 km/h (3 Bft) W 265 0 min 0,000 mm 0 W/m 1,6 C -1,4 C 22,5 km/h (4 Bft) 95,83 %
09.01.2012 01:32 4,7 C 80 % 1018,0 hPa 0,0 l/m 10,1 km/h (2 Bft) W-NW 290 0 min 0,000 mm 0 W/m 1,6 C 1,7 C 20,9 km/h (4 Bft) 100,00 %
09.01.2012 01:33 4,7 C 80 % 1018,1 hPa 0,0 l/m 5,0 km/h (1 Bft) W-NW 289 0 min 0,000 mm 0 W/m 1,6 C 4,7 C 8,0 km/h (2 Bft) 100,00 %
09.01.2012 01:34 4,7 C 80 % 1018,0 hPa 0,0 l/m 7,8 km/h (2 Bft) W 269 0 min 0,000 mm 0 W/m 1,6 C 3,5 C 17,7 km/h (3 Bft) 96,00 %
09.01.2012 01:35 4,7 C 80 % 1018,0 hPa 0,0 l/m 6,0 km/h (2 Bft) W-NW 283 0 min 0,000 mm 0 W/m 1,6 C 4,7 C 9,7 km/h (2 Bft) 100,00 %
09.01.2012 01:36 4,7 C 81 % 1018,0 hPa 0,0 l/m 9,1 km/h (2 Bft) W 259 0 min 0,000 mm 0 W/m 1,7 C 2,4 C 19,3 km/h (3 Bft) 100,00 %
09.01.2012 01:37 4,7 C 81 % 1018,1 hPa 0,0 l/m 11,3 km/h (2 Bft) W-NW 283 0 min 0,000 mm 0 W/m 1,7 C 0,9 C 22,5 km/h (4 Bft) 100,00 %
09.01.2012 01:38 4,6 C 81 % 1018,1 hPa 0,0 l/m 7,1 km/h (2 Bft) W 272 0 min 0,000 mm 0 W/m 1,6 C 4,0 C 14,5 km/h (3 Bft) 100,00 %
09.01.2012 01:39 4,6 C 81 % 1018,0 hPa 0,0 l/m 16,4 km/h (3 Bft) W-SW 253 0 min 0,000 mm 0 W/m 1,6 C -2,1 C 25,7 km/h (4 Bft) 100,00 %
09.01.2012 01:40 4,6 C 81 % 1018,0 hPa 0,0 l/m 8,9 km/h (2 Bft) W 267 0 min 0,000 mm 0 W/m 1,6 C 2,5 C 17,7 km/h (3 Bft) 100,00 %
09.01.2012 01:41 4,6 C 81 % 1018,0 hPa 0,0 l/m 12,7 km/h (3 Bft) W 267 0 min 0,000 mm 0 W/m 1,6 C -0,1 C 22,5 km/h (4 Bft) 100,00 %
09.01.2012 01:42 4,6 C 81 % 1018,1 hPa 0,0 l/m 13,9 km/h (3 Bft) W-SW 257 0 min 0,000 mm 0 W/m 1,6 C -0,8 C 25,7 km/h (4 Bft) 95,83 %
09.01.2012 01:43 4,6 C 81 % 1018,1 hPa 0,0 l/m 16,0 km/h (3 Bft) W 281 0 min 0,000 mm 0 W/m 1,6 C -1,9 C 20,9 km/h (4 Bft) 100,00 %
09.01.2012 01:44 4,6 C 81 % 1018,1 hPa 0,0 l/m 14,6 km/h (3 Bft) W-NW 289 0 min 0,000 mm 0 W/m 1,6 C -1,2 C 24,1 km/h (4 Bft) 100,00 %
09.01.2012 01:45 4,6 C 81 % 1018,1 hPa 0,0 l/m 7,9 km/h (2 Bft) W-NW 292 0 min 0,000 mm 0 W/m 1,6 C 3,3 C 20,9 km/h (4 Bft) 100,00 %
09.01.2012 01:46 4,6 C 82 % 1018,1 hPa 0,0 l/m 7,9 km/h (2 Bft) W 267 0 min 0,000 mm 0 W/m 1,8 C 3,3 C 11,3 km/h (2 Bft) 100,00 %
09.01.2012 01:47 4,5 C 82 % 1018,2 hPa 0,0 l/m 16,3 km/h (3 Bft) W-NW 286 0 min 0,000 mm 0 W/m 1,7 C -2,2 C 29,0 km/h (5 Bft) 100,00 %
09.01.2012 01:48 4,5 C 82 % 1018,2 hPa 0,0 l/m 9,2 km/h (2 Bft) W-NW 298 0 min 0,000 mm 0 W/m 1,7 C 2,1 C 14,5 km/h (3 Bft) 100,00 %
09.01.2012 01:49 4,5 C 82 % 1018,2 hPa 0,0 l/m 9,4 km/h (2 Bft) W-NW 286 0 min 0,000 mm 0 W/m 1,7 C 2,0 C 14,5 km/h (3 Bft) 100,00 %
09.01.2012 01:50 4,5 C 82 % 1018,2 hPa 0,0 l/m 10,6 km/h (2 Bft) W 259 0 min 0,000 mm 0 W/m 1,7 C 1,1 C 19,3 km/h (3 Bft) 100,00 %
09.01.2012 01:51 4,4 C 82 % 1018,3 hPa 0,0 l/m 14,6 km/h (3 Bft) W 281 0 min 0,000 mm 0 W/m 1,6 C -1,4 C 22,5 km/h (4 Bft) 100,00 %
09.01.2012 01:52 4,4 C 82 % 1018,2 hPa 0,0 l/m 11,3 km/h (2 Bft) W 263 0 min 0,000 mm 0 W/m 1,6 C 0,5 C 20,9 km/h (4 Bft) 100,00 %
09.01.2012 01:53 4,4 C 82 % 1018,2 hPa 0,0 l/m 11,6 km/h (2 Bft) W 264 0 min 0,000 mm 0 W/m 1,6 C 0,3 C 20,9 km/h (4 Bft) 100,00 %
09.01.2012 01:54 4,4 C 83 % 1018,2 hPa 0,0 l/m 9,2 km/h (2 Bft) W-NW 290 0 min 0,000 mm 0 W/m 1,8 C 2,0 C 17,7 km/h (3 Bft) 100,00 %
09.01.2012 01:55 4,4 C 83 % 1018,2 hPa 0,0 l/m 12,5 km/h (3 Bft) W 269 0 min 0,000 mm 0 W/m 1,8 C -0,2 C 20,9 km/h (4 Bft) 100,00 %
09.01.2012 01:56 4,4 C 83 % 1018,2 hPa 0,0 l/m 10,5 km/h (2 Bft) W-SW 256 0 min 0,000 mm 0 W/m 1,8 C 1,1 C 17,7 km/h (3 Bft) 100,00 %
09.01.2012 01:57 4,4 C 83 % 1018,2 hPa 0,0 l/m 12,2 km/h (2 Bft) W-NW 282 0 min 0,000 mm 0 W/m 1,8 C -0,1 C 19,3 km/h (3 Bft) 100,00 %
09.01.2012 01:58 4,4 C 83 % 1018,2 hPa 0,0 l/m 8,4 km/h (2 Bft) W 263 0 min 0,000 mm 0 W/m 1,8 C 2,6 C 22,5 km/h (4 Bft) 100,00 %
09.01.2012 01:59 4,4 C 83 % 1018,1 hPa 0,0 l/m 17,4 km/h (3 Bft) W-NW 283 0 min 0,000 mm 0 W/m 1,8 C -2,8 C 24,1 km/h (4 Bft) 100,00 %
09.01.2012 02:00 4,3 C 83 % 1018,2 hPa 0,0 l/m 11,8 km/h (2 Bft) W-NW 286 0 min 0,026 mm 0 W/m 1,7 C 0,1 C 22,5 km/h (4 Bft) 100,00 %
09.01.2012 02:01 4,3 C 83 % 1018,2 hPa 0,0 l/m 9,7 km/h (2 Bft) W-NW 290 0 min 0,000 mm 0 W/m 1,7 C 1,5 C 24,1 km/h (4 Bft) 100,00 %
09.01.2012 02:02 4,3 C 83 % 1018,2 hPa 0,0 l/m 13,8 km/h (3 Bft) W-NW 295 0 min 0,000 mm 0 W/m 1,7 C -1,1 C 22,5 km/h (4 Bft) 100,00 %
09.01.2012 02:03 4,3 C 83 % 1018,2 hPa 0,0 l/m 11,7 km/h (2 Bft) W 269 0 min 0,000 mm 0 W/m 1,7 C 0,1 C 17,7 km/h (3 Bft) 100,00 %
09.01.2012 02:04 4,3 C 83 % 1018,2 hPa 0,0 l/m 15,8 km/h (3 Bft) W 272 0 min 0,000 mm 0 W/m 1,7 C -2,2 C 27,4 km/h (4 Bft) 100,00 %
09.01.2012 02:05 4,3 C 83 % 1018,1 hPa 0,0 l/m 13,5 km/h (3 Bft) W 260 0 min 0,000 mm 0 W/m 1,7 C -0,9 C 24,1 km/h (4 Bft) 100,00 %
09.01.2012 02:06 4,3 C 84 % 1018,2 hPa 0,0 l/m 9,5 km/h (2 Bft) W 278 0 min 0,000 mm 0 W/m 1,8 C 1,7 C 17,7 km/h (3 Bft) 100,00 %
09.01.2012 02:07 4,3 C 84 % 1018,2 hPa 0,0 l/m 5,9 km/h (2 Bft) W 277 0 min 0,000 mm 0 W/m 1,8 C 4,3 C 9,7 km/h (2 Bft) 100,00 %
09.01.2012 02:08 4,3 C 84 % 1018,2 hPa 0,0 l/m 9,7 km/h (2 Bft) W-SW 257 0 min 0,000 mm 0 W/m 1,8 C 1,5 C 17,7 km/h (3 Bft) 100,00 %
09.01.2012 02:09 4,3 C 84 % 1018,2 hPa 0,0 l/m 11,7 km/h (2 Bft) W-NW 290 0 min 0,000 mm 0 W/m 1,8 C 0,1 C 24,1 km/h (4 Bft) 100,00 %
09.01.2012 02:10 4,3 C 84 % 1018,3 hPa 0,0 l/m 12,8 km/h (3 Bft) W-NW 292 0 min 0,000 mm 0 W/m 1,8 C -0,5 C 19,3 km/h (3 Bft) 100,00 %
09.01.2012 02:11 4,3 C 84 % 1018,3 hPa 0,0 l/m 9,5 km/h (2 Bft) W 273 0 min 0,000 mm 0 W/m 1,8 C 1,7 C 17,7 km/h (3 Bft) 100,00 %
09.01.2012 02:12 4,3 C 84 % 1018,3 hPa 0,0 l/m 8,8 km/h (2 Bft) W 264 0 min 0,000 mm 0 W/m 1,8 C 2,2 C 16,1 km/h (3 Bft) 100,00 %
09.01.2012 02:13 4,2 C 84 % 1018,3 hPa 0,0 l/m 10,5 km/h (2 Bft) W 281 0 min 0,000 mm 0 W/m 1,7 C 0,8 C 16,1 km/h (3 Bft) 100,00 %
09.01.2012 02:14 4,2 C 84 % 1018,3 hPa 0,0 l/m 12,3 km/h (3 Bft) W 269 0 min 0,000 mm 0 W/m 1,7 C -0,4 C 19,3 km/h (3 Bft) 100,00 %
09.01.2012 02:15 4,2 C 84 % 1018,3 hPa 0,0 l/m 12,7 km/h (3 Bft) W 269 0 min 0,000 mm 0 W/m 1,7 C -0,6 C 19,3 km/h (3 Bft) 100,00 %
09.01.2012 02:16 4,2 C 84 % 1018,3 hPa 0,0 l/m 17,0 km/h (3 Bft) W 265 0 min 0,000 mm 0 W/m 1,7 C -2,9 C 25,7 km/h (4 Bft) 95,65 %
09.01.2012 02:17 4,2 C 84 % 1018,3 hPa 0,0 l/m 14,1 km/h (3 Bft) W 273 0 min 0,000 mm 0 W/m 1,7 C -1,4 C 19,3 km/h (3 Bft) 100,00 %
09.01.2012 02:18 4,2 C 84 % 1018,3 hPa 0,0 l/m 11,2 km/h (2 Bft) W 275 0 min 0,000 mm 0 W/m 1,7 C 0,4 C 22,5 km/h (4 Bft) 100,00 %
09.01.2012 02:19 4,2 C 84 % 1018,2 hPa 0,0 l/m 9,3 km/h (2 Bft) W 267 0 min 0,000 mm 0 W/m 1,7 C 1,7 C 16,1 km/h (3 Bft) 100,00 %
09.01.2012 02:20 4,2 C 84 % 1018,2 hPa 0,3 l/m 17,1 km/h (3 Bft) W 259 0 min 0,000 mm 0 W/m 1,7 C -2,9 C 27,4 km/h (4 Bft) 100,00 %
09.01.2012 02:21 4,2 C 84 % 1018,2 hPa 0,0 l/m 13,3 km/h (3 Bft) W 275 0 min 0,000 mm 0 W/m 1,7 C -1,0 C 20,9 km/h (4 Bft) 100,00 %
09.01.2012 02:22 4,2 C 84 % 1018,2 hPa 0,0 l/m 16,7 km/h (3 Bft) W 266 0 min 0,000 mm 0 W/m 1,7 C -2,7 C 25,7 km/h (4 Bft) 100,00 %
09.01.2012 02:23 4,2 C 84 % 1018,2 hPa 0,0 l/m 15,6 km/h (3 Bft) W 269 0 min 0,000 mm 0 W/m 1,7 C -2,2 C 22,5 km/h (4 Bft) 100,00 %
09.01.2012 02:24 4,2 C 84 % 1018,1 hPa 0,0 l/m 16,6 km/h (3 Bft) W 269 0 min 0,000 mm 0 W/m 1,7 C -2,7 C 24,1 km/h (4 Bft) 100,00 %
09.01.2012 02:25 4,3 C 84 % 1018,2 hPa 0,0 l/m 10,4 km/h (2 Bft) W 271 0 min 0,000 mm 0 W/m 1,8 C 1,0 C 19,3 km/h (3 Bft) 100,00 %
09.01.2012 02:26 4,2 C 84 % 1018,1 hPa 0,0 l/m 15,2 km/h (3 Bft) W-SW 257 0 min 0,000 mm 0 W/m 1,7 C -2,0 C 22,5 km/h (4 Bft) 100,00 %
09.01.2012 02:27 4,2 C 84 % 1018,1 hPa 0,0 l/m 14,5 km/h (3 Bft) W 263 0 min 0,000 mm 0 W/m 1,7 C -1,6 C 24,1 km/h (4 Bft) 100,00 %
09.01.2012 02:28 4,2 C 84 % 1018,2 hPa 0,0 l/m 12,2 km/h (2 Bft) W-SW 256 0 min 0,000 mm 0 W/m 1,7 C -0,3 C 19,3 km/h (3 Bft) 100,00 %
09.01.2012 02:29 4,2 C 84 % 1018,2 hPa 0,0 l/m 13,5 km/h (3 Bft) W 275 0 min 0,000 mm 0 W/m 1,7 C -1,1 C 19,3 km/h (3 Bft) 100,00 %
09.01.2012 02:30 4,2 C 83 % 1018,2 hPa 0,0 l/m 10,9 km/h (2 Bft) W 267 0 min 0,000 mm 0 W/m 1,6 C 0,6 C 19,3 km/h (3 Bft) 100,00 %
09.01.2012 02:31 4,2 C 83 % 1018,2 hPa 0,0 l/m 13,0 km/h (3 Bft) W 263 0 min 0,000 mm 0 W/m 1,6 C -0,8 C 19,3 km/h (3 Bft) 100,00 %
09.01.2012 02:32 4,2 C 83 % 1018,2 hPa 0,0 l/m 11,8 km/h (2 Bft) W 263 0 min 0,000 mm 0 W/m 1,6 C -0,0 C 19,3 km/h (3 Bft) 100,00 %
09.01.2012 02:33 4,2 C 83 % 1018,2 hPa 0,0 l/m 8,0 km/h (2 Bft) W 274 0 min 0,000 mm 0 W/m 1,6 C 2,8 C 16,1 km/h (3 Bft) 100,00 %
09.01.2012 02:34 4,2 C 83 % 1018,1 hPa 0,0 l/m 13,1 km/h (3 Bft) W 269 0 min 0,000 mm 0 W/m 1,6 C -0,8 C 17,7 km/h (3 Bft) 100,00 %
09.01.2012 02:35 4,2 C 83 % 1018,2 hPa 0,0 l/m 11,7 km/h (2 Bft) W 261 0 min 0,000 mm 0 W/m 1,6 C 0,0 C 17,7 km/h (3 Bft) 100,00 %
09.01.2012 02:36 4,2 C 83 % 1018,1 hPa 0,0 l/m 11,3 km/h (2 Bft) W 276 0 min 0,000 mm 0 W/m 1,6 C 0,3 C 20,9 km/h (4 Bft) 100,00 %
09.01.2012 02:37 4,2 C 83 % 1018,2 hPa 0,0 l/m 12,2 km/h (2 Bft) W 259 0 min 0,000 mm 0 W/m 1,6 C -0,3 C 20,9 km/h (4 Bft) 100,00 %
09.01.2012 02:38 4,2 C 84 % 1018,2 hPa 0,0 l/m 13,2 km/h (3 Bft) W 263 0 min 0,000 mm 0 W/m 1,7 C -0,9 C 22,5 km/h (4 Bft) 100,00 %
09.01.2012 02:39 4,2 C 84 % 1018,1 hPa 0,0 l/m 15,3 km/h (3 Bft) W 263 0 min 0,000 mm 0 W/m 1,7 C -2,0 C 24,1 km/h (4 Bft) 100,00 %
09.01.2012 02:40 4,2 C 84 % 1018,1 hPa 0,0 l/m 11,5 km/h (2 Bft) W 269 0 min 0,000 mm 0 W/m 1,7 C 0,2 C 20,9 km/h (4 Bft) 100,00 %
09.01.2012 02:41 4,2 C 83 % 1018,2 hPa 0,0 l/m 9,8 km/h (2 Bft) W-NW 284 0 min 0,000 mm 0 W/m 1,6 C 1,3 C 19,3 km/h (3 Bft) 100,00 %
09.01.2012 02:42 4,2 C 83 % 1018,1 hPa 0,0 l/m 16,4 km/h (3 Bft) W 259 0 min 0,000 mm 0 W/m 1,6 C -2,6 C 24,1 km/h (4 Bft) 100,00 %
09.01.2012 02:43 4,2 C 83 % 1018,2 hPa 0,0 l/m 13,5 km/h (3 Bft) W 271 0 min 0,000 mm 0 W/m 1,6 C -1,1 C 25,7 km/h (4 Bft) 100,00 %
09.01.2012 02:44 4,2 C 83 % 1018,1 hPa 0,0 l/m 16,1 km/h (3 Bft) W-NW 290 0 min 0,000 mm 0 W/m 1,6 C -2,5 C 24,1 km/h (4 Bft) 100,00 %
09.01.2012 02:45 4,2 C 83 % 1018,2 hPa 0,0 l/m 12,5 km/h (3 Bft) W 269 0 min 0,000 mm 0 W/m 1,6 C -0,5 C 17,7 km/h (3 Bft) 100,00 %
09.01.2012 02:46 4,2 C 83 % 1018,2 hPa 0,0 l/m 14,3 km/h (3 Bft) W 264 0 min 0,000 mm 0 W/m 1,6 C -1,5 C 19,3 km/h (3 Bft) 100,00 %
09.01.2012 02:47 4,3 C 83 % 1018,2 hPa 0,0 l/m 14,2 km/h (3 Bft) W 266 0 min 0,000 mm 0 W/m 1,7 C -1,3 C 20,9 km/h (4 Bft) 100,00 %
09.01.2012 02:48 4,3 C 83 % 1018,2 hPa 0,0 l/m 14,3 km/h (3 Bft) W-SW 258 0 min 0,000 mm 0 W/m 1,7 C -1,4 C 17,7 km/h (3 Bft) 100,00 %
09.01.2012 02:49 4,3 C 83 % 1018,1 hPa 0,0 l/m 13,3 km/h (3 Bft) W 279 0 min 0,000 mm 0 W/m 1,7 C -0,8 C 22,5 km/h (4 Bft) 100,00 %
09.01.2012 02:50 4,3 C 83 % 1018,2 hPa 0,0 l/m 16,6 km/h (3 Bft) W-SW 253 0 min 0,000 mm 0 W/m 1,7 C -2,6 C 22,5 km/h (4 Bft) 100,00 %
09.01.2012 02:51 4,3 C 83 % 1018,2 hPa 0,0 l/m 13,9 km/h (3 Bft) W-NW 296 0 min 0,000 mm 0 W/m 1,7 C -1,2 C 20,9 km/h (4 Bft) 100,00 %
09.01.2012 02:52 4,3 C 83 % 1018,2 hPa 0,0 l/m 17,9 km/h (3 Bft) W 269 0 min 0,000 mm 0 W/m 1,7 C -3,2 C 29,0 km/h (5 Bft) 100,00 %
09.01.2012 02:53 4,3 C 83 % 1018,2 hPa 0,0 l/m 11,1 km/h (2 Bft) W 267 0 min 0,000 mm 0 W/m 1,7 C 0,5 C 19,3 km/h (3 Bft) 100,00 %
09.01.2012 02:54 4,3 C 83 % 1018,2 hPa 0,0 l/m 16,9 km/h (3 Bft) W-NW 293 0 min 0,000 mm 0 W/m 1,7 C -2,7 C 20,9 km/h (4 Bft) 100,00 %
09.01.2012 02:55 4,3 C 83 % 1018,2 hPa 0,0 l/m 16,7 km/h (3 Bft) W 263 0 min 0,000 mm 0 W/m 1,7 C -2,6 C 25,7 km/h (4 Bft) 100,00 %
09.01.2012 02:56 4,3 C 83 % 1018,2 hPa 0,0 l/m 17,2 km/h (3 Bft) W 270 0 min 0,000 mm 0 W/m 1,7 C -2,9 C 29,0 km/h (5 Bft) 100,00 %
09.01.2012 02:57 4,4 C 83 % 1018,2 hPa 0,0 l/m 19,4 km/h (3 Bft) W 265 0 min 0,000 mm 0 W/m 1,8 C -3,7 C 30,6 km/h (5 Bft) 100,00 %
09.01.2012 02:58 4,4 C 83 % 1018,2 hPa 0,0 l/m 11,3 km/h (2 Bft) W-NW 287 0 min 0,000 mm 0 W/m 1,8 C 0,5 C 19,3 km/h (3 Bft) 100,00 %
09.01.2012 02:59 4,4 C 83 % 1018,2 hPa 0,0 l/m 11,2 km/h (2 Bft) W 276 0 min 0,000 mm 0 W/m 1,8 C 0,6 C 24,1 km/h (4 Bft) 100,00 %
09.01.2012 03:00 4,4 C 83 % 1018,2 hPa 0,0 l/m 17,3 km/h (3 Bft) W 281 0 min 0,025 mm 0 W/m 1,8 C -2,8 C 27,4 km/h (4 Bft) 100,00 %
09.01.2012 03:01 4,4 C 83 % 1018,2 hPa 0,0 l/m 13,6 km/h (3 Bft) W-NW 290 0 min 0,000 mm 0 W/m 1,8 C -0,9 C 20,9 km/h (4 Bft) 100,00 %
09.01.2012 03:02 4,4 C 83 % 1018,3 hPa 0,0 l/m 16,0 km/h (3 Bft) NW 309 0 min 0,000 mm 0 W/m 1,8 C -2,2 C 27,4 km/h (4 Bft) 100,00 %
09.01.2012 03:03 4,4 C 83 % 1018,2 hPa 0,0 l/m 21,2 km/h (4 Bft) W 277 0 min 0,000 mm 0 W/m 1,8 C -4,4 C 29,0 km/h (5 Bft) 100,00 %
09.01.2012 03:04 4,5 C 82 % 1018,3 hPa 0,0 l/m 16,2 km/h (3 Bft) W 279 0 min 0,000 mm 0 W/m 1,7 C -2,1 C 25,7 km/h (4 Bft) 100,00 %
09.01.2012 03:05 4,5 C 82 % 1018,3 hPa 0,0 l/m 18,5 km/h (3 Bft) W 277 0 min 0,000 mm 0 W/m 1,7 C -3,2 C 27,4 km/h (4 Bft) 100,00 %
09.01.2012 03:06 4,6 C 82 % 1018,3 hPa 0,0 l/m 9,1 km/h (2 Bft) W 265 0 min 0,000 mm 0 W/m 1,8 C 2,3 C 19,3 km/h (3 Bft) 100,00 %
09.01.2012 03:07 4,6 C 82 % 1018,3 hPa 0,0 l/m 14,3 km/h (3 Bft) W 268 0 min 0,000 mm 0 W/m 1,8 C -1,0 C 24,1 km/h (4 Bft) 100,00 %
09.01.2012 03:08 4,6 C 82 % 1018,3 hPa 0,0 l/m 16,3 km/h (3 Bft) W 268 0 min 0,000 mm 0 W/m 1,8 C -2,1 C 25,7 km/h (4 Bft) 100,00 %
09.01.2012 03:09 4,6 C 82 % 1018,3 hPa 0,0 l/m 18,5 km/h (3 Bft) W 269 0 min 0,000 mm 0 W/m 1,8 C -3,1 C 25,7 km/h (4 Bft) 96,30 %
09.01.2012 03:10 4,6 C 82 % 1018,3 hPa 0,0 l/m 13,4 km/h (3 Bft) W 270 0 min 0,000 mm 0 W/m 1,8 C -0,5 C 20,9 km/h (4 Bft) 100,00 %
09.01.2012 03:11 4,6 C 82 % 1018,3 hPa 0,0 l/m 12,9 km/h (3 Bft) W-SW 254 0 min 0,000 mm 0 W/m 1,8 C -0,2 C 22,5 km/h (4 Bft) 100,00 %
09.01.2012 03:12 4,6 C 82 % 1018,3 hPa 0,0 l/m 15,6 km/h (3 Bft) W 279 0 min 0,000 mm 0 W/m 1,8 C -1,7 C 22,5 km/h (4 Bft) 100,00 %
09.01.2012 03:13 4,6 C 82 % 1018,3 hPa 0,0 l/m 16,9 km/h (3 Bft) W 268 0 min 0,000 mm 0 W/m 1,8 C -2,3 C 27,4 km/h (4 Bft) 100,00 %
09.01.2012 03:14 4,6 C 82 % 1018,3 hPa 0,0 l/m 18,5 km/h (3 Bft) W 281 0 min 0,000 mm 0 W/m 1,8 C -3,1 C 27,4 km/h (4 Bft) 100,00 %
09.01.2012 03:15 4,6 C 82 % 1018,3 hPa 0,0 l/m 17,6 km/h (3 Bft) W-SW 256 0 min 0,000 mm 0 W/m 1,8 C -2,7 C 22,5 km/h (4 Bft) 100,00 %
09.01.2012 03:16 4,6 C 82 % 1018,4 hPa 0,0 l/m 20,0 km/h (4 Bft) W 265 0 min 0,000 mm 0 W/m 1,8 C -3,7 C 32,2 km/h (5 Bft) 100,00 %
09.01.2012 03:17 4,6 C 82 % 1018,4 hPa 0,0 l/m 16,1 km/h (3 Bft) W-NW 290 0 min 0,000 mm 0 W/m 1,8 C -2,0 C 29,0 km/h (5 Bft) 100,00 %
09.01.2012 03:18 4,6 C 82 % 1018,4 hPa 0,0 l/m 15,9 km/h (3 Bft) W 265 0 min 0,000 mm 0 W/m 1,8 C -1,9 C 27,4 km/h (4 Bft) 100,00 %
09.01.2012 03:19 4,6 C 82 % 1018,3 hPa 0,0 l/m 25,5 km/h (4 Bft) W-NW 298 0 min 0,000 mm 0 W/m 1,8 C -5,6 C 33,8 km/h (5 Bft) 100,00 %
09.01.2012 03:20 4,6 C 82 % 1018,3 hPa 0,0 l/m 23,6 km/h (4 Bft) W 263 0 min 0,000 mm 0 W/m 1,8 C -5,0 C 33,8 km/h (5 Bft) 100,00 %
09.01.2012 03:21 4,6 C 82 % 1018,3 hPa 0,0 l/m 14,3 km/h (3 Bft) W 269 0 min 0,000 mm 0 W/m 1,8 C -1,0 C 24,1 km/h (4 Bft) 100,00 %
09.01.2012 03:22 4,7 C 81 % 1018,4 hPa 0,0 l/m 18,8 km/h (3 Bft) W 263 0 min 0,000 mm 0 W/m 1,7 C -3,1 C 29,0 km/h (5 Bft) 100,00 %
09.01.2012 03:23 4,7 C 81 % 1018,3 hPa 0,0 l/m 15,8 km/h (3 Bft) W-NW 292 0 min 0,000 mm 0 W/m 1,7 C -1,7 C 24,1 km/h (4 Bft) 100,00 %
09.01.2012 03:24 4,7 C 81 % 1018,3 hPa 0,0 l/m 16,0 km/h (3 Bft) W-NW 287 0 min 0,000 mm 0 W/m 1,7 C -1,8 C 22,5 km/h (4 Bft) 100,00 %
09.01.2012 03:25 4,7 C 81 % 1018,5 hPa 0,0 l/m 22,4 km/h (4 Bft) W 271 0 min 0,000 mm 0 W/m 1,7 C -4,5 C 29,0 km/h (5 Bft) 100,00 %
09.01.2012 03:26 4,7 C 81 % 1018,5 hPa 0,0 l/m 15,3 km/h (3 Bft) W 273 0 min 0,000 mm 0 W/m 1,7 C -1,4 C 24,1 km/h (4 Bft) 100,00 %
09.01.2012 03:27 4,7 C 81 % 1018,4 hPa 0,0 l/m 11,9 km/h (2 Bft) W 275 0 min 0,000 mm 0 W/m 1,7 C 0,5 C 19,3 km/h (3 Bft) 100,00 %
09.01.2012 03:28 4,7 C 81 % 1018,5 hPa 0,0 l/m 14,1 km/h (3 Bft) W-NW 291 0 min 0,000 mm 0 W/m 1,7 C -0,8 C 22,5 km/h (4 Bft) 100,00 %
09.01.2012 03:29 4,7 C 81 % 1018,5 hPa 0,0 l/m 9,4 km/h (2 Bft) W-NW 287 0 min 0,000 mm 0 W/m 1,7 C 2,2 C 14,5 km/h (3 Bft) 100,00 %
09.01.2012 03:30 4,7 C 81 % 1018,5 hPa 0,0 l/m 9,6 km/h (2 Bft) W-SW 252 0 min 0,000 mm 0 W/m 1,7 C 2,0 C 14,5 km/h (3 Bft) 100,00 %
09.01.2012 03:31 4,7 C 81 % 1018,5 hPa 0,0 l/m 12,6 km/h (3 Bft) W 264 0 min 0,000 mm 0 W/m 1,7 C 0,0 C 20,9 km/h (4 Bft) 100,00 %
09.01.2012 03:32 4,7 C 81 % 1018,5 hPa 0,0 l/m 12,0 km/h (2 Bft) W-NW 286 0 min 0,000 mm 0 W/m 1,7 C 0,4 C 24,1 km/h (4 Bft) 100,00 %
09.01.2012 03:33 4,7 C 81 % 1018,5 hPa 0,0 l/m 10,0 km/h (2 Bft) W-NW 286 0 min 0,000 mm 0 W/m 1,7 C 1,7 C 17,7 km/h (3 Bft) 100,00 %
09.01.2012 03:34 4,7 C 81 % 1018,5 hPa 0,0 l/m 15,5 km/h (3 Bft) W 278 0 min 0,000 mm 0 W/m 1,7 C -1,5 C 19,3 km/h (3 Bft) 100,00 %
09.01.2012 03:35 4,7 C 81 % 1018,5 hPa 0,0 l/m 14,4 km/h (3 Bft) W-NW 284 0 min 0,000 mm 0 W/m 1,7 C -1,0 C 24,1 km/h (4 Bft) 100,00 %
09.01.2012 03:36 4,7 C 81 % 1018,4 hPa 0,0 l/m 8,5 km/h (2 Bft) W-NW 284 0 min 0,000 mm 0 W/m 1,7 C 2,9 C 17,7 km/h (3 Bft) 100,00 %
09.01.2012 03:37 4,7 C 81 % 1018,4 hPa 0,0 l/m 12,9 km/h (3 Bft) W 261 0 min 0,000 mm 0 W/m 1,7 C -0,1 C 29,0 km/h (5 Bft) 100,00 %
09.01.2012 03:38 4,7 C 81 % 1018,5 hPa 0,0 l/m 15,4 km/h (3 Bft) W 269 0 min 0,000 mm 0 W/m 1,7 C -1,5 C 24,1 km/h (4 Bft) 100,00 %
09.01.2012 03:39 4,7 C 81 % 1018,5 hPa 0,0 l/m 12,2 km/h (2 Bft) W 271 0 min 0,000 mm 0 W/m 1,7 C 0,3 C 22,5 km/h (4 Bft) 100,00 %
09.01.2012 03:40 4,7 C 81 % 1018,5 hPa 0,0 l/m 9,9 km/h (2 Bft) W 272 0 min 0,000 mm 0 W/m 1,7 C 1,8 C 16,1 km/h (3 Bft) 100,00 %
09.01.2012 03:41 4,7 C 81 % 1018,4 hPa 0,0 l/m 17,2 km/h (3 Bft) W 279 0 min 0,000 mm 0 W/m 1,7 C -2,4 C 24,1 km/h (4 Bft) 100,00 %
09.01.2012 03:42 4,7 C 81 % 1018,5 hPa 0,0 l/m 10,3 km/h (2 Bft) W 269 0 min 0,000 mm 0 W/m 1,7 C 1,5 C 17,7 km/h (3 Bft) 100,00 %
09.01.2012 03:43 4,7 C 81 % 1018,5 hPa 0,0 l/m 12,0 km/h (2 Bft) W 280 0 min 0,000 mm 0 W/m 1,7 C 0,4 C 20,9 km/h (4 Bft) 100,00 %
09.01.2012 03:44 4,7 C 81 % 1018,5 hPa 0,0 l/m 16,8 km/h (3 Bft) W 261 0 min 0,000 mm 0 W/m 1,7 C -2,2 C 32,2 km/h (5 Bft) 96,00 %
09.01.2012 03:45 4,7 C 81 % 1018,4 hPa 0,0 l/m 12,5 km/h (3 Bft) W-NW 294 0 min 0,000 mm 0 W/m 1,7 C 0,1 C 22,5 km/h (4 Bft) 100,00 %
09.01.2012 03:46 4,7 C 81 % 1018,4 hPa 0,0 l/m 19,3 km/h (3 Bft) W 272 0 min 0,000 mm 0 W/m 1,7 C -3,3 C 29,0 km/h (5 Bft) 100,00 %
09.01.2012 03:47 4,7 C 81 % 1018,4 hPa 0,0 l/m 16,0 km/h (3 Bft) W-NW 282 0 min 0,000 mm 0 W/m 1,7 C -1,8 C 24,1 km/h (4 Bft) 100,00 %
09.01.2012 03:48 4,7 C 81 % 1018,5 hPa 0,0 l/m 20,0 km/h (4 Bft) W-NW 299 0 min 0,000 mm 0 W/m 1,7 C -3,6 C 29,0 km/h (5 Bft) 100,00 %
09.01.2012 03:49 4,7 C 81 % 1018,5 hPa 0,0 l/m 11,8 km/h (2 Bft) W 262 0 min 0,000 mm 0 W/m 1,7 C 0,5 C 19,3 km/h (3 Bft) 100,00 %
09.01.2012 03:50 4,7 C 81 % 1018,4 hPa 0,0 l/m 16,7 km/h (3 Bft) W 277 0 min 0,000 mm 0 W/m 1,7 C -2,1 C 24,1 km/h (4 Bft) 100,00 %
09.01.2012 03:51 4,7 C 81 % 1018,5 hPa 0,0 l/m 19,6 km/h (3 Bft) W 270 0 min 0,000 mm 0 W/m 1,7 C -3,4 C 29,0 km/h (5 Bft) 100,00 %
09.01.2012 03:52 4,8 C 81 % 1018,5 hPa 0,0 l/m 13,2 km/h (3 Bft) W 261 0 min 0,000 mm 0 W/m 1,8 C -0,2 C 20,9 km/h (4 Bft) 100,00 %
09.01.2012 03:53 4,7 C 81 % 1018,6 hPa 0,0 l/m 16,1 km/h (3 Bft) W 265 0 min 0,000 mm 0 W/m 1,7 C -1,8 C 22,5 km/h (4 Bft) 100,00 %
09.01.2012 03:54 4,8 C 81 % 1018,4 hPa 0,0 l/m 18,9 km/h (3 Bft) W 273 0 min 0,000 mm 0 W/m 1,8 C -3,0 C 27,4 km/h (4 Bft) 100,00 %
09.01.2012 03:55 4,8 C 81 % 1018,5 hPa 0,0 l/m 18,3 km/h (3 Bft) W 268 0 min 0,000 mm 0 W/m 1,8 C -2,7 C 30,6 km/h (5 Bft) 100,00 %
09.01.2012 03:56 4,8 C 80 % 1018,4 hPa 0,0 l/m 15,4 km/h (3 Bft) W-NW 283 0 min 0,000 mm 0 W/m 1,6 C -1,4 C 24,1 km/h (4 Bft) 100,00 %
09.01.2012 03:57 4,8 C 80 % 1018,5 hPa 0,0 l/m 19,2 km/h (3 Bft) W 271 0 min 0,000 mm 0 W/m 1,6 C -3,1 C 30,6 km/h (5 Bft) 100,00 %
09.01.2012 03:58 4,8 C 80 % 1018,5 hPa 0,0 l/m 17,0 km/h (3 Bft) W-SW 253 0 min 0,000 mm 0 W/m 1,6 C -2,1 C 27,4 km/h (4 Bft) 100,00 %
09.01.2012 03:59 4,8 C 80 % 1018,5 hPa 0,0 l/m 16,0 km/h (3 Bft) W 279 0 min 0,000 mm 0 W/m 1,6 C -1,7 C 20,9 km/h (4 Bft) 100,00 %
09.01.2012 04:00 4,8 C 80 % 1018,5 hPa 0,0 l/m 15,7 km/h (3 Bft) W 269 0 min 0,026 mm 0 W/m 1,6 C -1,5 C 20,9 km/h (4 Bft) 100,00 %
09.01.2012 04:01 4,8 C 80 % 1018,5 hPa 0,0 l/m 15,5 km/h (3 Bft) W-SW 255 0 min 0,000 mm 0 W/m 1,6 C -1,4 C 22,5 km/h (4 Bft) 100,00 %
09.01.2012 04:02 4,8 C 80 % 1018,5 hPa 0,0 l/m 15,0 km/h (3 Bft) W 265 0 min 0,000 mm 0 W/m 1,6 C -1,2 C 22,5 km/h (4 Bft) 100,00 %
09.01.2012 04:03 4,8 C 80 % 1018,5 hPa 0,0 l/m 13,6 km/h (3 Bft) W-SW 250 0 min 0,000 mm 0 W/m 1,6 C -0,4 C 20,9 km/h (4 Bft) 100,00 %
09.01.2012 04:04 4,8 C 80 % 1018,5 hPa 0,0 l/m 12,5 km/h (3 Bft) W 273 0 min 0,000 mm 0 W/m 1,6 C 0,2 C 20,9 km/h (4 Bft) 100,00 %
09.01.2012 04:05 4,8 C 80 % 1018,5 hPa 0,0 l/m 14,3 km/h (3 Bft) W 265 0 min 0,000 mm 0 W/m 1,6 C -0,8 C 19,3 km/h (3 Bft) 100,00 %
09.01.2012 04:06 4,9 C 80 % 1018,6 hPa 0,0 l/m 11,1 km/h (2 Bft) W 275 0 min 0,000 mm 0 W/m 1,7 C 1,2 C 20,9 km/h (4 Bft) 100,00 %
09.01.2012 04:07 4,8 C 80 % 1018,6 hPa 0,0 l/m 9,7 km/h (2 Bft) W 267 0 min 0,000 mm 0 W/m 1,6 C 2,1 C 16,1 km/h (3 Bft) 100,00 %
09.01.2012 04:08 4,8 C 80 % 1018,5 hPa 0,0 l/m 18,1 km/h (3 Bft) W 273 0 min 0,000 mm 0 W/m 1,6 C -2,6 C 22,5 km/h (4 Bft) 100,00 %
09.01.2012 04:09 4,9 C 80 % 1018,5 hPa 0,0 l/m 16,8 km/h (3 Bft) W-NW 285 0 min 0,000 mm 0 W/m 1,7 C -1,9 C 27,4 km/h (4 Bft) 100,00 %
09.01.2012 04:10 4,8 C 80 % 1018,6 hPa 0,0 l/m 16,0 km/h (3 Bft) W-NW 289 0 min 0,000 mm 0 W/m 1,6 C -1,7 C 20,9 km/h (4 Bft) 100,00 %
09.01.2012 04:11 4,8 C 80 % 1018,5 hPa 0,0 l/m 15,8 km/h (3 Bft) W 275 0 min 0,000 mm 0 W/m 1,6 C -1,6 C 27,4 km/h (4 Bft) 100,00 %
09.01.2012 04:12 4,9 C 80 % 1018,5 hPa 0,0 l/m 16,0 km/h (3 Bft) W 276 0 min 0,000 mm 0 W/m 1,7 C -1,5 C 22,5 km/h (4 Bft) 100,00 %
09.01.2012 04:13 4,9 C 80 % 1018,5 hPa 0,0 l/m 14,6 km/h (3 Bft) W 264 0 min 0,000 mm 0 W/m 1,7 C -0,8 C 20,9 km/h (4 Bft) 100,00 %
09.01.2012 04:14 4,9 C 80 % 1018,5 hPa 0,0 l/m 17,8 km/h (3 Bft) W 271 0 min 0,000 mm 0 W/m 1,7 C -2,4 C 22,5 km/h (4 Bft) 100,00 %
09.01.2012 04:15 4,9 C 80 % 1018,5 hPa 0,0 l/m 20,5 km/h (4 Bft) W 280 0 min 0,000 mm 0 W/m 1,7 C -3,5 C 30,6 km/h (5 Bft) 100,00 %
09.01.2012 04:16 4,9 C 80 % 1018,6 hPa 0,0 l/m 14,9 km/h (3 Bft) W 268 0 min 0,000 mm 0 W/m 1,7 C -1,0 C 22,5 km/h (4 Bft) 100,00 %
09.01.2012 04:17 4,9 C 80 % 1018,5 hPa 0,0 l/m 13,4 km/h (3 Bft) W 268 0 min 0,000 mm 0 W/m 1,7 C -0,2 C 24,1 km/h (4 Bft) 100,00 %
09.01.2012 04:18 4,9 C 80 % 1018,5 hPa 0,0 l/m 17,6 km/h (3 Bft) W 261 0 min 0,000 mm 0 W/m 1,7 C -2,3 C 25,7 km/h (4 Bft) 100,00 %
09.01.2012 04:19 4,9 C 80 % 1018,5 hPa 0,0 l/m 11,3 km/h (2 Bft) W 275 0 min 0,000 mm 0 W/m 1,7 C 1,1 C 20,9 km/h (4 Bft) 100,00 %
09.01.2012 04:20 4,9 C 80 % 1018,5 hPa 0,0 l/m 20,3 km/h (4 Bft) W 277 0 min 0,000 mm 0 W/m 1,7 C -3,4 C 33,8 km/h (5 Bft) 100,00 %
09.01.2012 04:21 4,9 C 80 % 1018,5 hPa 0,0 l/m 19,4 km/h (3 Bft) W 263 0 min 0,000 mm 0 W/m 1,7 C -3,1 C 30,6 km/h (5 Bft) 100,00 %
09.01.2012 04:22 4,9 C 80 % 1018,5 hPa 0,0 l/m 19,1 km/h (3 Bft) W 259 0 min 0,000 mm 0 W/m 1,7 C -2,9 C 25,7 km/h (4 Bft) 100,00 %
09.01.2012 04:23 4,9 C 80 % 1018,5 hPa 0,0 l/m 22,0 km/h (4 Bft) W-SW 257 0 min 0,000 mm 0 W/m 1,7 C -4,1 C 30,6 km/h (5 Bft) 100,00 %
09.01.2012 04:24 4,9 C 80 % 1018,5 hPa 0,0 l/m 12,8 km/h (3 Bft) W-NW 282 0 min 0,000 mm 0 W/m 1,7 C 0,2 C 22,5 km/h (4 Bft) 100,00 %
09.01.2012 04:25 4,9 C 80 % 1018,5 hPa 0,0 l/m 12,5 km/h (3 Bft) W-SW 246 0 min 0,000 mm 0 W/m 1,7 C 0,3 C 24,1 km/h (4 Bft) 100,00 %
09.01.2012 04:26 5,0 C 80 % 1018,5 hPa 0,0 l/m 17,8 km/h (3 Bft) W 265 0 min 0,000 mm 0 W/m 1,8 C -2,3 C 27,4 km/h (4 Bft) 100,00 %
09.01.2012 04:27 4,9 C 80 % 1018,5 hPa 0,0 l/m 17,4 km/h (3 Bft) W 269 0 min 0,000 mm 0 W/m 1,7 C -2,2 C 25,7 km/h (4 Bft) 100,00 %
09.01.2012 04:28 5,0 C 80 % 1018,5 hPa 0,0 l/m 15,6 km/h (3 Bft) W 265 0 min 0,000 mm 0 W/m 1,8 C -1,2 C 22,5 km/h (4 Bft) 100,00 %
09.01.2012 04:29 5,0 C 80 % 1018,5 hPa 0,0 l/m 22,0 km/h (4 Bft) W 267 0 min 0,000 mm 0 W/m 1,8 C -3,9 C 27,4 km/h (4 Bft) 100,00 %
09.01.2012 04:30 5,0 C 80 % 1018,6 hPa 0,0 l/m 14,6 km/h (3 Bft) W-NW 292 0 min 0,000 mm 0 W/m 1,8 C -0,7 C 19,3 km/h (3 Bft) 100,00 %
09.01.2012 04:31 5,0 C 80 % 1018,6 hPa 0,0 l/m 21,5 km/h (4 Bft) W 275 0 min 0,000 mm 0 W/m 1,8 C -3,7 C 30,6 km/h (5 Bft) 100,00 %
09.01.2012 04:32 5,0 C 80 % 1018,6 hPa 0,0 l/m 25,6 km/h (4 Bft) W 261 0 min 0,000 mm 0 W/m 1,8 C -5,1 C 33,8 km/h (5 Bft) 100,00 %
09.01.2012 04:33 5,0 C 80 % 1018,6 hPa 0,0 l/m 15,4 km/h (3 Bft) W-NW 284 0 min 0,000 mm 0 W/m 1,8 C -1,1 C 24,1 km/h (4 Bft) 100,00 %
09.01.2012 04:34 5,0 C 80 % 1018,6 hPa 0,0 l/m 10,4 km/h (2 Bft) W 277 0 min 0,000 mm 0 W/m 1,8 C 1,8 C 22,5 km/h (4 Bft) 100,00 %
09.01.2012 04:35 5,1 C 80 % 1018,6 hPa 0,0 l/m 18,9 km/h (3 Bft) W-NW 284 0 min 0,000 mm 0 W/m 1,9 C -2,6 C 29,0 km/h (5 Bft) 100,00 %
09.01.2012 04:36 5,1 C 80 % 1018,6 hPa 0,0 l/m 20,1 km/h (4 Bft) W-NW 300 0 min 0,000 mm 0 W/m 1,9 C -3,1 C 29,0 km/h (5 Bft) 100,00 %
09.01.2012 04:37 5,1 C 80 % 1018,6 hPa 0,0 l/m 16,4 km/h (3 Bft) W 271 0 min 0,000 mm 0 W/m 1,9 C -1,5 C 27,4 km/h (4 Bft) 100,00 %
09.01.2012 04:38 5,1 C 80 % 1018,6 hPa 0,0 l/m 12,7 km/h (3 Bft) W 279 0 min 0,000 mm 0 W/m 1,9 C 0,5 C 20,9 km/h (4 Bft) 100,00 %
09.01.2012 04:39 5,1 C 80 % 1018,6 hPa 0,0 l/m 23,0 km/h (4 Bft) W-NW 300 0 min 0,000 mm 0 W/m 1,9 C -4,1 C 38,6 km/h (5 Bft) 100,00 %
09.01.2012 04:40 5,1 C 80 % 1018,6 hPa 0,0 l/m 15,3 km/h (3 Bft) W 264 0 min 0,000 mm 0 W/m 1,9 C -1,0 C 25,7 km/h (4 Bft) 100,00 %
09.01.2012 04:41 5,1 C 80 % 1018,7 hPa 0,0 l/m 12,5 km/h (3 Bft) W 278 0 min 0,000 mm 0 W/m 1,9 C 0,6 C 19,3 km/h (3 Bft) 100,00 %
09.01.2012 04:42 5,1 C 80 % 1018,7 hPa 0,0 l/m 18,1 km/h (3 Bft) W-NW 291 0 min 0,000 mm 0 W/m 1,9 C -2,3 C 32,2 km/h (5 Bft) 100,00 %
09.01.2012 04:43 5,1 C 80 % 1018,7 hPa 0,0 l/m 19,8 km/h (3 Bft) W 262 0 min 0,000 mm 0 W/m 1,9 C -3,0 C 30,6 km/h (5 Bft) 100,00 %
09.01.2012 04:44 5,1 C 80 % 1018,7 hPa 0,0 l/m 21,1 km/h (4 Bft) W 267 0 min 0,000 mm 0 W/m 1,9 C -3,5 C 27,4 km/h (4 Bft) 100,00 %
09.01.2012 04:45 5,1 C 80 % 1018,8 hPa 0,0 l/m 19,3 km/h (3 Bft) W 278 0 min 0,000 mm 0 W/m 1,9 C -2,8 C 29,0 km/h (5 Bft) 100,00 %
09.01.2012 04:46 5,1 C 80 % 1018,7 hPa 0,0 l/m 15,1 km/h (3 Bft) W-NW 302 0 min 0,000 mm 0 W/m 1,9 C -0,9 C 25,7 km/h (4 Bft) 100,00 %
09.01.2012 04:47 5,1 C 80 % 1018,7 hPa 0,0 l/m 18,0 km/h (3 Bft) W-NW 284 0 min 0,000 mm 0 W/m 1,9 C -2,2 C 30,6 km/h (5 Bft) 100,00 %
09.01.2012 04:48 5,1 C 80 % 1018,7 hPa 0,0 l/m 21,0 km/h (4 Bft) W-NW 290 0 min 0,000 mm 0 W/m 1,9 C -3,4 C 30,6 km/h (5 Bft) 100,00 %
09.01.2012 04:49 5,0 C 81 % 1018,7 hPa 0,0 l/m 13,3 km/h (3 Bft) W 276 0 min 0,000 mm 0 W/m 2,0 C -0,0 C 22,5 km/h (4 Bft) 100,00 %
09.01.2012 04:50 5,0 C 81 % 1018,7 hPa 0,0 l/m 18,6 km/h (3 Bft) W 275 0 min 0,000 mm 0 W/m 2,0 C -2,6 C 25,7 km/h (4 Bft) 100,00 %
09.01.2012 04:51 5,0 C 81 % 1018,7 hPa 0,0 l/m 14,7 km/h (3 Bft) W-NW 294 0 min 0,000 mm 0 W/m 2,0 C -0,8 C 29,0 km/h (5 Bft) 100,00 %
09.01.2012 04:52 4,9 C 81 % 1018,7 hPa 0,0 l/m 19,9 km/h (4 Bft) W-NW 292 0 min 0,000 mm 0 W/m 1,9 C -3,3 C 27,4 km/h (4 Bft) 100,00 %
09.01.2012 04:53 4,9 C 81 % 1018,7 hPa 0,0 l/m 12,0 km/h (2 Bft) W-NW 294 0 min 0,000 mm 0 W/m 1,9 C 0,6 C 19,3 km/h (3 Bft) 100,00 %
09.01.2012 04:54 4,9 C 81 % 1018,7 hPa 0,0 l/m 18,7 km/h (3 Bft) W 267 0 min 0,000 mm 0 W/m 1,9 C -2,8 C 32,2 km/h (5 Bft) 100,00 %
09.01.2012 04:55 4,9 C 82 % 1018,7 hPa 0,0 l/m 18,8 km/h (3 Bft) W-SW 256 0 min 0,000 mm 0 W/m 2,1 C -2,8 C 29,0 km/h (5 Bft) 100,00 %
09.01.2012 04:56 4,9 C 86 % 1018,7 hPa 0,0 l/m 21,6 km/h (4 Bft) W 275 0 min 0,000 mm 0 W/m 2,8 C -3,9 C 37,0 km/h (5 Bft) 100,00 %
09.01.2012 04:57 4,9 C 82 % 1018,7 hPa 0,0 l/m 14,1 km/h (3 Bft) W 274 0 min 0,000 mm 0 W/m 2,1 C -0,6 C 22,5 km/h (4 Bft) 100,00 %
09.01.2012 04:58 4,8 C 82 % 1018,7 hPa 0,0 l/m 20,3 km/h (4 Bft) W 269 0 min 0,000 mm 0 W/m 2,0 C -3,5 C 30,6 km/h (5 Bft) 100,00 %
09.01.2012 04:59 4,8 C 82 % 1018,7 hPa 0,0 l/m 14,0 km/h (3 Bft) W 265 0 min 0,000 mm 0 W/m 2,0 C -0,6 C 22,5 km/h (4 Bft) 100,00 %
09.01.2012 05:00 4,8 C 82 % 1018,7 hPa 0,0 l/m 12,8 km/h (3 Bft) W-NW 284 0 min 0,025 mm 0 W/m 2,0 C 0,0 C 20,9 km/h (4 Bft) 100,00 %
09.01.2012 05:01 4,8 C 82 % 1018,8 hPa 0,0 l/m 12,5 km/h (3 Bft) W 275 0 min 0,000 mm 0 W/m 2,0 C 0,2 C 20,9 km/h (4 Bft) 100,00 %
09.01.2012 05:02 4,8 C 82 % 1018,8 hPa 0,0 l/m 14,9 km/h (3 Bft) W 276 0 min 0,000 mm 0 W/m 2,0 C -1,1 C 20,9 km/h (4 Bft) 100,00 %
09.01.2012 05:03 4,8 C 82 % 1018,8 hPa 0,0 l/m 9,2 km/h (2 Bft) W 277 0 min 0,000 mm 0 W/m 2,0 C 2,4 C 17,7 km/h (3 Bft) 100,00 %
09.01.2012 05:04 4,8 C 83 % 1018,7 hPa 0,0 l/m 10,0 km/h (2 Bft) W 262 0 min 0,000 mm 0 W/m 2,2 C 1,9 C 24,1 km/h (4 Bft) 100,00 %
09.01.2012 05:05 4,8 C 83 % 1018,8 hPa 0,0 l/m 14,4 km/h (3 Bft) W 265 0 min 0,000 mm 0 W/m 2,2 C -0,9 C 22,5 km/h (4 Bft) 100,00 %
09.01.2012 05:06 4,7 C 83 % 1018,8 hPa 0,3 l/m 15,3 km/h (3 Bft) W 263 0 min 0,000 mm 0 W/m 2,1 C -1,4 C 29,0 km/h (5 Bft) 100,00 %
09.01.2012 05:07 4,7 C 83 % 1018,7 hPa 0,0 l/m 18,6 km/h (3 Bft) W 277 0 min 0,000 mm 0 W/m 2,1 C -3,0 C 29,0 km/h (5 Bft) 100,00 %
09.01.2012 05:08 4,7 C 83 % 1018,7 hPa 0,0 l/m 19,9 km/h (4 Bft) NW 306 0 min 0,000 mm 0 W/m 2,1 C -3,5 C 30,6 km/h (5 Bft) 100,00 %
09.01.2012 05:09 4,7 C 83 % 1018,7 hPa 0,0 l/m 19,0 km/h (3 Bft) W 268 0 min 0,000 mm 0 W/m 2,1 C -3,1 C 29,0 km/h (5 Bft) 100,00 %
09.01.2012 05:10 4,7 C 83 % 1018,8 hPa 0,0 l/m 10,7 km/h (2 Bft) W-SW 257 0 min 0,000 mm 0 W/m 2,1 C 1,3 C 24,1 km/h (4 Bft) 100,00 %
09.01.2012 05:11 4,7 C 83 % 1018,8 hPa 0,0 l/m 13,3 km/h (3 Bft) W-NW 288 0 min 0,000 mm 0 W/m 2,1 C -0,4 C 24,1 km/h (4 Bft) 100,00 %
09.01.2012 05:12 4,7 C 83 % 1018,7 hPa 0,0 l/m 15,4 km/h (3 Bft) W 278 0 min 0,000 mm 0 W/m 2,1 C -1,5 C 24,1 km/h (4 Bft) 100,00 %
09.01.2012 05:13 4,7 C 83 % 1018,8 hPa 0,0 l/m 13,9 km/h (3 Bft) W-NW 294 0 min 0,000 mm 0 W/m 2,1 C -0,7 C 24,1 km/h (4 Bft) 100,00 %
09.01.2012 05:14 4,7 C 83 % 1018,8 hPa 0,0 l/m 13,7 km/h (3 Bft) W 269 0 min 0,000 mm 0 W/m 2,1 C -0,6 C 22,5 km/h (4 Bft) 100,00 %
09.01.2012 05:15 4,7 C 83 % 1018,9 hPa 0,0 l/m 14,0 km/h (3 Bft) W 265 0 min 0,000 mm 0 W/m 2,1 C -0,8 C 25,7 km/h (4 Bft) 100,00 %
09.01.2012 05:16 4,7 C 83 % 1018,9 hPa 0,0 l/m 8,6 km/h (2 Bft) W 279 0 min 0,000 mm 0 W/m 2,1 C 2,8 C 14,5 km/h (3 Bft) 100,00 %
09.01.2012 05:17 4,7 C 83 % 1018,9 hPa 0,0 l/m 14,2 km/h (3 Bft) W 281 0 min 0,000 mm 0 W/m 2,1 C -0,9 C 22,5 km/h (4 Bft) 100,00 %
09.01.2012 05:18 4,7 C 83 % 1018,9 hPa 0,0 l/m 17,9 km/h (3 Bft) W-SW 254 0 min 0,000 mm 0 W/m 2,1 C -2,7 C 24,1 km/h (4 Bft) 100,00 %
09.01.2012 05:19 4,7 C 83 % 1018,9 hPa 0,0 l/m 20,8 km/h (4 Bft) W 268 0 min 0,000 mm 0 W/m 2,1 C -3,9 C 30,6 km/h (5 Bft) 100,00 %
09.01.2012 05:20 4,7 C 83 % 1018,9 hPa 0,0 l/m 17,6 km/h (3 Bft) W 279 0 min 0,000 mm 0 W/m 2,1 C -2,5 C 24,1 km/h (4 Bft) 100,00 %
09.01.2012 05:21 4,7 C 83 % 1018,9 hPa 0,0 l/m 18,3 km/h (3 Bft) NW 318 0 min 0,000 mm 0 W/m 2,1 C -2,9 C 25,7 km/h (4 Bft) 100,00 %
09.01.2012 05:22 4,7 C 83 % 1019,0 hPa 0,0 l/m 14,3 km/h (3 Bft) W 273 0 min 0,000 mm 0 W/m 2,1 C -0,9 C 20,9 km/h (4 Bft) 100,00 %
09.01.2012 05:23 4,7 C 83 % 1019,0 hPa 0,0 l/m 18,9 km/h (3 Bft) W-NW 289 0 min 0,000 mm 0 W/m 2,1 C -3,1 C 30,6 km/h (5 Bft) 100,00 %
09.01.2012 05:24 4,7 C 83 % 1019,0 hPa 0,0 l/m 21,6 km/h (4 Bft) W 270 0 min 0,000 mm 0 W/m 2,1 C -4,2 C 32,2 km/h (5 Bft) 100,00 %
09.01.2012 05:25 4,7 C 83 % 1019,1 hPa 0,0 l/m 9,9 km/h (2 Bft) W-NW 297 0 min 0,000 mm 0 W/m 2,1 C 1,8 C 24,1 km/h (4 Bft) 100,00 %
09.01.2012 05:26 4,7 C 83 % 1019,1 hPa 0,0 l/m 17,8 km/h (3 Bft) W-NW 288 0 min 0,000 mm 0 W/m 2,1 C -2,6 C 27,4 km/h (4 Bft) 100,00 %
09.01.2012 05:27 4,7 C 83 % 1019,1 hPa 0,0 l/m 17,6 km/h (3 Bft) NW 314 0 min 0,000 mm 0 W/m 2,1 C -2,5 C 25,7 km/h (4 Bft) 100,00 %
09.01.2012 05:28 4,7 C 83 % 1019,1 hPa 0,0 l/m 14,8 km/h (3 Bft) W-NW 295 0 min 0,000 mm 0 W/m 2,1 C -1,2 C 27,4 km/h (4 Bft) 100,00 %
09.01.2012 05:29 4,7 C 83 % 1019,2 hPa 0,0 l/m 19,0 km/h (3 Bft) W 281 0 min 0,000 mm 0 W/m 2,1 C -3,1 C 30,6 km/h (5 Bft) 100,00 %
09.01.2012 05:30 4,7 C 83 % 1019,2 hPa 0,0 l/m 17,6 km/h (3 Bft) W-NW 295 0 min 0,000 mm 0 W/m 2,1 C -2,5 C 24,1 km/h (4 Bft) 100,00 %
09.01.2012 05:31 4,7 C 83 % 1019,3 hPa 0,0 l/m 9,7 km/h (2 Bft) W-NW 292 0 min 0,000 mm 0 W/m 2,1 C 2,0 C 16,1 km/h (3 Bft) 100,00 %
09.01.2012 05:32 4,7 C 83 % 1019,3 hPa 0,0 l/m 19,0 km/h (3 Bft) W 281 0 min 0,000 mm 0 W/m 2,1 C -3,1 C 35,4 km/h (5 Bft) 100,00 %
09.01.2012 05:33 4,7 C 83 % 1019,2 hPa 0,0 l/m 15,3 km/h (3 Bft) NW 308 0 min 0,000 mm 0 W/m 2,1 C -1,4 C 24,1 km/h (4 Bft) 100,00 %
09.01.2012 05:34 4,7 C 83 % 1019,3 hPa 0,0 l/m 16,8 km/h (3 Bft) W 272 0 min 0,000 mm 0 W/m 2,1 C -2,2 C 24,1 km/h (4 Bft) 100,00 %
09.01.2012 05:35 4,7 C 83 % 1019,3 hPa 0,0 l/m 13,4 km/h (3 Bft) W-NW 298 0 min 0,000 mm 0 W/m 2,1 C -0,4 C 24,1 km/h (4 Bft) 100,00 %
09.01.2012 05:36 4,7 C 83 % 1019,3 hPa 0,0 l/m 13,5 km/h (3 Bft) W-NW 302 0 min 0,000 mm 0 W/m 2,1 C -0,5 C 22,5 km/h (4 Bft) 100,00 %
09.01.2012 05:37 4,7 C 83 % 1019,4 hPa 0,0 l/m 11,9 km/h (2 Bft) W 277 0 min 0,000 mm 0 W/m 2,1 C 0,5 C 20,9 km/h (4 Bft) 100,00 %
09.01.2012 05:38 4,7 C 83 % 1019,4 hPa 0,0 l/m 12,3 km/h (3 Bft) NW 317 0 min 0,000 mm 0 W/m 2,1 C 0,2 C 20,9 km/h (4 Bft) 100,00 %
09.01.2012 05:39 4,7 C 83 % 1019,4 hPa 0,0 l/m 12,8 km/h (3 Bft) W 274 0 min 0,000 mm 0 W/m 2,1 C -0,1 C 20,9 km/h (4 Bft) 100,00 %
09.01.2012 05:40 4,7 C 83 % 1019,4 hPa 0,0 l/m 11,2 km/h (2 Bft) NW 311 0 min 0,000 mm 0 W/m 2,1 C 0,9 C 17,7 km/h (3 Bft) 100,00 %
09.01.2012 05:41 4,7 C 83 % 1019,4 hPa 0,0 l/m 9,0 km/h (2 Bft) W-NW 287 0 min 0,000 mm 0 W/m 2,1 C 2,5 C 22,5 km/h (4 Bft) 100,00 %
09.01.2012 05:42 4,7 C 83 % 1019,5 hPa 0,0 l/m 12,8 km/h (3 Bft) W 272 0 min 0,000 mm 0 W/m 2,1 C -0,1 C 22,5 km/h (4 Bft) 100,00 %
09.01.2012 05:43 4,7 C 83 % 1019,4 hPa 0,0 l/m 12,7 km/h (3 Bft) W-NW 294 0 min 0,000 mm 0 W/m 2,1 C -0,0 C 17,7 km/h (3 Bft) 100,00 %
09.01.2012 05:44 4,7 C 83 % 1019,4 hPa 0,0 l/m 16,1 km/h (3 Bft) W-NW 292 0 min 0,000 mm 0 W/m 2,1 C -1,8 C 29,0 km/h (5 Bft) 100,00 %
09.01.2012 05:45 4,7 C 83 % 1019,5 hPa 0,0 l/m 16,6 km/h (3 Bft) NW 312 0 min 0,000 mm 0 W/m 2,1 C -2,1 C 30,6 km/h (5 Bft) 100,00 %
09.01.2012 05:46 4,7 C 83 % 1019,5 hPa 0,0 l/m 17,0 km/h (3 Bft) W 268 0 min 0,000 mm 0 W/m 2,1 C -2,3 C 24,1 km/h (4 Bft) 100,00 %
09.01.2012 05:47 4,7 C 83 % 1019,4 hPa 0,0 l/m 13,6 km/h (3 Bft) W 269 0 min 0,000 mm 0 W/m 2,1 C -0,5 C 27,4 km/h (4 Bft) 100,00 %
09.01.2012 05:48 4,7 C 83 % 1019,5 hPa 0,0 l/m 19,8 km/h (3 Bft) W-SW 256 0 min 0,000 mm 0 W/m 2,1 C -3,5 C 29,0 km/h (5 Bft) 100,00 %
09.01.2012 05:49 4,7 C 83 % 1019,5 hPa 0,0 l/m 22,0 km/h (4 Bft) NW 304 0 min 0,000 mm 0 W/m 2,1 C -4,3 C 30,6 km/h (5 Bft) 100,00 %
09.01.2012 05:50 4,7 C 83 % 1019,5 hPa 0,0 l/m 21,6 km/h (4 Bft) W-NW 286 0 min 0,000 mm 0 W/m 2,1 C -4,2 C 30,6 km/h (5 Bft) 100,00 %
09.01.2012 05:51 4,7 C 83 % 1019,5 hPa 0,0 l/m 11,7 km/h (2 Bft) W-NW 283 0 min 0,000 mm 0 W/m 2,1 C 0,6 C 22,5 km/h (4 Bft) 100,00 %
09.01.2012 05:52 4,7 C 83 % 1019,5 hPa 0,0 l/m 11,5 km/h (2 Bft) W-NW 289 0 min 0,000 mm 0 W/m 2,1 C 0,7 C 19,3 km/h (3 Bft) 100,00 %
09.01.2012 05:53 4,7 C 83 % 1019,6 hPa 0,0 l/m 11,4 km/h (2 Bft) W 281 0 min 0,000 mm 0 W/m 2,1 C 0,8 C 17,7 km/h (3 Bft) 100,00 %
09.01.2012 05:54 4,7 C 83 % 1019,6 hPa 0,0 l/m 10,9 km/h (2 Bft) W-NW 291 0 min 0,000 mm 0 W/m 2,1 C 1,1 C 19,3 km/h (3 Bft) 100,00 %
09.01.2012 05:55 4,7 C 83 % 1019,7 hPa 0,0 l/m 13,3 km/h (3 Bft) W 260 0 min 0,000 mm 0 W/m 2,1 C -0,4 C 20,9 km/h (4 Bft) 100,00 %
09.01.2012 05:56 4,7 C 83 % 1019,7 hPa 0,0 l/m 12,6 km/h (3 Bft) W 260 0 min 0,000 mm 0 W/m 2,1 C 0,0 C 20,9 km/h (4 Bft) 100,00 %
09.01.2012 05:57 4,7 C 83 % 1019,7 hPa 0,0 l/m 8,9 km/h (2 Bft) W 273 0 min 0,000 mm 0 W/m 2,1 C 2,6 C 14,5 km/h (3 Bft) 100,00 %
09.01.2012 05:58 4,7 C 83 % 1019,7 hPa 0,0 l/m 15,7 km/h (3 Bft) W 281 0 min 0,000 mm 0 W/m 2,1 C -1,6 C 22,5 km/h (4 Bft) 100,00 %
09.01.2012 05:59 4,7 C 83 % 1019,7 hPa 0,0 l/m 9,9 km/h (2 Bft) W 274 0 min 0,000 mm 0 W/m 2,1 C 1,8 C 19,3 km/h (3 Bft) 100,00 %
09.01.2012 06:00 4,7 C 83 % 1019,7 hPa 0,0 l/m 8,2 km/h (2 Bft) W 272 0 min 0,000 mm 0 W/m 2,1 C 3,1 C 11,3 km/h (2 Bft) 100,00 %
09.01.2012 06:01 4,6 C 83 % 1019,7 hPa 0,0 l/m 9,3 km/h (2 Bft) W 269 0 min 0,025 mm 0 W/m 2,0 C 2,1 C 14,5 km/h (3 Bft) 100,00 %
09.01.2012 06:02 4,6 C 83 % 1019,8 hPa 0,0 l/m 14,5 km/h (3 Bft) W-NW 293 0 min 0,000 mm 0 W/m 2,0 C -1,1 C 24,1 km/h (4 Bft) 100,00 %
09.01.2012 06:03 4,6 C 83 % 1019,8 hPa 0,0 l/m 11,6 km/h (2 Bft) W 275 0 min 0,000 mm 0 W/m 2,0 C 0,5 C 24,1 km/h (4 Bft) 100,00 %
09.01.2012 06:04 4,6 C 83 % 1019,8 hPa 0,0 l/m 4,6 km/h (1 Bft) W-NW 292 0 min 0,000 mm 0 W/m 2,0 C 4,6 C 11,3 km/h (2 Bft) 100,00 %
09.01.2012 06:05 4,6 C 83 % 1019,8 hPa 0,0 l/m 8,4 km/h (2 Bft) W 279 0 min 0,000 mm 0 W/m 2,0 C 2,9 C 16,1 km/h (3 Bft) 100,00 %
09.01.2012 06:06 4,6 C 84 % 1019,8 hPa 0,0 l/m 9,7 km/h (2 Bft) W-SW 257 0 min 0,000 mm 0 W/m 2,1 C 1,8 C 16,1 km/h (3 Bft) 100,00 %
09.01.2012 06:07 4,6 C 84 % 1019,8 hPa 0,0 l/m 8,1 km/h (2 Bft) W-NW 296 0 min 0,000 mm 0 W/m 2,1 C 3,1 C 17,7 km/h (3 Bft) 100,00 %
09.01.2012 06:08 4,6 C 84 % 1019,8 hPa 0,0 l/m 9,3 km/h (2 Bft) W 280 0 min 0,000 mm 0 W/m 2,1 C 2,1 C 19,3 km/h (3 Bft) 100,00 %
09.01.2012 06:09 4,6 C 83 % 1019,8 hPa 0,0 l/m 6,9 km/h (2 Bft) W 279 0 min 0,000 mm 0 W/m 2,0 C 4,2 C 9,7 km/h (2 Bft) 100,00 %
09.01.2012 06:10 4,6 C 83 % 1019,8 hPa 0,0 l/m 9,3 km/h (2 Bft) W-NW 283 0 min 0,000 mm 0 W/m 2,0 C 2,1 C 14,5 km/h (3 Bft) 100,00 %
09.01.2012 06:11 4,6 C 84 % 1019,8 hPa 0,0 l/m 8,3 km/h (2 Bft) W 273 0 min 0,000 mm 0 W/m 2,1 C 2,9 C 14,5 km/h (3 Bft) 100,00 %
09.01.2012 06:12 4,6 C 84 % 1019,8 hPa 0,0 l/m 10,3 km/h (2 Bft) W-NW 288 0 min 0,000 mm 0 W/m 2,1 C 1,4 C 22,5 km/h (4 Bft) 100,00 %
09.01.2012 06:13 4,6 C 84 % 1019,8 hPa 0,0 l/m 10,3 km/h (2 Bft) W-NW 291 0 min 0,000 mm 0 W/m 2,1 C 1,4 C 24,1 km/h (4 Bft) 100,00 %
09.01.2012 06:14 4,6 C 84 % 1019,8 hPa 0,0 l/m 5,6 km/h (1 Bft) W-NW 298 0 min 0,000 mm 0 W/m 2,1 C 4,6 C 11,3 km/h (2 Bft) 100,00 %
09.01.2012 06:15 4,6 C 84 % 1019,8 hPa 0,0 l/m 5,9 km/h (2 Bft) W-NW 296 0 min 0,000 mm 0 W/m 2,1 C 4,6 C 8,0 km/h (2 Bft) 100,00 %
09.01.2012 06:16 4,6 C 84 % 1019,8 hPa 0,0 l/m 5,4 km/h (1 Bft) W-NW 284 0 min 0,000 mm 0 W/m 2,1 C 4,6 C 9,7 km/h (2 Bft) 100,00 %
09.01.2012 06:17 4,6 C 84 % 1019,9 hPa 0,0 l/m 9,7 km/h (2 Bft) W-NW 296 0 min 0,000 mm 0 W/m 2,1 C 1,8 C 14,5 km/h (3 Bft) 100,00 %
09.01.2012 06:18 4,6 C 84 % 1019,9 hPa 0,0 l/m 6,6 km/h (2 Bft) W-NW 288 0 min 0,000 mm 0 W/m 2,1 C 4,4 C 14,5 km/h (3 Bft) 100,00 %
09.01.2012 06:19 4,6 C 84 % 1019,9 hPa 0,0 l/m 9,2 km/h (2 Bft) W-SW 258 0 min 0,000 mm 0 W/m 2,1 C 2,2 C 17,7 km/h (3 Bft) 100,00 %
09.01.2012 06:20 4,6 C 84 % 1019,9 hPa 0,0 l/m 7,8 km/h (2 Bft) W 267 0 min 0,000 mm 0 W/m 2,1 C 3,4 C 11,3 km/h (2 Bft) 95,83 %
09.01.2012 06:21 4,6 C 84 % 1019,9 hPa 0,0 l/m 13,6 km/h (3 Bft) W-NW 292 0 min 0,000 mm 0 W/m 2,1 C -0,7 C 30,6 km/h (5 Bft) 100,00 %
09.01.2012 06:22 4,6 C 84 % 1019,9 hPa 0,0 l/m 15,2 km/h (3 Bft) W-NW 294 0 min 0,000 mm 0 W/m 2,1 C -1,5 C 27,4 km/h (4 Bft) 100,00 %
09.01.2012 06:23 4,6 C 83 % 1019,9 hPa 0,0 l/m 13,1 km/h (3 Bft) W 267 0 min 0,000 mm 0 W/m 2,0 C -0,4 C 19,3 km/h (3 Bft) 96,00 %
09.01.2012 06:24 4,6 C 83 % 1019,9 hPa 0,0 l/m 10,1 km/h (2 Bft) W 268 0 min 0,000 mm 0 W/m 2,0 C 1,6 C 16,1 km/h (3 Bft) 100,00 %
09.01.2012 06:25 4,6 C 83 % 1020,0 hPa 0,0 l/m 12,3 km/h (3 Bft) W 281 0 min 0,000 mm 0 W/m 2,0 C 0,1 C 22,5 km/h (4 Bft) 100,00 %
09.01.2012 06:26 4,6 C 83 % 1020,0 hPa 0,0 l/m 15,9 km/h (3 Bft) W-NW 284 0 min 0,000 mm 0 W/m 2,0 C -1,9 C 22,5 km/h (4 Bft) 100,00 %
09.01.2012 06:27 4,6 C 83 % 1020,0 hPa 0,0 l/m 10,8 km/h (2 Bft) W 268 0 min 0,000 mm 0 W/m 2,0 C 1,1 C 20,9 km/h (4 Bft) 100,00 %
09.01.2012 06:28 4,6 C 83 % 1020,1 hPa 0,0 l/m 8,2 km/h (2 Bft) W-NW 290 0 min 0,000 mm 0 W/m 2,0 C 3,0 C 16,1 km/h (3 Bft) 100,00 %
09.01.2012 06:29 4,6 C 83 % 1020,1 hPa 0,0 l/m 11,6 km/h (2 Bft) W-NW 295 0 min 0,000 mm 0 W/m 2,0 C 0,5 C 19,3 km/h (3 Bft) 100,00 %
09.01.2012 06:30 4,6 C 83 % 1020,0 hPa 0,0 l/m 11,9 km/h (2 Bft) W 265 0 min 0,000 mm 0 W/m 2,0 C 0,4 C 17,7 km/h (3 Bft) 100,00 %
09.01.2012 06:31 4,6 C 83 % 1020,1 hPa 0,0 l/m 9,1 km/h (2 Bft) W-NW 284 0 min 0,000 mm 0 W/m 2,0 C 2,3 C 16,1 km/h (3 Bft) 100,00 %
09.01.2012 06:32 4,6 C 83 % 1020,1 hPa 0,0 l/m 15,3 km/h (3 Bft) W 281 0 min 0,000 mm 0 W/m 2,0 C -1,6 C 27,4 km/h (4 Bft) 100,00 %
09.01.2012 06:33 4,6 C 83 % 1020,1 hPa 0,0 l/m 14,5 km/h (3 Bft) W-NW 293 0 min 0,000 mm 0 W/m 2,0 C -1,1 C 27,4 km/h (4 Bft) 100,00 %
09.01.2012 06:34 4,6 C 83 % 1020,1 hPa 0,0 l/m 11,6 km/h (2 Bft) W-NW 302 0 min 0,000 mm 0 W/m 2,0 C 0,5 C 20,9 km/h (4 Bft) 96,30 %
09.01.2012 06:35 4,6 C 83 % 1020,2 hPa 0,0 l/m 15,8 km/h (3 Bft) W 269 0 min 0,000 mm 0 W/m 2,0 C -1,8 C 24,1 km/h (4 Bft) 100,00 %
09.01.2012 06:36 4,6 C 83 % 1020,2 hPa 0,0 l/m 14,1 km/h (3 Bft) W-NW 294 0 min 0,000 mm 0 W/m 2,0 C -0,9 C 20,9 km/h (4 Bft) 100,00 %
09.01.2012 06:37 4,6 C 83 % 1020,1 hPa 0,0 l/m 10,7 km/h (2 Bft) W-NW 287 0 min 0,000 mm 0 W/m 2,0 C 1,1 C 22,5 km/h (4 Bft) 100,00 %
09.01.2012 06:38 4,6 C 83 % 1020,2 hPa 0,0 l/m 16,9 km/h (3 Bft) W-NW 288 0 min 0,000 mm 0 W/m 2,0 C -2,3 C 24,1 km/h (4 Bft) 100,00 %
09.01.2012 06:39 4,6 C 83 % 1020,2 hPa 0,0 l/m 16,3 km/h (3 Bft) W-NW 284 0 min 0,000 mm 0 W/m 2,0 C -2,1 C 30,6 km/h (5 Bft) 100,00 %
09.01.2012 06:40 4,6 C 83 % 1020,1 hPa 0,0 l/m 12,7 km/h (3 Bft) W-NW 287 0 min 0,000 mm 0 W/m 2,0 C -0,1 C 22,5 km/h (4 Bft) 100,00 %
09.01.2012 06:41 4,6 C 83 % 1020,2 hPa 0,0 l/m 18,5 km/h (3 Bft) W 277 0 min 0,000 mm 0 W/m 2,0 C -3,1 C 24,1 km/h (4 Bft) 100,00 %
09.01.2012 06:42 4,7 C 83 % 1020,2 hPa 0,0 l/m 18,8 km/h (3 Bft) W-NW 299 0 min 0,000 mm 0 W/m 2,1 C -3,1 C 29,0 km/h (5 Bft) 100,00 %
09.01.2012 06:43 4,6 C 83 % 1020,2 hPa 0,0 l/m 15,1 km/h (3 Bft) W 277 0 min 0,000 mm 0 W/m 2,0 C -1,5 C 24,1 km/h (4 Bft) 100,00 %
09.01.2012 06:44 4,7 C 82 % 1020,2 hPa 0,0 l/m 21,0 km/h (4 Bft) W 279 0 min 0,000 mm 0 W/m 1,9 C -4,0 C 32,2 km/h (5 Bft) 100,00 %
09.01.2012 06:45 4,7 C 82 % 1020,3 hPa 0,0 l/m 13,3 km/h (3 Bft) W-NW 302 0 min 0,000 mm 0 W/m 1,9 C -0,4 C 22,5 km/h (4 Bft) 100,00 %
09.01.2012 06:46 4,7 C 82 % 1020,2 hPa 0,0 l/m 12,7 km/h (3 Bft) W 272 0 min 0,000 mm 0 W/m 1,9 C -0,0 C 19,3 km/h (3 Bft) 100,00 %
09.01.2012 06:47 4,7 C 82 % 1020,3 hPa 0,0 l/m 17,5 km/h (3 Bft) W-NW 288 0 min 0,000 mm 0 W/m 1,9 C -2,5 C 25,7 km/h (4 Bft) 100,00 %
09.01.2012 06:48 4,7 C 82 % 1020,3 hPa 0,0 l/m 9,3 km/h (2 Bft) W 280 0 min 0,000 mm 0 W/m 1,9 C 2,3 C 16,1 km/h (3 Bft) 100,00 %
09.01.2012 06:49 4,7 C 82 % 1020,2 hPa 0,0 l/m 13,2 km/h (3 Bft) W 265 0 min 0,000 mm 0 W/m 1,9 C -0,3 C 24,1 km/h (4 Bft) 100,00 %
09.01.2012 06:50 4,7 C 82 % 1020,3 hPa 0,0 l/m 16,5 km/h (3 Bft) W-NW 299 0 min 0,000 mm 0 W/m 1,9 C -2,0 C 25,7 km/h (4 Bft) 100,00 %
09.01.2012 06:51 4,7 C 82 % 1020,3 hPa 0,0 l/m 12,2 km/h (2 Bft) W 279 0 min 0,000 mm 0 W/m 1,9 C 0,3 C 20,9 km/h (4 Bft) 100,00 %
09.01.2012 06:52 4,7 C 82 % 1020,3 hPa 0,0 l/m 7,3 km/h (2 Bft) W-SW 248 0 min 0,000 mm 0 W/m 1,9 C 3,9 C 19,3 km/h (3 Bft) 100,00 %
09.01.2012 06:53 4,7 C 82 % 1020,3 hPa 0,0 l/m 12,3 km/h (3 Bft) W-NW 289 0 min 0,000 mm 0 W/m 1,9 C 0,2 C 20,9 km/h (4 Bft) 100,00 %
09.01.2012 06:54 4,7 C 82 % 1020,3 hPa 0,0 l/m 20,8 km/h (4 Bft) W-NW 303 0 min 0,000 mm 0 W/m 1,9 C -3,9 C 29,0 km/h (5 Bft) 100,00 %
09.01.2012 06:55 4,7 C 82 % 1020,3 hPa 0,0 l/m 16,4 km/h (3 Bft) W 271 0 min 0,000 mm 0 W/m 1,9 C -2,0 C 20,9 km/h (4 Bft) 100,00 %
09.01.2012 06:56 4,7 C 82 % 1020,3 hPa 0,0 l/m 13,1 km/h (3 Bft) W 264 0 min 0,000 mm 0 W/m 1,9 C -0,2 C 17,7 km/h (3 Bft) 100,00 %
09.01.2012 06:57 4,7 C 82 % 1020,3 hPa 0,0 l/m 13,1 km/h (3 Bft) W 280 0 min 0,000 mm 0 W/m 1,9 C -0,2 C 19,3 km/h (3 Bft) 100,00 %
09.01.2012 06:58 4,7 C 82 % 1020,3 hPa 0,0 l/m 13,9 km/h (3 Bft) W 273 0 min 0,000 mm 0 W/m 1,9 C -0,7 C 29,0 km/h (5 Bft) 100,00 %
09.01.2012 06:59 4,7 C 82 % 1020,4 hPa 0,0 l/m 15,6 km/h (3 Bft) W 259 0 min 0,000 mm 0 W/m 1,9 C -1,6 C 22,5 km/h (4 Bft) 100,00 %
09.01.2012 07:00 4,7 C 82 % 1020,4 hPa 0,0 l/m 12,8 km/h (3 Bft) W-NW 299 0 min 0,000 mm 0 W/m 1,9 C -0,1 C 22,5 km/h (4 Bft) 100,00 %
09.01.2012 07:01 4,7 C 82 % 1020,4 hPa 0,0 l/m 16,0 km/h (3 Bft) W 274 0 min 0,025 mm 0 W/m 1,9 C -1,8 C 29,0 km/h (5 Bft) 100,00 %
09.01.2012 07:02 4,7 C 82 % 1020,3 hPa 0,0 l/m 14,3 km/h (3 Bft) W 275 0 min 0,001 mm 0 W/m 1,9 C -0,9 C 22,5 km/h (4 Bft) 100,00 %
09.01.2012 07:03 4,7 C 82 % 1020,4 hPa 0,0 l/m 9,9 km/h (2 Bft) W-NW 290 0 min 0,000 mm 0 W/m 1,9 C 1,8 C 16,1 km/h (3 Bft) 100,00 %
09.01.2012 07:04 4,7 C 82 % 1020,5 hPa 0,0 l/m 8,4 km/h (2 Bft) W 275 0 min 0,000 mm 0 W/m 1,9 C 3,0 C 17,7 km/h (3 Bft) 100,00 %
09.01.2012 07:05 4,7 C 82 % 1020,4 hPa 0,0 l/m 17,7 km/h (3 Bft) W-SW 252 0 min 0,000 mm 0 W/m 1,9 C -2,6 C 24,1 km/h (4 Bft) 100,00 %
09.01.2012 07:06 4,7 C 82 % 1020,5 hPa 0,0 l/m 17,6 km/h (3 Bft) W-NW 290 0 min 0,000 mm 0 W/m 1,9 C -2,5 C 25,7 km/h (4 Bft) 100,00 %
09.01.2012 07:07 4,6 C 82 % 1020,5 hPa 0,0 l/m 13,0 km/h (3 Bft) W-NW 286 0 min 0,000 mm 0 W/m 1,8 C -0,3 C 20,9 km/h (4 Bft) 100,00 %
09.01.2012 07:08 4,6 C 82 % 1020,5 hPa 0,0 l/m 14,3 km/h (3 Bft) W 279 0 min 0,000 mm 0 W/m 1,8 C -1,0 C 24,1 km/h (4 Bft) 100,00 %
09.01.2012 07:09 4,6 C 82 % 1020,5 hPa 0,0 l/m 9,7 km/h (2 Bft) W-NW 282 0 min 0,000 mm 0 W/m 1,8 C 1,8 C 17,7 km/h (3 Bft) 100,00 %
09.01.2012 07:10 4,6 C 82 % 1020,5 hPa 0,0 l/m 11,2 km/h (2 Bft) W-NW 290 0 min 0,000 mm 0 W/m 1,8 C 0,8 C 19,3 km/h (3 Bft) 100,00 %
09.01.2012 07:11 4,6 C 82 % 1020,6 hPa 0,0 l/m 12,8 km/h (3 Bft) W 280 0 min 0,000 mm 0 W/m 1,8 C -0,2 C 24,1 km/h (4 Bft) 100,00 %
09.01.2012 07:12 4,6 C 82 % 1020,6 hPa 0,0 l/m 12,7 km/h (3 Bft) W 261 0 min 0,000 mm 0 W/m 1,8 C -0,1 C 24,1 km/h (4 Bft) 100,00 %
09.01.2012 07:13 4,6 C 82 % 1020,6 hPa 0,0 l/m 22,0 km/h (4 Bft) NW 305 0 min 0,000 mm 0 W/m 1,8 C -4,5 C 33,8 km/h (5 Bft) 100,00 %
09.01.2012 07:14 4,6 C 82 % 1020,6 hPa 0,0 l/m 25,6 km/h (4 Bft) W-NW 302 0 min 0,000 mm 0 W/m 1,8 C -5,7 C 33,8 km/h (5 Bft) 100,00 %
09.01.2012 07:15 4,6 C 82 % 1020,6 hPa 0,0 l/m 21,1 km/h (4 Bft) W 273 0 min 0,000 mm 0 W/m 1,8 C -4,1 C 25,7 km/h (4 Bft) 100,00 %
09.01.2012 07:16 4,7 C 82 % 1020,6 hPa 0,0 l/m 19,2 km/h (3 Bft) W 268 0 min 0,000 mm 0 W/m 1,9 C -3,2 C 29,0 km/h (5 Bft) 100,00 %
09.01.2012 07:17 4,7 C 82 % 1020,6 hPa 0,0 l/m 18,4 km/h (3 Bft) W-NW 299 0 min 0,000 mm 0 W/m 1,9 C -2,9 C 29,0 km/h (5 Bft) 100,00 %
09.01.2012 07:18 4,7 C 82 % 1020,7 hPa 0,0 l/m 19,7 km/h (3 Bft) W-NW 284 0 min 0,000 mm 0 W/m 1,9 C -3,4 C 33,8 km/h (5 Bft) 100,00 %
09.01.2012 07:19 4,7 C 82 % 1020,7 hPa 0,0 l/m 20,5 km/h (4 Bft) W 272 0 min 0,000 mm 0 W/m 1,9 C -3,8 C 29,0 km/h (5 Bft) 100,00 %
09.01.2012 07:20 4,7 C 82 % 1020,8 hPa 0,0 l/m 14,3 km/h (3 Bft) W-SW 257 0 min 0,000 mm 0 W/m 1,9 C -0,9 C 25,7 km/h (4 Bft) 100,00 %
09.01.2012 07:21 4,7 C 82 % 1020,7 hPa 0,0 l/m 16,9 km/h (3 Bft) W 271 0 min 0,000 mm 0 W/m 1,9 C -2,2 C 24,1 km/h (4 Bft) 100,00 %
09.01.2012 07:22 4,7 C 82 % 1020,7 hPa 0,0 l/m 10,1 km/h (2 Bft) W-NW 288 0 min 0,000 mm 0 W/m 1,9 C 1,7 C 16,1 km/h (3 Bft) 100,00 %
09.01.2012 07:23 4,7 C 83 % 1020,7 hPa 0,0 l/m 15,6 km/h (3 Bft) W 276 0 min 0,000 mm 0 W/m 2,1 C -1,6 C 25,7 km/h (4 Bft) 100,00 %
09.01.2012 07:24 4,7 C 83 % 1020,7 hPa 0,0 l/m 18,4 km/h (3 Bft) W-NW 292 0 min 0,000 mm 0 W/m 2,1 C -2,9 C 27,4 km/h (4 Bft) 100,00 %
09.01.2012 07:25 4,6 C 83 % 1020,7 hPa 0,0 l/m 18,4 km/h (3 Bft) W 269 0 min 0,000 mm 0 W/m 2,0 C -3,0 C 30,6 km/h (5 Bft) 100,00 %
09.01.2012 07:26 4,6 C 83 % 1020,7 hPa 0,0 l/m 17,4 km/h (3 Bft) W 274 0 min 0,000 mm 0 W/m 2,0 C -2,6 C 29,0 km/h (5 Bft) 100,00 %
09.01.2012 07:27 4,6 C 83 % 1020,7 hPa 0,0 l/m 19,5 km/h (3 Bft) W-NW 296 0 min 0,000 mm 0 W/m 2,0 C -3,5 C 33,8 km/h (5 Bft) 100,00 %
09.01.2012 07:28 4,6 C 83 % 1020,7 hPa 0,0 l/m 16,0 km/h (3 Bft) NW 307 0 min 0,000 mm 0 W/m 2,0 C -1,9 C 25,7 km/h (4 Bft) 100,00 %
09.01.2012 07:29 4,6 C 83 % 1020,7 hPa 0,0 l/m 12,1 km/h (2 Bft) W-NW 286 0 min 0,000 mm 0 W/m 2,0 C 0,2 C 19,3 km/h (3 Bft) 100,00 %
09.01.2012 07:30 4,6 C 83 % 1020,8 hPa 0,0 l/m 23,4 km/h (4 Bft) W 271 0 min 0,000 mm 0 W/m 2,0 C -5,0 C 33,8 km/h (5 Bft) 100,00 %
09.01.2012 07:31 4,6 C 83 % 1020,9 hPa 0,0 l/m 15,8 km/h (3 Bft) NW 309 0 min 0,000 mm 0 W/m 2,0 C -1,8 C 29,0 km/h (5 Bft) 100,00 %
09.01.2012 07:32 4,6 C 83 % 1020,8 hPa 0,0 l/m 13,9 km/h (3 Bft) W 277 0 min 0,000 mm 0 W/m 2,0 C -0,8 C 33,8 km/h (5 Bft) 100,00 %
09.01.2012 07:33 4,6 C 83 % 1020,8 hPa 0,0 l/m 16,6 km/h (3 Bft) W 276 0 min 0,000 mm 0 W/m 2,0 C -2,2 C 27,4 km/h (4 Bft) 100,00 %
09.01.2012 07:34 4,6 C 83 % 1020,9 hPa 0,0 l/m 25,2 km/h (4 Bft) W 267 0 min 0,000 mm 0 W/m 2,0 C -5,5 C 35,4 km/h (5 Bft) 100,00 %
09.01.2012 07:35 4,6 C 83 % 1020,9 hPa 0,0 l/m 18,3 km/h (3 Bft) W-NW 298 0 min 0,000 mm 0 W/m 2,0 C -3,0 C 25,7 km/h (4 Bft) 100,00 %
09.01.2012 07:36 4,6 C 83 % 1020,9 hPa 0,0 l/m 17,6 km/h (3 Bft) W 271 0 min 0,000 mm 0 W/m 2,0 C -2,7 C 27,4 km/h (4 Bft) 100,00 %
09.01.2012 07:37 4,6 C 83 % 1020,9 hPa 0,0 l/m 17,1 km/h (3 Bft) W 272 0 min 0,000 mm 0 W/m 2,0 C -2,4 C 27,4 km/h (4 Bft) 100,00 %
09.01.2012 07:38 4,5 C 83 % 1021,0 hPa 0,0 l/m 5,9 km/h (2 Bft) W 276 0 min 0,000 mm 0 W/m 1,9 C 4,5 C 9,7 km/h (2 Bft) 100,00 %
09.01.2012 07:39 4,5 C 83 % 1021,0 hPa 0,0 l/m 6,4 km/h (2 Bft) W 268 0 min 0,000 mm 0 W/m 1,9 C 4,5 C 22,5 km/h (4 Bft) 100,00 %
09.01.2012 07:40 4,5 C 83 % 1021,0 hPa 0,0 l/m 11,1 km/h (2 Bft) W 270 0 min 0,000 mm 0 W/m 1,9 C 0,8 C 19,3 km/h (3 Bft) 100,00 %
09.01.2012 07:41 4,5 C 83 % 1021,0 hPa 0,0 l/m 11,3 km/h (2 Bft) W-NW 284 0 min 0,000 mm 0 W/m 1,9 C 0,6 C 20,9 km/h (4 Bft) 100,00 %
09.01.2012 07:42 4,5 C 83 % 1021,0 hPa 0,0 l/m 8,7 km/h (2 Bft) W-SW 252 0 min 0,000 mm 0 W/m 1,9 C 2,5 C 12,9 km/h (3 Bft) 100,00 %
09.01.2012 07:43 4,4 C 83 % 1021,0 hPa 0,0 l/m 14,5 km/h (3 Bft) W 264 0 min 0,000 mm 0 W/m 1,8 C -1,4 C 24,1 km/h (4 Bft) 100,00 %
09.01.2012 07:44 4,5 C 83 % 1021,0 hPa 0,0 l/m 12,5 km/h (3 Bft) W-NW 303 0 min 0,000 mm 0 W/m 1,9 C -0,1 C 22,5 km/h (4 Bft) 100,00 %
09.01.2012 07:45 4,4 C 83 % 1021,0 hPa 0,0 l/m 16,1 km/h (3 Bft) W 271 0 min 0,000 mm 0 W/m 1,8 C -2,2 C 25,7 km/h (4 Bft) 100,00 %
09.01.2012 07:46 4,4 C 83 % 1021,0 hPa 0,0 l/m 14,3 km/h (3 Bft) W 273 0 min 0,000 mm 0 W/m 1,8 C -1,3 C 27,4 km/h (4 Bft) 100,00 %
09.01.2012 07:47 4,4 C 84 % 1021,0 hPa 0,0 l/m 16,9 km/h (3 Bft) W 269 0 min 0,000 mm 0 W/m 1,9 C -2,6 C 27,4 km/h (4 Bft) 100,00 %
09.01.2012 07:48 4,4 C 84 % 1021,0 hPa 0,0 l/m 11,5 km/h (2 Bft) W-NW 300 0 min 0,000 mm 0 W/m 1,9 C 0,4 C 17,7 km/h (3 Bft) 100,00 %
09.01.2012 07:49 4,4 C 84 % 1021,0 hPa 0,0 l/m 8,4 km/h (2 Bft) W-NW 282 0 min 0,000 mm 0 W/m 1,9 C 2,6 C 11,3 km/h (2 Bft) 100,00 %
09.01.2012 07:50 4,4 C 84 % 1021,0 hPa 0,0 l/m 14,8 km/h (3 Bft) W 280 0 min 0,000 mm 0 W/m 1,9 C -1,5 C 24,1 km/h (4 Bft) 100,00 %
09.01.2012 07:51 4,4 C 84 % 1021,1 hPa 0,0 l/m 17,9 km/h (3 Bft) NW 307 0 min 0,000 mm 0 W/m 1,9 C -3,1 C 29,0 km/h (5 Bft) 100,00 %
09.01.2012 07:52 4,4 C 84 % 1021,1 hPa 0,0 l/m 11,5 km/h (2 Bft) W-NW 283 0 min 0,000 mm 0 W/m 1,9 C 0,4 C 20,9 km/h (4 Bft) 100,00 %
09.01.2012 07:53 4,4 C 84 % 1021,1 hPa 0,0 l/m 14,8 km/h (3 Bft) W-SW 256 0 min 0,000 mm 0 W/m 1,9 C -1,5 C 22,5 km/h (4 Bft) 100,00 %
09.01.2012 07:54 4,4 C 84 % 1021,1 hPa 0,0 l/m 20,4 km/h (4 Bft) W 262 0 min 0,000 mm 0 W/m 1,9 C -4,1 C 29,0 km/h (5 Bft) 100,00 %
09.01.2012 07:55 4,5 C 84 % 1021,1 hPa 0,0 l/m 20,7 km/h (4 Bft) W 261 0 min 0,000 mm 0 W/m 2,0 C -4,1 C 30,6 km/h (5 Bft) 100,00 %
09.01.2012 07:56 4,5 C 83 % 1021,1 hPa 0,0 l/m 15,0 km/h (3 Bft) NW 322 0 min 0,000 mm 0 W/m 1,9 C -1,5 C 22,5 km/h (4 Bft) 100,00 %
09.01.2012 07:57 4,5 C 83 % 1021,1 hPa 0,0 l/m 19,5 km/h (3 Bft) W 270 0 min 0,000 mm 0 W/m 1,9 C -3,6 C 30,6 km/h (5 Bft) 100,00 %
09.01.2012 07:58 4,5 C 83 % 1021,1 hPa 0,0 l/m 17,2 km/h (3 Bft) W 269 0 min 0,000 mm 5 W/m 1,9 C -2,6 C 27,4 km/h (4 Bft) 100,00 %
09.01.2012 07:59 4,5 C 83 % 1021,1 hPa 0,0 l/m 20,0 km/h (4 Bft) W 275 0 min 0,000 mm 5 W/m 1,9 C -3,8 C 32,2 km/h (5 Bft) 100,00 %
09.01.2012 08:00 4,6 C 83 % 1021,1 hPa 0,0 l/m 19,0 km/h (3 Bft) W-NW 284 0 min 0,000 mm 5 W/m 2,0 C -3,3 C 30,6 km/h (5 Bft) 100,00 %
09.01.2012 08:01 4,6 C 83 % 1021,1 hPa 0,0 l/m 20,5 km/h (4 Bft) W 277 0 min 0,025 mm 5 W/m 2,0 C -3,9 C 29,0 km/h (5 Bft) 100,00 %
09.01.2012 08:02 4,6 C 83 % 1021,1 hPa 0,0 l/m 19,4 km/h (3 Bft) W 264 0 min 0,000 mm 7 W/m 2,0 C -3,4 C 35,4 km/h (5 Bft) 100,00 %
09.01.2012 08:03 4,6 C 83 % 1021,1 hPa 0,0 l/m 19,5 km/h (3 Bft) W-SW 253 0 min 0,000 mm 7 W/m 2,0 C -3,5 C 29,0 km/h (5 Bft) 100,00 %
09.01.2012 08:04 4,6 C 83 % 1021,2 hPa 0,0 l/m 15,5 km/h (3 Bft) W-NW 295 0 min 0,000 mm 7 W/m 2,0 C -1,7 C 29,0 km/h (5 Bft) 100,00 %
09.01.2012 08:05 4,6 C 83 % 1021,2 hPa 0,0 l/m 23,5 km/h (4 Bft) W-SW 252 0 min 0,000 mm 9 W/m 2,0 C -5,0 C 33,8 km/h (5 Bft) 95,65 %
09.01.2012 08:06 4,6 C 83 % 1021,2 hPa 0,0 l/m 24,6 km/h (4 Bft) W 277 0 min 0,000 mm 9 W/m 2,0 C -5,4 C 33,8 km/h (5 Bft) 100,00 %
09.01.2012 08:07 4,6 C 83 % 1021,4 hPa 0,0 l/m 26,4 km/h (4 Bft) W-NW 289 0 min 0,000 mm 11 W/m 2,0 C -5,9 C 38,6 km/h (5 Bft) 100,00 %
09.01.2012 08:08 4,6 C 83 % 1021,2 hPa 0,0 l/m 17,8 km/h (3 Bft) W 262 0 min 0,000 mm 11 W/m 2,0 C -2,8 C 27,4 km/h (4 Bft) 100,00 %
09.01.2012 08:09 4,6 C 83 % 1021,2 hPa 0,0 l/m 17,8 km/h (3 Bft) SW 233 0 min 0,000 mm 11 W/m 2,0 C -2,8 C 38,6 km/h (5 Bft) 100,00 %
09.01.2012 08:10 4,6 C 83 % 1021,3 hPa 0,0 l/m 16,6 km/h (3 Bft) W 263 0 min 0,000 mm 12 W/m 2,0 C -2,2 C 25,7 km/h (4 Bft) 100,00 %
09.01.2012 08:11 4,6 C 83 % 1021,3 hPa 0,0 l/m 21,7 km/h (4 Bft) W 261 0 min 0,000 mm 12 W/m 2,0 C -4,3 C 35,4 km/h (5 Bft) 100,00 %
09.01.2012 08:12 4,6 C 83 % 1021,3 hPa 0,0 l/m 22,5 km/h (4 Bft) W-NW 287 0 min 0,000 mm 12 W/m 2,0 C -4,6 C 30,6 km/h (5 Bft) 100,00 %
09.01.2012 08:13 4,6 C 83 % 1021,3 hPa 0,0 l/m 18,0 km/h (3 Bft) W 268 0 min 0,000 mm 11 W/m 2,0 C -2,8 C 25,7 km/h (4 Bft) 100,00 %
09.01.2012 08:14 4,6 C 83 % 1021,3 hPa 0,0 l/m 13,1 km/h (3 Bft) W-NW 284 0 min 0,000 mm 12 W/m 2,0 C -0,4 C 30,6 km/h (5 Bft) 100,00 %
09.01.2012 08:15 4,6 C 83 % 1021,3 hPa 0,0 l/m 19,9 km/h (4 Bft) W 274 0 min 0,000 mm 12 W/m 2,0 C -3,6 C 25,7 km/h (4 Bft) 100,00 %
09.01.2012 08:16 4,6 C 83 % 1021,3 hPa 0,0 l/m 16,2 km/h (3 Bft) W-NW 283 0 min 0,000 mm 12 W/m 2,0 C -2,0 C 27,4 km/h (4 Bft) 100,00 %
09.01.2012 08:17 4,6 C 83 % 1021,4 hPa 0,0 l/m 19,0 km/h (3 Bft) W-SW 255 0 min 0,000 mm 12 W/m 2,0 C -3,3 C 32,2 km/h (5 Bft) 100,00 %
09.01.2012 08:18 4,6 C 83 % 1021,4 hPa 0,0 l/m 15,8 km/h (3 Bft) W-NW 287 0 min 0,000 mm 12 W/m 2,0 C -1,8 C 25,7 km/h (4 Bft) 100,00 %
09.01.2012 08:19 4,6 C 83 % 1021,4 hPa 0,0 l/m 14,8 km/h (3 Bft) W 280 0 min 0,000 mm 12 W/m 2,0 C -1,3 C 24,1 km/h (4 Bft) 100,00 %
09.01.2012 08:20 4,6 C 83 % 1021,4 hPa 0,0 l/m 15,5 km/h (3 Bft) W-NW 286 0 min 0,000 mm 12 W/m 2,0 C -1,7 C 29,0 km/h (5 Bft) 100,00 %
09.01.2012 08:21 4,6 C 83 % 1021,4 hPa 0,0 l/m 11,2 km/h (2 Bft) W 266 0 min 0,000 mm 12 W/m 2,0 C 0,8 C 17,7 km/h (3 Bft) 100,00 %
09.01.2012 08:22 4,6 C 83 % 1021,4 hPa 0,0 l/m 9,2 km/h (2 Bft) W-NW 295 0 min 0,000 mm 12 W/m 2,0 C 2,2 C 17,7 km/h (3 Bft) 100,00 %
09.01.2012 08:23 4,6 C 83 % 1021,4 hPa 0,0 l/m 10,6 km/h (2 Bft) W-NW 292 0 min 0,000 mm 14 W/m 2,0 C 1,2 C 16,1 km/h (3 Bft) 100,00 %
09.01.2012 08:24 4,6 C 83 % 1021,4 hPa 0,0 l/m 10,5 km/h (2 Bft) W-NW 302 0 min 0,000 mm 14 W/m 2,0 C 1,3 C 16,1 km/h (3 Bft) 100,00 %
09.01.2012 08:25 4,6 C 83 % 1021,4 hPa 0,0 l/m 16,3 km/h (3 Bft) W 273 0 min 0,000 mm 16 W/m 2,0 C -2,1 C 24,1 km/h (4 Bft) 100,00 %
09.01.2012 08:26 4,6 C 83 % 1021,5 hPa 0,0 l/m 12,9 km/h (3 Bft) W 272 0 min 0,000 mm 16 W/m 2,0 C -0,2 C 17,7 km/h (3 Bft) 100,00 %
09.01.2012 08:27 4,6 C 83 % 1021,5 hPa 0,0 l/m 10,8 km/h (2 Bft) W-NW 283 0 min 0,000 mm 18 W/m 2,0 C 1,1 C 20,9 km/h (4 Bft) 100,00 %
09.01.2012 08:28 4,6 C 83 % 1021,5 hPa 0,0 l/m 13,8 km/h (3 Bft) W 277 0 min 0,000 mm 18 W/m 2,0 C -0,8 C 22,5 km/h (4 Bft) 100,00 %
09.01.2012 08:29 4,6 C 83 % 1021,5 hPa 0,0 l/m 17,7 km/h (3 Bft) W-NW 288 0 min 0,000 mm 19 W/m 2,0 C -2,7 C 27,4 km/h (4 Bft) 100,00 %
09.01.2012 08:30 4,6 C 83 % 1021,5 hPa 0,0 l/m 19,0 km/h (3 Bft) W 272 0 min 0,000 mm 21 W/m 2,0 C -3,3 C 25,7 km/h (4 Bft) 100,00 %
09.01.2012 08:31 4,6 C 83 % 1021,5 hPa 0,0 l/m 13,3 km/h (3 Bft) W 277 0 min 0,000 mm 23 W/m 2,0 C -0,5 C 24,1 km/h (4 Bft) 100,00 %
09.01.2012 08:32 4,6 C 83 % 1021,5 hPa 0,0 l/m 13,2 km/h (3 Bft) W-NW 287 0 min 0,000 mm 25 W/m 2,0 C -0,4 C 20,9 km/h (4 Bft) 100,00 %
09.01.2012 08:33 4,6 C 83 % 1021,6 hPa 0,0 l/m 14,4 km/h (3 Bft) W-NW 287 0 min 0,000 mm 25 W/m 2,0 C -1,1 C 22,5 km/h (4 Bft) 100,00 %
09.01.2012 08:34 4,6 C 83 % 1021,7 hPa 0,0 l/m 16,0 km/h (3 Bft) W 273 0 min 0,000 mm 25 W/m 2,0 C -1,9 C 29,0 km/h (5 Bft) 100,00 %
09.01.2012 08:35 4,7 C 83 % 1021,6 hPa 0,0 l/m 18,6 km/h (3 Bft) W 269 0 min 0,000 mm 25 W/m 2,1 C -3,0 C 27,4 km/h (4 Bft) 100,00 %
09.01.2012 08:36 4,7 C 83 % 1021,7 hPa 0,0 l/m 16,7 km/h (3 Bft) W 281 0 min 0,000 mm 26 W/m 2,1 C -2,1 C 29,0 km/h (5 Bft) 100,00 %
09.01.2012 08:37 4,7 C 83 % 1021,6 hPa 0,0 l/m 14,8 km/h (3 Bft) W-NW 295 0 min 0,000 mm 26 W/m 2,1 C -1,2 C 22,5 km/h (4 Bft) 100,00 %
09.01.2012 08:38 4,7 C 83 % 1021,7 hPa 0,0 l/m 12,2 km/h (2 Bft) W-NW 294 0 min 0,000 mm 26 W/m 2,1 C 0,3 C 22,5 km/h (4 Bft) 100,00 %
09.01.2012 08:39 4,7 C 82 % 1021,7 hPa 0,0 l/m 19,8 km/h (3 Bft) W-SW 244 0 min 0,000 mm 28 W/m 1,9 C -3,5 C 27,4 km/h (4 Bft) 100,00 %
09.01.2012 08:40 4,7 C 82 % 1021,7 hPa 0,0 l/m 14,8 km/h (3 Bft) W 281 0 min 0,000 mm 30 W/m 1,9 C -1,2 C 25,7 km/h (4 Bft) 100,00 %
09.01.2012 08:41 4,7 C 83 % 1021,7 hPa 0,0 l/m 14,3 km/h (3 Bft) W 267 0 min 0,000 mm 28 W/m 2,1 C -0,9 C 24,1 km/h (4 Bft) 96,55 %
09.01.2012 08:42 4,7 C 82 % 1021,7 hPa 0,0 l/m 11,8 km/h (2 Bft) W 281 0 min 0,000 mm 33 W/m 1,9 C 0,5 C 20,9 km/h (4 Bft) 100,00 %
09.01.2012 08:43 4,7 C 82 % 1021,7 hPa 0,0 l/m 14,7 km/h (3 Bft) W 271 0 min 0,000 mm 37 W/m 1,9 C -1,1 C 24,1 km/h (4 Bft) 100,00 %
09.01.2012 08:44 4,7 C 82 % 1021,8 hPa 0,0 l/m 10,9 km/h (2 Bft) W 274 0 min 0,000 mm 37 W/m 1,9 C 1,1 C 24,1 km/h (4 Bft) 100,00 %
09.01.2012 08:45 4,7 C 82 % 1021,7 hPa 0,0 l/m 20,0 km/h (4 Bft) W 261 0 min 0,000 mm 44 W/m 1,9 C -3,6 C 29,0 km/h (5 Bft) 100,00 %
09.01.2012 08:46 4,7 C 82 % 1021,8 hPa 0,0 l/m 11,1 km/h (2 Bft) W 268 0 min 0,000 mm 53 W/m 1,9 C 1,0 C 20,9 km/h (4 Bft) 100,00 %
09.01.2012 08:47 4,7 C 82 % 1021,7 hPa 0,0 l/m 11,7 km/h (2 Bft) W 259 0 min 0,000 mm 56 W/m 1,9 C 0,6 C 19,3 km/h (3 Bft) 100,00 %
09.01.2012 08:48 4,7 C 82 % 1021,8 hPa 0,0 l/m 15,1 km/h (3 Bft) W-NW 302 0 min 0,000 mm 53 W/m 1,9 C -1,3 C 24,1 km/h (4 Bft) 100,00 %
09.01.2012 08:49 4,8 C 82 % 1021,8 hPa 0,0 l/m 16,7 km/h (3 Bft) W 273 0 min 0,000 mm 44 W/m 2,0 C -2,0 C 22,5 km/h (4 Bft) 100,00 %
09.01.2012 08:50 4,8 C 82 % 1021,9 hPa 0,0 l/m 16,1 km/h (3 Bft) W 267 0 min 0,000 mm 46 W/m 2,0 C -1,7 C 27,4 km/h (4 Bft) 100,00 %
09.01.2012 08:51 4,8 C 82 % 1021,8 hPa 0,0 l/m 10,7 km/h (2 Bft) W-NW 297 0 min 0,000 mm 51 W/m 2,0 C 1,4 C 22,5 km/h (4 Bft) 100,00 %
09.01.2012 08:52 4,8 C 82 % 1021,8 hPa 0,0 l/m 13,4 km/h (3 Bft) W-NW 302 0 min 0,000 mm 49 W/m 2,0 C -0,3 C 24,1 km/h (4 Bft) 100,00 %
09.01.2012 08:53 4,8 C 82 % 1021,9 hPa 0,0 l/m 10,5 km/h (2 Bft) W-NW 292 0 min 0,000 mm 49 W/m 2,0 C 1,5 C 17,7 km/h (3 Bft) 100,00 %
09.01.2012 08:54 4,8 C 82 % 1021,9 hPa 0,0 l/m 16,3 km/h (3 Bft) W-NW 284 0 min 0,000 mm 53 W/m 2,0 C -1,8 C 22,5 km/h (4 Bft) 100,00 %
09.01.2012 08:55 4,9 C 82 % 1021,9 hPa 0,0 l/m 7,6 km/h (2 Bft) W 265 0 min 0,000 mm 54 W/m 2,1 C 3,8 C 16,1 km/h (3 Bft) 100,00 %
09.01.2012 08:56 4,9 C 82 % 1021,8 hPa 0,0 l/m 10,1 km/h (2 Bft) W-NW 282 0 min 0,000 mm 54 W/m 2,1 C 1,9 C 16,1 km/h (3 Bft) 100,00 %
09.01.2012 08:57 4,9 C 86 % 1021,9 hPa 0,0 l/m 12,9 km/h (3 Bft) W 277 0 min 0,000 mm 54 W/m 2,8 C 0,1 C 22,5 km/h (4 Bft) 96,00 %
09.01.2012 08:58 4,9 C 82 % 1021,9 hPa 0,0 l/m 16,4 km/h (3 Bft) W 277 0 min 0,000 mm 53 W/m 2,1 C -1,7 C 29,0 km/h (5 Bft) 100,00 %
09.01.2012 08:59 4,9 C 82 % 1021,9 hPa 0,0 l/m 14,8 km/h (3 Bft) W 279 0 min 0,000 mm 49 W/m 2,1 C -0,9 C 22,5 km/h (4 Bft) 100,00 %
09.01.2012 09:00 4,9 C 82 % 1021,9 hPa 0,0 l/m 9,8 km/h (2 Bft) W 265 0 min 0,000 mm 47 W/m 2,1 C 2,1 C 17,7 km/h (3 Bft) 100,00 %
09.01.2012 09:01 4,9 C 82 % 1021,9 hPa 0,0 l/m 8,0 km/h (2 Bft) W 277 0 min 0,025 mm 46 W/m 2,1 C 3,5 C 14,5 km/h (3 Bft) 100,00 %
09.01.2012 09:02 4,9 C 82 % 1022,0 hPa 0,0 l/m 13,1 km/h (3 Bft) W-SW 254 0 min 0,001 mm 46 W/m 2,1 C -0,0 C 24,1 km/h (4 Bft) 100,00 %
09.01.2012 09:03 4,9 C 82 % 1022,0 hPa 0,0 l/m 13,3 km/h (3 Bft) W 263 0 min 0,000 mm 47 W/m 2,1 C -0,1 C 19,3 km/h (3 Bft) 100,00 %
09.01.2012 09:04 4,9 C 82 % 1021,9 hPa 0,0 l/m 10,9 km/h (2 Bft) W 281 0 min 0,000 mm 53 W/m 2,1 C 1,3 C 19,3 km/h (3 Bft) 100,00 %
09.01.2012 09:05 4,9 C 81 % 1022,0 hPa 0,0 l/m 12,7 km/h (3 Bft) W-NW 297 0 min 0,000 mm 54 W/m 1,9 C 0,2 C 25,7 km/h (4 Bft) 100,00 %
09.01.2012 09:06 4,9 C 81 % 1021,9 hPa 0,0 l/m 16,1 km/h (3 Bft) W 267 0 min 0,000 mm 54 W/m 1,9 C -1,6 C 25,7 km/h (4 Bft) 100,00 %
09.01.2012 09:07 4,9 C 81 % 1022,0 hPa 0,0 l/m 15,6 km/h (3 Bft) W-SW 249 0 min 0,000 mm 51 W/m 1,9 C -1,3 C 24,1 km/h (4 Bft) 100,00 %
09.01.2012 09:08 4,9 C 81 % 1022,0 hPa 0,0 l/m 15,3 km/h (3 Bft) W 261 0 min 0,000 mm 49 W/m 1,9 C -1,2 C 22,5 km/h (4 Bft) 100,00 %
09.01.2012 09:09 4,9 C 81 % 1022,1 hPa 0,0 l/m 22,3 km/h (4 Bft) W-NW 282 0 min 0,000 mm 47 W/m 1,9 C -4,2 C 30,6 km/h (5 Bft) 100,00 %
09.01.2012 09:10 4,9 C 81 % 1022,0 hPa 0,0 l/m 14,3 km/h (3 Bft) W 279 0 min 0,000 mm 49 W/m 1,9 C -0,7 C 27,4 km/h (4 Bft) 100,00 %
09.01.2012 09:11 4,9 C 81 % 1022,2 hPa 0,0 l/m 16,1 km/h (3 Bft) W 267 0 min 0,000 mm 49 W/m 1,9 C -1,6 C 25,7 km/h (4 Bft) 100,00 %
09.01.2012 09:12 4,9 C 81 % 1022,1 hPa 0,0 l/m 14,8 km/h (3 Bft) W-NW 292 0 min 0,000 mm 47 W/m 1,9 C -0,9 C 24,1 km/h (4 Bft) 100,00 %
09.01.2012 09:13 4,9 C 81 % 1022,2 hPa 0,0 l/m 17,9 km/h (3 Bft) W-NW 294 0 min 0,000 mm 47 W/m 1,9 C -2,4 C 33,8 km/h (5 Bft) 100,00 %
09.01.2012 09:14 4,9 C 81 % 1022,2 hPa 0,0 l/m 20,4 km/h (4 Bft) W-NW 290 0 min 0,000 mm 46 W/m 1,9 C -3,5 C 30,6 km/h (5 Bft) 100,00 %
09.01.2012 09:15 4,9 C 81 % 1022,2 hPa 0,0 l/m 7,2 km/h (2 Bft) W-NW 295 0 min 0,000 mm 47 W/m 1,9 C 4,2 C 11,3 km/h (2 Bft) 100,00 %
09.01.2012 09:16 4,9 C 81 % 1022,3 hPa 0,0 l/m 10,0 km/h (2 Bft) W-NW 284 0 min 0,000 mm 51 W/m 1,9 C 2,0 C 17,7 km/h (3 Bft) 100,00 %
09.01.2012 09:17 4,9 C 81 % 1022,3 hPa 0,0 l/m 16,0 km/h (3 Bft) W-NW 286 0 min 0,000 mm 53 W/m 1,9 C -1,5 C 27,4 km/h (4 Bft) 100,00 %
09.01.2012 09:18 4,9 C 81 % 1022,3 hPa 0,0 l/m 11,6 km/h (2 Bft) W-NW 285 0 min 0,000 mm 56 W/m 1,9 C 0,9 C 17,7 km/h (3 Bft) 100,00 %
09.01.2012 09:19 4,9 C 81 % 1022,2 hPa 0,0 l/m 15,3 km/h (3 Bft) W 266 0 min 0,000 mm 56 W/m 1,9 C -1,2 C 22,5 km/h (4 Bft) 92,31 %
09.01.2012 09:20 4,9 C 81 % 1022,3 hPa 0,0 l/m 11,0 km/h (2 Bft) W 259 0 min 0,000 mm 56 W/m 1,9 C 1,3 C 17,7 km/h (3 Bft) 100,00 %
09.01.2012 09:21 4,9 C 81 % 1022,3 hPa 0,0 l/m 17,4 km/h (3 Bft) W 266 0 min 0,000 mm 54 W/m 1,9 C -2,2 C 29,0 km/h (5 Bft) 100,00 %
09.01.2012 09:22 4,9 C 81 % 1022,2 hPa 0,0 l/m 22,8 km/h (4 Bft) W 263 0 min 0,000 mm 54 W/m 1,9 C -4,3 C 37,0 km/h (5 Bft) 100,00 %
09.01.2012 09:23 4,9 C 81 % 1022,4 hPa 0,0 l/m 11,6 km/h (2 Bft) W 275 0 min 0,000 mm 58 W/m 1,9 C 0,9 C 17,7 km/h (3 Bft) 100,00 %
09.01.2012 09:24 4,9 C 81 % 1022,4 hPa 0,0 l/m 11,4 km/h (2 Bft) W 271 0 min 0,000 mm 62 W/m 1,9 C 1,0 C 19,3 km/h (3 Bft) 100,00 %
09.01.2012 09:25 4,9 C 81 % 1022,4 hPa 0,0 l/m 15,7 km/h (3 Bft) W 261 0 min 0,000 mm 63 W/m 1,9 C -1,4 C 25,7 km/h (4 Bft) 100,00 %
09.01.2012 09:26 4,9 C 81 % 1022,4 hPa 0,0 l/m 18,1 km/h (3 Bft) W 279 0 min 0,000 mm 62 W/m 1,9 C -2,5 C 22,5 km/h (4 Bft) 100,00 %
09.01.2012 09:27 4,9 C 81 % 1022,4 hPa 0,0 l/m 22,7 km/h (4 Bft) W 264 0 min 0,000 mm 56 W/m 1,9 C -4,3 C 33,8 km/h (5 Bft) 100,00 %
09.01.2012 09:28 4,9 C 81 % 1022,4 hPa 0,0 l/m 17,3 km/h (3 Bft) W 265 0 min 0,000 mm 56 W/m 1,9 C -2,2 C 24,1 km/h (4 Bft) 100,00 %
09.01.2012 09:29 4,9 C 81 % 1022,4 hPa 0,0 l/m 10,7 km/h (2 Bft) W 265 0 min 0,000 mm 58 W/m 1,9 C 1,5 C 22,5 km/h (4 Bft) 100,00 %
09.01.2012 09:30 4,9 C 81 % 1022,4 hPa 0,0 l/m 20,9 km/h (4 Bft) W-SW 258 0 min 0,000 mm 60 W/m 1,9 C -3,7 C 30,6 km/h (5 Bft) 100,00 %
09.01.2012 09:31 4,9 C 81 % 1022,4 hPa 0,0 l/m 22,4 km/h (4 Bft) W 260 0 min 0,000 mm 58 W/m 1,9 C -4,2 C 30,6 km/h (5 Bft) 100,00 %
09.01.2012 09:32 4,9 C 80 % 1022,5 hPa 0,0 l/m 15,6 km/h (3 Bft) W 265 0 min 0,000 mm 56 W/m 1,7 C -1,3 C 24,1 km/h (4 Bft) 100,00 %
09.01.2012 09:33 4,9 C 80 % 1022,5 hPa 0,0 l/m 18,4 km/h (3 Bft) W 269 0 min 0,000 mm 60 W/m 1,7 C -2,6 C 29,0 km/h (5 Bft) 100,00 %
09.01.2012 09:34 4,9 C 80 % 1022,5 hPa 0,0 l/m 16,2 km/h (3 Bft) W 261 0 min 0,000 mm 65 W/m 1,7 C -1,6 C 27,4 km/h (4 Bft) 100,00 %
09.01.2012 09:35 4,9 C 80 % 1022,4 hPa 0,0 l/m 21,6 km/h (4 Bft) W 259 0 min 0,000 mm 70 W/m 1,7 C -3,9 C 25,7 km/h (4 Bft) 100,00 %
09.01.2012 09:36 4,9 C 81 % 1022,5 hPa 0,0 l/m 12,3 km/h (3 Bft) W-SW 249 0 min 0,000 mm 76 W/m 1,9 C 0,5 C 20,9 km/h (4 Bft) 100,00 %
09.01.2012 09:37 4,9 C 81 % 1022,5 hPa 0,0 l/m 16,4 km/h (3 Bft) W 264 0 min 0,000 mm 79 W/m 1,9 C -1,7 C 24,1 km/h (4 Bft) 100,00 %
09.01.2012 09:38 4,9 C 81 % 1022,6 hPa 0,0 l/m 14,3 km/h (3 Bft) W-NW 296 0 min 0,000 mm 81 W/m 1,9 C -0,7 C 22,5 km/h (4 Bft) 100,00 %
09.01.2012 09:39 4,9 C 81 % 1022,6 hPa 0,0 l/m 9,7 km/h (2 Bft) W 265 0 min 0,000 mm 95 W/m 1,9 C 2,2 C 14,5 km/h (3 Bft) 100,00 %
09.01.2012 09:40 4,9 C 81 % 1022,6 hPa 0,0 l/m 11,5 km/h (2 Bft) W 268 0 min 0,000 mm 102 W/m 1,9 C 1,0 C 20,9 km/h (4 Bft) 100,00 %
09.01.2012 09:41 4,9 C 81 % 1022,5 hPa 0,0 l/m 18,2 km/h (3 Bft) W 265 0 min 0,000 mm 107 W/m 1,9 C -2,6 C 27,4 km/h (4 Bft) 100,00 %
09.01.2012 09:42 4,8 C 81 % 1022,6 hPa 0,0 l/m 16,4 km/h (3 Bft) W 281 0 min 0,000 mm 111 W/m 1,8 C -1,9 C 24,1 km/h (4 Bft) 100,00 %
09.01.2012 09:43 4,8 C 81 % 1022,6 hPa 0,0 l/m 12,7 km/h (3 Bft) W 272 0 min 0,000 mm 114 W/m 1,8 C 0,1 C 20,9 km/h (4 Bft) 100,00 %
09.01.2012 09:44 4,8 C 81 % 1022,6 hPa 0,0 l/m 12,2 km/h (2 Bft) W-NW 288 0 min 0,000 mm 125 W/m 1,8 C 0,4 C 20,9 km/h (4 Bft) 100,00 %
09.01.2012 09:45 4,8 C 81 % 1022,6 hPa 0,0 l/m 24,1 km/h (4 Bft) W 280 1 min 0,000 mm 204 W/m 1,8 C -4,9 C 33,8 km/h (5 Bft) 100,00 %
09.01.2012 09:46 4,8 C 81 % 1022,6 hPa 0,0 l/m 25,0 km/h (4 Bft) W 259 1 min 0,000 mm 160 W/m 1,8 C -5,2 C 32,2 km/h (5 Bft) 100,00 %
09.01.2012 09:47 4,9 C 81 % 1022,6 hPa 0,0 l/m 19,1 km/h (3 Bft) W-NW 286 0 min 0,000 mm 148 W/m 1,9 C -2,9 C 25,7 km/h (4 Bft) 100,00 %
09.01.2012 09:48 4,9 C 81 % 1022,6 hPa 0,0 l/m 14,3 km/h (3 Bft) W 271 0 min 0,000 mm 132 W/m 1,9 C -0,7 C 20,9 km/h (4 Bft) 100,00 %
09.01.2012 09:49 4,9 C 81 % 1022,6 hPa 0,0 l/m 15,5 km/h (3 Bft) W 271 0 min 0,000 mm 128 W/m 1,9 C -1,3 C 22,5 km/h (4 Bft) 100,00 %
09.01.2012 09:50 4,9 C 81 % 1022,6 hPa 0,0 l/m 17,6 km/h (3 Bft) W 277 1 min 0,000 mm 169 W/m 1,9 C -2,3 C 25,7 km/h (4 Bft) 100,00 %
09.01.2012 09:51 4,9 C 81 % 1022,6 hPa 0,0 l/m 14,5 km/h (3 Bft) W 277 1 min 0,000 mm 258 W/m 1,9 C -0,8 C 27,4 km/h (4 Bft) 100,00 %
09.01.2012 09:52 4,9 C 81 % 1022,7 hPa 0,0 l/m 18,2 km/h (3 Bft) W 264 1 min 0,000 mm 174 W/m 1,9 C -2,6 C 24,1 km/h (4 Bft) 100,00 %
09.01.2012 09:53 5,0 C 81 % 1022,8 hPa 0,0 l/m 13,9 km/h (3 Bft) W-NW 287 0 min 0,000 mm 137 W/m 2,0 C -0,3 C 22,5 km/h (4 Bft) 100,00 %
09.01.2012 09:54 5,1 C 81 % 1022,6 hPa 0,0 l/m 11,7 km/h (2 Bft) W 267 1 min 0,000 mm 232 W/m 2,1 C 1,1 C 19,3 km/h (3 Bft) 100,00 %
09.01.2012 09:55 5,1 C 81 % 1022,6 hPa 0,0 l/m 16,8 km/h (3 Bft) NW 313 1 min 0,000 mm 190 W/m 2,1 C -1,7 C 29,0 km/h (5 Bft) 100,00 %
09.01.2012 09:56 5,1 C 81 % 1022,7 hPa 0,0 l/m 16,0 km/h (3 Bft) W-NW 299 1 min 0,000 mm 174 W/m 2,1 C -1,3 C 25,7 km/h (4 Bft) 100,00 %
09.01.2012 09:57 5,1 C 81 % 1022,7 hPa 0,0 l/m 17,1 km/h (3 Bft) W 279 1 min 0,000 mm 156 W/m 2,1 C -1,8 C 27,4 km/h (4 Bft) 100,00 %
09.01.2012 09:58 5,1 C 81 % 1022,7 hPa 0,0 l/m 20,1 km/h (4 Bft) W 276 1 min 0,000 mm 156 W/m 2,1 C -3,1 C 29,0 km/h (5 Bft) 100,00 %
09.01.2012 09:59 5,2 C 81 % 1022,8 hPa 0,0 l/m 17,5 km/h (3 Bft) W 259 1 min 0,000 mm 206 W/m 2,2 C -1,9 C 32,2 km/h (5 Bft) 100,00 %
09.01.2012 10:00 5,2 C 81 % 1022,7 hPa 0,0 l/m 18,4 km/h (3 Bft) W 273 1 min 0,000 mm 290 W/m 2,2 C -2,3 C 27,4 km/h (4 Bft) 100,00 %
09.01.2012 10:01 5,2 C 81 % 1022,7 hPa 0,0 l/m 18,8 km/h (3 Bft) W 265 1 min 0,076 mm 281 W/m 2,2 C -2,4 C 27,4 km/h (4 Bft) 100,00 %
09.01.2012 10:02 5,3 C 81 % 1022,8 hPa 0,0 l/m 21,5 km/h (4 Bft) W 268 1 min 0,000 mm 271 W/m 2,3 C -3,4 C 27,4 km/h (4 Bft) 100,00 %
09.01.2012 10:03 5,3 C 81 % 1022,7 hPa 0,0 l/m 20,6 km/h (4 Bft) W-SW 247 1 min 0,000 mm 269 W/m 2,3 C -3,0 C 27,4 km/h (4 Bft) 100,00 %
09.01.2012 10:04 5,3 C 81 % 1022,8 hPa 0,0 l/m 24,6 km/h (4 Bft) W-NW 302 1 min 0,000 mm 269 W/m 2,3 C -4,4 C 32,2 km/h (5 Bft) 100,00 %
09.01.2012 10:05 5,3 C 80 % 1022,8 hPa 0,0 l/m 15,1 km/h (3 Bft) W 273 1 min 0,000 mm 163 W/m 2,1 C -0,6 C 24,1 km/h (4 Bft) 100,00 %
09.01.2012 10:06 5,4 C 80 % 1022,9 hPa 0,0 l/m 15,7 km/h (3 Bft) W-SW 253 0 min 0,000 mm 116 W/m 2,2 C -0,8 C 25,7 km/h (4 Bft) 100,00 %
09.01.2012 10:07 5,3 C 80 % 1022,9 hPa 0,0 l/m 24,3 km/h (4 Bft) W 269 0 min 0,000 mm 123 W/m 2,1 C -4,3 C 35,4 km/h (5 Bft) 100,00 %
09.01.2012 10:08 5,3 C 80 % 1022,9 hPa 0,0 l/m 17,0 km/h (3 Bft) W 263 0 min 0,000 mm 125 W/m 2,1 C -1,5 C 29,0 km/h (5 Bft) 100,00 %
09.01.2012 10:09 5,3 C 80 % 1022,9 hPa 0,0 l/m 20,4 km/h (4 Bft) W 265 0 min 0,000 mm 125 W/m 2,1 C -2,9 C 27,4 km/h (4 Bft) 100,00 %
09.01.2012 10:10 5,3 C 80 % 1023,0 hPa 0,0 l/m 22,6 km/h (4 Bft) W 268 0 min 0,000 mm 114 W/m 2,1 C -3,7 C 32,2 km/h (5 Bft) 100,00 %
09.01.2012 10:11 5,2 C 80 % 1022,9 hPa 0,0 l/m 18,9 km/h (3 Bft) W 263 1 min 0,000 mm 167 W/m 2,0 C -2,5 C 25,7 km/h (4 Bft) 100,00 %
09.01.2012 10:12 5,2 C 80 % 1022,9 hPa 0,0 l/m 14,0 km/h (3 Bft) W-NW 300 1 min 0,000 mm 265 W/m 2,0 C -0,2 C 20,9 km/h (4 Bft) 100,00 %
09.01.2012 10:13 5,2 C 80 % 1023,0 hPa 0,0 l/m 15,8 km/h (3 Bft) W 264 1 min 0,000 mm 301 W/m 2,0 C -1,1 C 29,0 km/h (5 Bft) 100,00 %
09.01.2012 10:14 5,2 C 80 % 1023,0 hPa 0,0 l/m 17,3 km/h (3 Bft) W 273 1 min 0,000 mm 315 W/m 2,0 C -1,8 C 27,4 km/h (4 Bft) 100,00 %
09.01.2012 10:15 5,2 C 80 % 1023,0 hPa 0,0 l/m 17,4 km/h (3 Bft) W 276 1 min 0,000 mm 313 W/m 2,0 C -1,8 C 27,4 km/h (4 Bft) 100,00 %
09.01.2012 10:16 5,3 C 80 % 1022,9 hPa 0,0 l/m 14,3 km/h (3 Bft) W-NW 290 1 min 0,000 mm 311 W/m 2,1 C -0,2 C 27,4 km/h (4 Bft) 100,00 %
09.01.2012 10:17 5,3 C 80 % 1022,9 hPa 0,0 l/m 18,1 km/h (3 Bft) W-SW 252 1 min 0,000 mm 318 W/m 2,1 C -2,0 C 27,4 km/h (4 Bft) 100,00 %
09.01.2012 10:18 5,3 C 80 % 1023,0 hPa 0,0 l/m 16,9 km/h (3 Bft) W 279 1 min 0,000 mm 323 W/m 2,1 C -1,5 C 25,7 km/h (4 Bft) 95,65 %
09.01.2012 10:19 5,4 C 80 % 1023,0 hPa 0,0 l/m 14,3 km/h (3 Bft) W 275 1 min 0,000 mm 322 W/m 2,2 C -0,1 C 19,3 km/h (3 Bft) 100,00 %
09.01.2012 10:20 5,4 C 80 % 1023,0 hPa 0,0 l/m 18,5 km/h (3 Bft) W 268 1 min 0,000 mm 325 W/m 2,2 C -2,0 C 25,7 km/h (4 Bft) 100,00 %
09.01.2012 10:21 5,4 C 79 % 1023,1 hPa 0,0 l/m 17,9 km/h (3 Bft) W-NW 285 1 min 0,000 mm 318 W/m 2,1 C -1,8 C 27,4 km/h (4 Bft) 100,00 %
09.01.2012 10:22 5,5 C 79 % 1023,1 hPa 0,0 l/m 21,6 km/h (4 Bft) W 267 1 min 0,000 mm 318 W/m 2,2 C -3,1 C 27,4 km/h (4 Bft) 100,00 %
09.01.2012 10:23 5,5 C 79 % 1023,0 hPa 0,0 l/m 12,5 km/h (3 Bft) W 265 1 min 0,000 mm 325 W/m 2,2 C 1,0 C 22,5 km/h (4 Bft) 100,00 %
09.01.2012 10:24 5,6 C 79 % 1023,1 hPa 0,0 l/m 15,1 km/h (3 Bft) W 260 1 min 0,000 mm 323 W/m 2,3 C -0,2 C 24,1 km/h (4 Bft) 100,00 %
09.01.2012 10:25 5,6 C 79 % 1023,1 hPa 0,0 l/m 9,6 km/h (2 Bft) W 281 1 min 0,000 mm 329 W/m 2,3 C 3,0 C 14,5 km/h (3 Bft) 100,00 %
09.01.2012 10:26 5,6 C 80 % 1023,0 hPa 0,0 l/m 16,1 km/h (3 Bft) W 275 1 min 0,000 mm 248 W/m 2,4 C -0,7 C 25,7 km/h (4 Bft) 100,00 %
09.01.2012 10:27 5,7 C 80 % 1023,1 hPa 0,0 l/m 11,1 km/h (2 Bft) W 275 1 min 0,000 mm 264 W/m 2,5 C 2,1 C 27,4 km/h (4 Bft) 100,00 %
09.01.2012 10:28 5,7 C 79 % 1023,1 hPa 0,0 l/m 18,1 km/h (3 Bft) W 260 1 min 0,000 mm 178 W/m 2,3 C -1,5 C 27,4 km/h (4 Bft) 100,00 %
09.01.2012 10:29 5,7 C 79 % 1023,2 hPa 0,0 l/m 19,4 km/h (3 Bft) W 264 0 min 0,000 mm 144 W/m 2,3 C -2,0 C 29,0 km/h (5 Bft) 100,00 %
09.01.2012 10:30 5,7 C 78 % 1023,2 hPa 0,0 l/m 21,5 km/h (4 Bft) W 272 1 min 0,000 mm 171 W/m 2,2 C -2,8 C 32,2 km/h (5 Bft) 100,00 %
09.01.2012 10:31 5,7 C 78 % 1023,2 hPa 0,0 l/m 18,2 km/h (3 Bft) W 277 0 min 0,000 mm 123 W/m 2,2 C -1,5 C 25,7 km/h (4 Bft) 100,00 %
09.01.2012 10:32 5,7 C 78 % 1023,2 hPa 0,0 l/m 15,7 km/h (3 Bft) W-NW 298 0 min 0,000 mm 120 W/m 2,2 C -0,4 C 24,1 km/h (4 Bft) 100,00 %
09.01.2012 10:33 5,8 C 78 % 1023,2 hPa 0,0 l/m 13,6 km/h (3 Bft) W-NW 286 0 min 0,000 mm 116 W/m 2,3 C 0,8 C 27,4 km/h (4 Bft) 100,00 %
09.01.2012 10:34 5,8 C 78 % 1023,2 hPa 0,0 l/m 17,9 km/h (3 Bft) W 272 0 min 0,000 mm 120 W/m 2,3 C -1,3 C 27,4 km/h (4 Bft) 100,00 %
09.01.2012 10:35 5,8 C 78 % 1023,2 hPa 0,0 l/m 18,3 km/h (3 Bft) W 264 0 min 0,000 mm 120 W/m 2,3 C -1,5 C 27,4 km/h (4 Bft) 100,00 %
09.01.2012 10:36 5,8 C 77 % 1023,1 hPa 0,0 l/m 17,8 km/h (3 Bft) W 280 0 min 0,000 mm 120 W/m 2,1 C -1,2 C 32,2 km/h (5 Bft) 100,00 %
09.01.2012 10:37 5,8 C 77 % 1023,1 hPa 0,0 l/m 21,9 km/h (4 Bft) W-SW 249 0 min 0,000 mm 120 W/m 2,1 C -2,8 C 30,6 km/h (5 Bft) 100,00 %
09.01.2012 10:38 5,9 C 77 % 1023,2 hPa 0,0 l/m 22,7 km/h (4 Bft) W 271 0 min 0,000 mm 142 W/m 2,2 C -3,0 C 27,4 km/h (4 Bft) 100,00 %
09.01.2012 10:39 5,9 C 77 % 1023,2 hPa 0,0 l/m 21,7 km/h (4 Bft) W 261 1 min 0,000 mm 287 W/m 2,2 C -2,6 C 30,6 km/h (5 Bft) 95,83 %
09.01.2012 10:40 5,9 C 77 % 1023,1 hPa 0,0 l/m 19,9 km/h (4 Bft) W 271 1 min 0,000 mm 322 W/m 2,2 C -2,0 C 25,7 km/h (4 Bft) 100,00 %
09.01.2012 10:41 5,9 C 77 % 1023,2 hPa 0,0 l/m 15,8 km/h (3 Bft) W-NW 291 1 min 0,000 mm 320 W/m 2,2 C -0,2 C 22,5 km/h (4 Bft) 100,00 %
09.01.2012 10:42 5,9 C 77 % 1023,2 hPa 0,0 l/m 20,9 km/h (4 Bft) W 264 1 min 0,000 mm 322 W/m 2,2 C -2,3 C 30,6 km/h (5 Bft) 100,00 %
09.01.2012 10:43 5,9 C 76 % 1023,2 hPa 0,0 l/m 19,6 km/h (3 Bft) W 266 1 min 0,000 mm 176 W/m 2,0 C -1,9 C 25,7 km/h (4 Bft) 100,00 %
09.01.2012 10:44 5,9 C 76 % 1023,1 hPa 0,0 l/m 15,0 km/h (3 Bft) W-SW 247 1 min 0,000 mm 211 W/m 2,0 C 0,2 C 22,5 km/h (4 Bft) 100,00 %
09.01.2012 10:45 5,9 C 77 % 1023,2 hPa 0,0 l/m 17,1 km/h (3 Bft) W 276 1 min 0,000 mm 211 W/m 2,2 C -0,8 C 22,5 km/h (4 Bft) 100,00 %
09.01.2012 10:46 5,9 C 77 % 1023,3 hPa 0,0 l/m 16,9 km/h (3 Bft) W 261 0 min 0,000 mm 125 W/m 2,2 C -0,7 C 29,0 km/h (5 Bft) 100,00 %
09.01.2012 10:47 5,9 C 76 % 1023,3 hPa 0,0 l/m 21,1 km/h (4 Bft) W 271 0 min 0,000 mm 134 W/m 2,0 C -2,4 C 29,0 km/h (5 Bft) 100,00 %
09.01.2012 10:48 5,8 C 77 % 1023,3 hPa 0,0 l/m 16,4 km/h (3 Bft) W-NW 286 0 min 0,000 mm 130 W/m 2,1 C -0,6 C 22,5 km/h (4 Bft) 100,00 %
09.01.2012 10:49 5,8 C 77 % 1023,3 hPa 0,0 l/m 19,6 km/h (3 Bft) NW 311 0 min 0,000 mm 130 W/m 2,1 C -2,0 C 30,6 km/h (5 Bft) 100,00 %
09.01.2012 10:50 5,8 C 76 % 1023,4 hPa 0,0 l/m 17,2 km/h (3 Bft) W-NW 290 0 min 0,000 mm 141 W/m 1,9 C -1,0 C 25,7 km/h (4 Bft) 100,00 %
09.01.2012 10:51 5,8 C 77 % 1023,3 hPa 0,0 l/m 17,0 km/h (3 Bft) W 269 1 min 0,000 mm 156 W/m 2,1 C -0,9 C 22,5 km/h (4 Bft) 100,00 %
09.01.2012 10:52 5,7 C 77 % 1023,3 hPa 0,0 l/m 13,1 km/h (3 Bft) W 281 0 min 0,000 mm 134 W/m 2,0 C 0,9 C 20,9 km/h (4 Bft) 100,00 %
09.01.2012 10:53 5,7 C 77 % 1023,3 hPa 0,0 l/m 11,0 km/h (2 Bft) W 275 0 min 0,000 mm 134 W/m 2,0 C 2,2 C 17,7 km/h (3 Bft) 100,00 %
09.01.2012 10:54 5,7 C 77 % 1023,4 hPa 0,0 l/m 11,1 km/h (2 Bft) W-NW 291 0 min 0,000 mm 134 W/m 2,0 C 2,1 C 20,9 km/h (4 Bft) 100,00 %
09.01.2012 10:55 5,7 C 77 % 1023,3 hPa 0,0 l/m 16,0 km/h (3 Bft) W-NW 287 0 min 0,000 mm 104 W/m 2,0 C -0,6 C 22,5 km/h (4 Bft) 100,00 %
09.01.2012 10:56 5,8 C 77 % 1023,3 hPa 0,0 l/m 15,0 km/h (3 Bft) W-NW 294 0 min 0,000 mm 109 W/m 2,1 C 0,0 C 24,1 km/h (4 Bft) 95,83 %
09.01.2012 10:57 5,7 C 77 % 1023,2 hPa 0,0 l/m 15,3 km/h (3 Bft) W-NW 290 0 min 0,000 mm 105 W/m 2,0 C -0,2 C 24,1 km/h (4 Bft) 100,00 %
09.01.2012 10:58 5,7 C 77 % 1023,3 hPa 0,0 l/m 14,1 km/h (3 Bft) W-NW 282 0 min 0,000 mm 98 W/m 2,0 C 0,4 C 20,9 km/h (4 Bft) 100,00 %
09.01.2012 10:59 5,7 C 77 % 1023,2 hPa 0,0 l/m 15,2 km/h (3 Bft) W 265 0 min 0,000 mm 93 W/m 2,0 C -0,2 C 22,5 km/h (4 Bft) 100,00 %
09.01.2012 11:00 5,7 C 77 % 1023,2 hPa 0,0 l/m 19,5 km/h (3 Bft) W 280 0 min 0,000 mm 91 W/m 2,0 C -2,1 C 25,7 km/h (4 Bft) 100,00 %
09.01.2012 11:01 5,7 C 77 % 1023,2 hPa 0,0 l/m 15,8 km/h (3 Bft) W 277 0 min 0,127 mm 84 W/m 2,0 C -0,5 C 24,1 km/h (4 Bft) 100,00 %
09.01.2012 11:02 5,7 C 77 % 1023,2 hPa 0,0 l/m 12,0 km/h (2 Bft) W 265 0 min 0,000 mm 86 W/m 2,0 C 1,6 C 19,3 km/h (3 Bft) 100,00 %
09.01.2012 11:03 5,7 C 77 % 1023,2 hPa 0,0 l/m 13,4 km/h (3 Bft) W 274 0 min 0,000 mm 83 W/m 2,0 C 0,8 C 19,3 km/h (3 Bft) 100,00 %
09.01.2012 11:04 5,7 C 77 % 1023,2 hPa 0,0 l/m 12,3 km/h (3 Bft) W-SW 246 0 min 0,000 mm 86 W/m 2,0 C 1,4 C 22,5 km/h (4 Bft) 100,00 %
09.01.2012 11:05 5,7 C 77 % 1023,1 hPa 0,0 l/m 16,7 km/h (3 Bft) W 279 0 min 0,000 mm 91 W/m 2,0 C -0,9 C 29,0 km/h (5 Bft) 100,00 %
09.01.2012 11:06 5,7 C 77 % 1023,2 hPa 0,0 l/m 16,1 km/h (3 Bft) W-SW 258 0 min 0,000 mm 93 W/m 2,0 C -0,6 C 29,0 km/h (5 Bft) 100,00 %
09.01.2012 11:07 5,7 C 77 % 1023,2 hPa 0,0 l/m 18,5 km/h (3 Bft) W-NW 284 0 min 0,000 mm 90 W/m 2,0 C -1,7 C 24,1 km/h (4 Bft) 100,00 %
09.01.2012 11:08 5,7 C 77 % 1023,2 hPa 0,0 l/m 11,7 km/h (2 Bft) W-NW 291 0 min 0,000 mm 93 W/m 2,0 C 1,7 C 20,9 km/h (4 Bft) 95,83 %
09.01.2012 11:09 5,7 C 77 % 1023,1 hPa 0,0 l/m 10,7 km/h (2 Bft) W 269 0 min 0,000 mm 86 W/m 2,0 C 2,4 C 19,3 km/h (3 Bft) 100,00 %
09.01.2012 11:10 5,7 C 77 % 1023,2 hPa 0,0 l/m 14,1 km/h (3 Bft) NW 309 0 min 0,000 mm 84 W/m 2,0 C 0,4 C 20,9 km/h (4 Bft) 100,00 %
09.01.2012 11:11 5,7 C 77 % 1023,2 hPa 0,0 l/m 23,7 km/h (4 Bft) NW 304 0 min 0,000 mm 83 W/m 2,0 C -3,6 C 30,6 km/h (5 Bft) 100,00 %
09.01.2012 11:12 5,7 C 77 % 1023,3 hPa 0,0 l/m 20,5 km/h (4 Bft) W 281 0 min 0,000 mm 83 W/m 2,0 C -2,5 C 27,4 km/h (4 Bft) 100,00 %
09.01.2012 11:13 5,7 C 77 % 1023,3 hPa 0,0 l/m 11,9 km/h (2 Bft) W 269 0 min 0,000 mm 79 W/m 2,0 C 1,6 C 17,7 km/h (3 Bft) 100,00 %
09.01.2012 11:14 5,7 C 77 % 1023,3 hPa 0,0 l/m 13,1 km/h (3 Bft) W 280 0 min 0,000 mm 77 W/m 2,0 C 0,9 C 20,9 km/h (4 Bft) 100,00 %
09.01.2012 11:15 5,7 C 77 % 1023,2 hPa 0,0 l/m 7,1 km/h (2 Bft) W 275 0 min 0,000 mm 77 W/m 2,0 C 5,1 C 14,5 km/h (3 Bft) 100,00 %
09.01.2012 11:16 5,7 C 77 % 1023,2 hPa 0,0 l/m 14,2 km/h (3 Bft) W 267 0 min 0,000 mm 77 W/m 2,0 C 0,3 C 25,7 km/h (4 Bft) 100,00 %
09.01.2012 11:17 5,7 C 77 % 1023,2 hPa 0,0 l/m 21,7 km/h (4 Bft) NW 304 0 min 0,000 mm 76 W/m 2,0 C -2,9 C 29,0 km/h (5 Bft) 100,00 %
09.01.2012 11:18 5,7 C 77 % 1023,3 hPa 0,0 l/m 16,8 km/h (3 Bft) W 277 0 min 0,000 mm 76 W/m 2,0 C -0,9 C 24,1 km/h (4 Bft) 100,00 %
09.01.2012 11:19 5,7 C 77 % 1023,3 hPa 0,0 l/m 15,5 km/h (3 Bft) W-NW 298 0 min 0,000 mm 70 W/m 2,0 C -0,3 C 27,4 km/h (4 Bft) 100,00 %
09.01.2012 11:20 5,7 C 76 % 1023,3 hPa 0,0 l/m 15,5 km/h (3 Bft) W-NW 296 0 min 0,000 mm 70 W/m 1,8 C -0,3 C 20,9 km/h (4 Bft) 100,00 %
09.01.2012 11:21 5,7 C 76 % 1023,2 hPa 0,0 l/m 10,2 km/h (2 Bft) W 264 0 min 0,000 mm 70 W/m 1,8 C 2,7 C 17,7 km/h (3 Bft) 100,00 %
09.01.2012 11:22 5,7 C 77 % 1023,2 hPa 0,0 l/m 9,2 km/h (2 Bft) W-NW 288 0 min 0,000 mm 70 W/m 2,0 C 3,4 C 16,1 km/h (3 Bft) 100,00 %
09.01.2012 11:23 5,6 C 77 % 1023,3 hPa 0,0 l/m 14,7 km/h (3 Bft) W-NW 292 0 min 0,000 mm 70 W/m 1,9 C -0,0 C 22,5 km/h (4 Bft) 100,00 %
09.01.2012 11:24 5,6 C 77 % 1023,3 hPa 0,0 l/m 11,8 km/h (2 Bft) W 281 0 min 0,000 mm 72 W/m 1,9 C 1,6 C 19,3 km/h (3 Bft) 100,00 %
09.01.2012 11:25 5,6 C 77 % 1023,4 hPa 0,0 l/m 12,4 km/h (3 Bft) W 277 0 min 0,000 mm 74 W/m 1,9 C 1,2 C 20,9 km/h (4 Bft) 100,00 %
09.01.2012 11:26 5,6 C 77 % 1023,4 hPa 0,0 l/m 16,4 km/h (3 Bft) NW 311 0 min 0,000 mm 77 W/m 1,9 C -0,9 C 29,0 km/h (5 Bft) 100,00 %
09.01.2012 11:27 5,6 C 77 % 1023,3 hPa 0,0 l/m 11,5 km/h (2 Bft) W-NW 289 0 min 0,000 mm 79 W/m 1,9 C 1,8 C 25,7 km/h (4 Bft) 100,00 %
09.01.2012 11:28 5,6 C 77 % 1023,4 hPa 0,0 l/m 14,2 km/h (3 Bft) W-NW 288 0 min 0,000 mm 83 W/m 1,9 C 0,2 C 24,1 km/h (4 Bft) 100,00 %
09.01.2012 11:29 5,6 C 77 % 1023,3 hPa 0,0 l/m 12,5 km/h (3 Bft) W 271 0 min 0,000 mm 84 W/m 1,9 C 1,2 C 24,1 km/h (4 Bft) 100,00 %
09.01.2012 11:30 5,6 C 77 % 1023,3 hPa 0,0 l/m 8,6 km/h (2 Bft) W 274 0 min 0,000 mm 91 W/m 1,9 C 3,8 C 17,7 km/h (3 Bft) 100,00 %
09.01.2012 11:31 5,6 C 77 % 1023,3 hPa 0,0 l/m 19,7 km/h (3 Bft) W-SW 257 0 min 0,000 mm 95 W/m 1,9 C -2,3 C 38,6 km/h (5 Bft) 100,00 %
09.01.2012 11:32 5,6 C 77 % 1023,2 hPa 0,0 l/m 24,9 km/h (4 Bft) W 274 0 min 0,000 mm 98 W/m 1,9 C -4,1 C 32,2 km/h (5 Bft) 100,00 %
09.01.2012 11:33 5,6 C 77 % 1023,2 hPa 0,0 l/m 15,0 km/h (3 Bft) W-NW 293 0 min 0,000 mm 102 W/m 1,9 C -0,2 C 27,4 km/h (4 Bft) 100,00 %
09.01.2012 11:34 5,6 C 77 % 1023,2 hPa 0,0 l/m 24,7 km/h (4 Bft) W 263 0 min 0,000 mm 105 W/m 1,9 C -4,0 C 33,8 km/h (5 Bft) 100,00 %
09.01.2012 11:35 5,6 C 77 % 1023,2 hPa 0,0 l/m 18,3 km/h (3 Bft) W 267 0 min 0,000 mm 111 W/m 1,9 C -1,7 C 24,1 km/h (4 Bft) 100,00 %
09.01.2012 11:36 5,6 C 77 % 1023,2 hPa 0,0 l/m 19,1 km/h (3 Bft) W 272 0 min 0,000 mm 120 W/m 1,9 C -2,0 C 29,0 km/h (5 Bft) 100,00 %
09.01.2012 11:37 5,7 C 77 % 1023,2 hPa 0,0 l/m 23,4 km/h (4 Bft) W 265 0 min 0,000 mm 121 W/m 2,0 C -3,5 C 33,8 km/h (5 Bft) 100,00 %
09.01.2012 11:38 5,7 C 77 % 1023,2 hPa 0,0 l/m 26,3 km/h (4 Bft) W 273 0 min 0,000 mm 121 W/m 2,0 C -4,4 C 38,6 km/h (5 Bft) 100,00 %
09.01.2012 11:39 5,7 C 77 % 1023,2 hPa 0,0 l/m 16,3 km/h (3 Bft) W-SW 256 0 min 0,000 mm 121 W/m 2,0 C -0,7 C 25,7 km/h (4 Bft) 100,00 %
09.01.2012 11:40 5,7 C 77 % 1023,2 hPa 0,0 l/m 21,0 km/h (4 Bft) W 272 0 min 0,000 mm 120 W/m 2,0 C -2,6 C 30,6 km/h (5 Bft) 100,00 %
09.01.2012 11:41 5,7 C 77 % 1023,2 hPa 0,0 l/m 21,9 km/h (4 Bft) W 272 0 min 0,000 mm 120 W/m 2,0 C -3,0 C 35,4 km/h (5 Bft) 100,00 %
09.01.2012 11:42 5,7 C 77 % 1023,2 hPa 0,0 l/m 19,2 km/h (3 Bft) W 279 0 min 0,000 mm 113 W/m 2,0 C -2,0 C 29,0 km/h (5 Bft) 100,00 %
09.01.2012 11:43 5,7 C 77 % 1023,2 hPa 0,0 l/m 28,0 km/h (4 Bft) W 268 0 min 0,000 mm 109 W/m 2,0 C -4,9 C 45,1 km/h (6 Bft) 100,00 %
09.01.2012 11:44 5,7 C 76 % 1023,2 hPa 0,0 l/m 20,8 km/h (4 Bft) W-NW 286 0 min 0,000 mm 107 W/m 1,8 C -2,6 C 33,8 km/h (5 Bft) 100,00 %
09.01.2012 11:45 5,7 C 76 % 1023,2 hPa 0,0 l/m 18,1 km/h (3 Bft) W-NW 286 0 min 0,000 mm 104 W/m 1,8 C -1,5 C 32,2 km/h (5 Bft) 100,00 %
09.01.2012 11:46 5,7 C 76 % 1023,2 hPa 0,0 l/m 22,5 km/h (4 Bft) W-NW 296 0 min 0,000 mm 102 W/m 1,8 C -3,2 C 33,8 km/h (5 Bft) 95,83 %
09.01.2012 11:47 5,7 C 76 % 1023,2 hPa 0,0 l/m 15,4 km/h (3 Bft) W-NW 296 0 min 0,000 mm 100 W/m 1,8 C -0,3 C 24,1 km/h (4 Bft) 100,00 %
09.01.2012 11:48 5,7 C 76 % 1023,2 hPa 0,0 l/m 13,7 km/h (3 Bft) W 267 0 min 0,000 mm 95 W/m 1,8 C 0,6 C 22,5 km/h (4 Bft) 96,00 %
09.01.2012 11:49 5,7 C 76 % 1023,3 hPa 0,0 l/m 22,5 km/h (4 Bft) W 267 0 min 0,000 mm 93 W/m 1,8 C -3,2 C 37,0 km/h (5 Bft) 100,00 %
09.01.2012 11:50 5,7 C 76 % 1023,2 hPa 0,0 l/m 22,0 km/h (4 Bft) W-NW 284 0 min 0,000 mm 93 W/m 1,8 C -3,0 C 33,8 km/h (5 Bft) 100,00 %
09.01.2012 11:51 5,7 C 76 % 1023,3 hPa 0,0 l/m 18,0 km/h (3 Bft) W-NW 288 0 min 0,000 mm 91 W/m 1,8 C -1,5 C 27,4 km/h (4 Bft) 100,00 %
09.01.2012 11:52 5,7 C 76 % 1023,3 hPa 0,0 l/m 11,7 km/h (2 Bft) W-NW 287 0 min 0,000 mm 91 W/m 1,8 C 1,7 C 22,5 km/h (4 Bft) 100,00 %
09.01.2012 11:53 5,7 C 76 % 1023,3 hPa 0,0 l/m 12,9 km/h (3 Bft) W 271 0 min 0,000 mm 88 W/m 1,8 C 1,0 C 25,7 km/h (4 Bft) 100,00 %
09.01.2012 11:54 5,7 C 76 % 1023,3 hPa 0,0 l/m 19,1 km/h (3 Bft) W 273 0 min 0,000 mm 86 W/m 1,8 C -1,9 C 32,2 km/h (5 Bft) 100,00 %
09.01.2012 11:55 5,7 C 76 % 1023,3 hPa 0,0 l/m 15,7 km/h (3 Bft) NW 307 0 min 0,000 mm 84 W/m 1,8 C -0,4 C 24,1 km/h (4 Bft) 100,00 %
09.01.2012 11:56 5,7 C 76 % 1023,3 hPa 0,0 l/m 18,2 km/h (3 Bft) NW 324 0 min 0,000 mm 83 W/m 1,8 C -1,5 C 29,0 km/h (5 Bft) 100,00 %
09.01.2012 11:57 5,7 C 76 % 1023,3 hPa 0,0 l/m 19,9 km/h (4 Bft) W-NW 298 0 min 0,000 mm 83 W/m 1,8 C -2,2 C 25,7 km/h (4 Bft) 100,00 %
09.01.2012 11:58 5,7 C 76 % 1023,3 hPa 0,0 l/m 14,6 km/h (3 Bft) W-NW 284 0 min 0,000 mm 81 W/m 1,8 C 0,1 C 27,4 km/h (4 Bft) 100,00 %
09.01.2012 11:59 5,7 C 76 % 1023,3 hPa 0,0 l/m 14,0 km/h (3 Bft) W 260 0 min 0,000 mm 77 W/m 1,8 C 0,4 C 20,9 km/h (4 Bft) 100,00 %
09.01.2012 12:00 5,7 C 76 % 1023,3 hPa 0,0 l/m 10,3 km/h (2 Bft) W 267 0 min 0,000 mm 79 W/m 1,8 C 2,6 C 20,9 km/h (4 Bft) 100,00 %
09.01.2012 12:01 5,7 C 76 % 1023,3 hPa 0,0 l/m 12,5 km/h (3 Bft) W 281 0 min 0,076 mm 79 W/m 1,8 C 1,3 C 19,3 km/h (3 Bft) 100,00 %
09.01.2012 12:02 5,7 C 76 % 1023,3 hPa 0,0 l/m 8,6 km/h (2 Bft) W 271 0 min 0,000 mm 81 W/m 1,8 C 3,9 C 14,5 km/h (3 Bft) 100,00 %
09.01.2012 12:03 5,7 C 76 % 1023,3 hPa 0,0 l/m 20,5 km/h (4 Bft) W 272 0 min 0,000 mm 81 W/m 1,8 C -2,5 C 25,7 km/h (4 Bft) 100,00 %
09.01.2012 12:04 5,7 C 76 % 1023,3 hPa 0,0 l/m 14,5 km/h (3 Bft) W 269 0 min 0,000 mm 81 W/m 1,8 C 0,2 C 20,9 km/h (4 Bft) 100,00 %
09.01.2012 12:05 5,7 C 76 % 1023,4 hPa 0,0 l/m 15,6 km/h (3 Bft) W-NW 294 0 min 0,000 mm 81 W/m 1,8 C -0,4 C 24,1 km/h (4 Bft) 100,00 %
09.01.2012 12:06 5,7 C 76 % 1023,3 hPa 0,0 l/m 21,1 km/h (4 Bft) NW 310 0 min 0,000 mm 84 W/m 1,8 C -2,7 C 32,2 km/h (5 Bft) 100,00 %
09.01.2012 12:07 5,7 C 76 % 1023,3 hPa 0,0 l/m 20,7 km/h (4 Bft) W 269 0 min 0,000 mm 88 W/m 1,8 C -2,5 C 35,4 km/h (5 Bft) 100,00 %
09.01.2012 12:08 5,7 C 76 % 1023,4 hPa 0,0 l/m 14,3 km/h (3 Bft) N-NW 327 0 min 0,000 mm 90 W/m 1,8 C 0,3 C 24,1 km/h (4 Bft) 100,00 %
09.01.2012 12:09 5,7 C 76 % 1023,3 hPa 0,0 l/m 13,9 km/h (3 Bft) W 273 0 min 0,000 mm 90 W/m 1,8 C 0,5 C 22,5 km/h (4 Bft) 100,00 %
09.01.2012 12:10 5,7 C 76 % 1023,3 hPa 0,0 l/m 18,1 km/h (3 Bft) W 261 0 min 0,000 mm 90 W/m 1,8 C -1,5 C 30,6 km/h (5 Bft) 100,00 %
09.01.2012 12:11 5,7 C 76 % 1023,3 hPa 0,0 l/m 21,5 km/h (4 Bft) W-NW 284 0 min 0,000 mm 90 W/m 1,8 C -2,8 C 30,6 km/h (5 Bft) 100,00 %
09.01.2012 12:12 5,7 C 76 % 1023,3 hPa 0,0 l/m 20,8 km/h (4 Bft) NW 319 0 min 0,000 mm 88 W/m 1,8 C -2,6 C 29,0 km/h (5 Bft) 100,00 %
09.01.2012 12:13 5,7 C 76 % 1023,4 hPa 0,0 l/m 18,9 km/h (3 Bft) W 273 0 min 0,000 mm 90 W/m 1,8 C -1,8 C 35,4 km/h (5 Bft) 100,00 %
09.01.2012 12:14 5,7 C 76 % 1023,3 hPa 0,0 l/m 14,0 km/h (3 Bft) W-NW 295 0 min 0,000 mm 90 W/m 1,8 C 0,4 C 25,7 km/h (4 Bft) 100,00 %
09.01.2012 12:15 5,7 C 76 % 1023,3 hPa 0,0 l/m 21,2 km/h (4 Bft) W 281 0 min 0,000 mm 91 W/m 1,8 C -2,7 C 33,8 km/h (5 Bft) 100,00 %
09.01.2012 12:16 5,7 C 76 % 1023,3 hPa 0,0 l/m 18,5 km/h (3 Bft) W-NW 300 0 min 0,000 mm 93 W/m 1,8 C -1,7 C 29,0 km/h (5 Bft) 100,00 %
09.01.2012 12:17 5,7 C 76 % 1023,3 hPa 0,0 l/m 20,2 km/h (4 Bft) W 277 0 min 0,000 mm 93 W/m 1,8 C -2,3 C 32,2 km/h (5 Bft) 100,00 %
09.01.2012 12:18 5,7 C 76 % 1023,3 hPa 0,0 l/m 15,7 km/h (3 Bft) W-NW 290 0 min 0,000 mm 93 W/m 1,8 C -0,4 C 25,7 km/h (4 Bft) 100,00 %
09.01.2012 12:19 5,7 C 76 % 1023,4 hPa 0,0 l/m 17,1 km/h (3 Bft) W-NW 295 0 min 0,000 mm 93 W/m 1,8 C -1,1 C 32,2 km/h (5 Bft) 100,00 %
09.01.2012 12:20 5,7 C 76 % 1023,4 hPa 0,0 l/m 11,8 km/h (2 Bft) W-NW 288 0 min 0,000 mm 91 W/m 1,8 C 1,7 C 20,9 km/h (4 Bft) 100,00 %
09.01.2012 12:21 5,7 C 76 % 1023,4 hPa 0,0 l/m 20,8 km/h (4 Bft) W-NW 288 0 min 0,000 mm 90 W/m 1,8 C -2,6 C 27,4 km/h (4 Bft) 100,00 %
09.01.2012 12:22 5,7 C 76 % 1023,4 hPa 0,0 l/m 12,7 km/h (3 Bft) NW 311 0 min 0,000 mm 88 W/m 1,8 C 1,2 C 25,7 km/h (4 Bft) 100,00 %
09.01.2012 12:23 5,7 C 76 % 1023,3 hPa 0,0 l/m 24,0 km/h (4 Bft) W-NW 289 0 min 0,000 mm 86 W/m 1,8 C -3,7 C 32,2 km/h (5 Bft) 100,00 %
09.01.2012 12:24 5,7 C 76 % 1023,4 hPa 0,0 l/m 12,6 km/h (3 Bft) W-NW 287 0 min 0,000 mm 86 W/m 1,8 C 1,2 C 24,1 km/h (4 Bft) 100,00 %
09.01.2012 12:25 5,7 C 76 % 1023,4 hPa 0,0 l/m 21,7 km/h (4 Bft) W-NW 292 0 min 0,000 mm 86 W/m 1,8 C -2,9 C 33,8 km/h (5 Bft) 100,00 %
09.01.2012 12:26 5,7 C 76 % 1023,4 hPa 0,0 l/m 15,7 km/h (3 Bft) W 263 0 min 0,000 mm 86 W/m 1,8 C -0,4 C 24,1 km/h (4 Bft) 100,00 %
09.01.2012 12:27 5,7 C 76 % 1023,4 hPa 0,0 l/m 20,9 km/h (4 Bft) W 263 0 min 0,000 mm 86 W/m 1,8 C -2,6 C 30,6 km/h (5 Bft) 100,00 %
09.01.2012 12:28 5,7 C 76 % 1023,3 hPa 0,0 l/m 19,3 km/h (3 Bft) W 261 0 min 0,000 mm 86 W/m 1,8 C -2,0 C 30,6 km/h (5 Bft) 100,00 %
09.01.2012 12:29 5,7 C 75 % 1023,4 hPa 0,0 l/m 24,7 km/h (4 Bft) W 281 0 min 0,000 mm 86 W/m 1,6 C -3,9 C 35,4 km/h (5 Bft) 100,00 %
09.01.2012 12:30 5,7 C 75 % 1023,4 hPa 0,0 l/m 19,7 km/h (3 Bft) NW 313 0 min 0,000 mm 86 W/m 1,6 C -2,2 C 27,4 km/h (4 Bft) 100,00 %
09.01.2012 12:31 5,7 C 75 % 1023,4 hPa 0,0 l/m 20,9 km/h (4 Bft) W 267 0 min 0,000 mm 88 W/m 1,6 C -2,6 C 30,6 km/h (5 Bft) 100,00 %
09.01.2012 12:32 5,7 C 75 % 1023,3 hPa 0,0 l/m 22,5 km/h (4 Bft) NW 304 0 min 0,000 mm 90 W/m 1,6 C -3,2 C 32,2 km/h (5 Bft) 100,00 %
09.01.2012 12:33 5,7 C 75 % 1023,3 hPa 0,0 l/m 19,5 km/h (3 Bft) NW 306 0 min 0,000 mm 91 W/m 1,6 C -2,1 C 30,6 km/h (5 Bft) 100,00 %
09.01.2012 12:34 5,7 C 75 % 1023,3 hPa 0,0 l/m 20,3 km/h (4 Bft) NW 306 0 min 0,000 mm 97 W/m 1,6 C -2,4 C 27,4 km/h (4 Bft) 100,00 %
09.01.2012 12:35 5,7 C 75 % 1023,3 hPa 0,0 l/m 26,5 km/h (4 Bft) W-NW 302 0 min 0,000 mm 98 W/m 1,6 C -4,4 C 33,8 km/h (5 Bft) 100,00 %
09.01.2012 12:36 5,7 C 75 % 1023,3 hPa 0,0 l/m 26,3 km/h (4 Bft) W-NW 298 0 min 0,000 mm 100 W/m 1,6 C -4,4 C 30,6 km/h (5 Bft) 100,00 %
09.01.2012 12:37 5,7 C 75 % 1023,3 hPa 0,0 l/m 17,3 km/h (3 Bft) W 280 0 min 0,000 mm 104 W/m 1,6 C -1,2 C 24,1 km/h (4 Bft) 100,00 %
09.01.2012 12:38 5,7 C 75 % 1023,3 hPa 0,0 l/m 15,1 km/h (3 Bft) NW 306 0 min 0,000 mm 107 W/m 1,6 C -0,1 C 24,1 km/h (4 Bft) 100,00 %
09.01.2012 12:39 5,7 C 76 % 1023,3 hPa 0,0 l/m 17,4 km/h (3 Bft) W-NW 290 0 min 0,000 mm 111 W/m 1,8 C -1,2 C 25,7 km/h (4 Bft) 100,00 %
09.01.2012 12:40 5,7 C 75 % 1023,3 hPa 0,0 l/m 17,4 km/h (3 Bft) W-NW 297 0 min 0,000 mm 120 W/m 1,6 C -1,2 C 24,1 km/h (4 Bft) 100,00 %
09.01.2012 12:41 5,7 C 76 % 1023,3 hPa 0,0 l/m 23,9 km/h (4 Bft) NW 325 0 min 0,000 mm 120 W/m 1,8 C -3,6 C 32,2 km/h (5 Bft) 100,00 %
09.01.2012 12:42 5,8 C 75 % 1023,3 hPa 0,0 l/m 23,3 km/h (4 Bft) W-NW 286 0 min 0,000 mm 116 W/m 1,7 C -3,3 C 32,2 km/h (5 Bft) 100,00 %
09.01.2012 12:43 5,8 C 75 % 1023,3 hPa 0,0 l/m 21,6 km/h (4 Bft) W-NW 286 0 min 0,000 mm 116 W/m 1,7 C -2,7 C 27,4 km/h (4 Bft) 100,00 %
09.01.2012 12:44 5,8 C 75 % 1023,3 hPa 0,0 l/m 14,1 km/h (3 Bft) W-NW 297 0 min 0,000 mm 120 W/m 1,7 C 0,5 C 24,1 km/h (4 Bft) 100,00 %
09.01.2012 12:45 5,8 C 75 % 1023,3 hPa 0,0 l/m 11,0 km/h (2 Bft) W-NW 300 0 min 0,000 mm 121 W/m 1,7 C 2,3 C 17,7 km/h (3 Bft) 100,00 %
09.01.2012 12:46 5,8 C 75 % 1023,3 hPa 0,0 l/m 9,9 km/h (2 Bft) W-NW 291 0 min 0,000 mm 123 W/m 1,7 C 3,0 C 16,1 km/h (3 Bft) 100,00 %
09.01.2012 12:47 5,9 C 75 % 1023,3 hPa 0,0 l/m 11,2 km/h (2 Bft) W 269 0 min 0,000 mm 123 W/m 1,8 C 2,3 C 19,3 km/h (3 Bft) 100,00 %
09.01.2012 12:48 5,9 C 75 % 1023,3 hPa 0,0 l/m 16,2 km/h (3 Bft) W-NW 302 0 min 0,000 mm 121 W/m 1,8 C -0,4 C 29,0 km/h (5 Bft) 100,00 %
09.01.2012 12:49 5,9 C 75 % 1023,2 hPa 0,0 l/m 19,4 km/h (3 Bft) W-NW 286 0 min 0,000 mm 120 W/m 1,8 C -1,8 C 33,8 km/h (5 Bft) 100,00 %
09.01.2012 12:50 5,9 C 75 % 1023,4 hPa 0,0 l/m 16,0 km/h (3 Bft) W 270 0 min 0,000 mm 118 W/m 1,8 C -0,3 C 24,1 km/h (4 Bft) 100,00 %
09.01.2012 12:51 5,9 C 75 % 1023,4 hPa 0,0 l/m 20,7 km/h (4 Bft) W 273 0 min 0,000 mm 120 W/m 1,8 C -2,3 C 35,4 km/h (5 Bft) 100,00 %
09.01.2012 12:52 5,9 C 75 % 1023,3 hPa 0,0 l/m 17,7 km/h (3 Bft) W-NW 284 0 min 0,000 mm 113 W/m 1,8 C -1,1 C 30,6 km/h (5 Bft) 100,00 %
09.01.2012 12:53 5,9 C 75 % 1023,4 hPa 0,0 l/m 23,0 km/h (4 Bft) W-NW 292 0 min 0,000 mm 114 W/m 1,8 C -3,1 C 38,6 km/h (5 Bft) 100,00 %
09.01.2012 12:54 5,9 C 74 % 1023,3 hPa 0,0 l/m 26,9 km/h (4 Bft) W-NW 290 0 min 0,000 mm 125 W/m 1,6 C -4,3 C 49,9 km/h (6 Bft) 100,00 %
09.01.2012 12:55 5,9 C 74 % 1023,3 hPa 0,0 l/m 31,7 km/h (5 Bft) W 266 0 min 0,000 mm 134 W/m 1,6 C -5,5 C 41,8 km/h (6 Bft) 100,00 %
09.01.2012 12:56 5,9 C 74 % 1023,3 hPa 0,0 l/m 24,9 km/h (4 Bft) NW 307 0 min 0,000 mm 134 W/m 1,6 C -3,7 C 40,2 km/h (6 Bft) 100,00 %
09.01.2012 12:57 5,9 C 74 % 1023,3 hPa 0,0 l/m 25,8 km/h (4 Bft) W-SW 248 0 min 0,000 mm 130 W/m 1,6 C -4,0 C 35,4 km/h (5 Bft) 100,00 %
09.01.2012 12:58 5,9 C 74 % 1023,3 hPa 0,0 l/m 26,6 km/h (4 Bft) W-NW 288 0 min 0,000 mm 130 W/m 1,6 C -4,2 C 35,4 km/h (5 Bft) 100,00 %
09.01.2012 12:59 5,9 C 74 % 1023,3 hPa 0,0 l/m 23,8 km/h (4 Bft) W-NW 296 0 min 0,000 mm 120 W/m 1,6 C -3,3 C 37,0 km/h (5 Bft) 95,83 %
09.01.2012 13:00 5,9 C 74 % 1023,3 hPa 0,0 l/m 27,3 km/h (4 Bft) W 277 0 min 0,000 mm 107 W/m 1,6 C -4,4 C 40,2 km/h (6 Bft) 100,00 %
09.01.2012 13:01 5,9 C 74 % 1023,4 hPa 0,0 l/m 18,0 km/h (3 Bft) W-NW 300 0 min 0,076 mm 98 W/m 1,6 C -1,2 C 29,0 km/h (5 Bft) 100,00 %
09.01.2012 13:02 5,9 C 74 % 1023,4 hPa 0,0 l/m 26,8 km/h (4 Bft) W-NW 283 0 min 0,000 mm 93 W/m 1,6 C -4,3 C 35,4 km/h (5 Bft) 100,00 %
09.01.2012 13:03 5,8 C 74 % 1023,3 hPa 0,0 l/m 20,1 km/h (4 Bft) W-NW 294 0 min 0,000 mm 91 W/m 1,5 C -2,2 C 35,4 km/h (5 Bft) 100,00 %
09.01.2012 13:04 5,8 C 74 % 1023,4 hPa 0,0 l/m 23,3 km/h (4 Bft) W-NW 302 0 min 0,000 mm 91 W/m 1,5 C -3,3 C 41,8 km/h (6 Bft) 100,00 %
09.01.2012 13:05 5,8 C 74 % 1023,3 hPa 0,0 l/m 17,1 km/h (3 Bft) NW 307 0 min 0,000 mm 91 W/m 1,5 C -0,9 C 24,1 km/h (4 Bft) 100,00 %
09.01.2012 13:06 5,8 C 74 % 1023,4 hPa 0,0 l/m 18,0 km/h (3 Bft) W-NW 292 0 min 0,000 mm 97 W/m 1,5 C -1,3 C 29,0 km/h (5 Bft) 100,00 %
09.01.2012 13:07 5,8 C 74 % 1023,4 hPa 0,0 l/m 24,0 km/h (4 Bft) W-NW 296 0 min 0,000 mm 100 W/m 1,5 C -3,5 C 30,6 km/h (5 Bft) 100,00 %
09.01.2012 13:08 5,8 C 74 % 1023,4 hPa 0,0 l/m 19,8 km/h (3 Bft) W-NW 290 0 min 0,000 mm 102 W/m 1,5 C -2,1 C 27,4 km/h (4 Bft) 100,00 %
09.01.2012 13:09 5,8 C 74 % 1023,4 hPa 0,0 l/m 14,6 km/h (3 Bft) W-NW 291 0 min 0,000 mm 95 W/m 1,5 C 0,2 C 24,1 km/h (4 Bft) 100,00 %
09.01.2012 13:10 5,8 C 75 % 1023,4 hPa 0,0 l/m 23,7 km/h (4 Bft) NW 312 0 min 0,000 mm 77 W/m 1,7 C -3,4 C 40,2 km/h (6 Bft) 100,00 %
09.01.2012 13:11 5,8 C 75 % 1023,4 hPa 0,0 l/m 12,5 km/h (3 Bft) NW 307 0 min 0,000 mm 74 W/m 1,7 C 1,4 C 20,9 km/h (4 Bft) 100,00 %
09.01.2012 13:12 5,8 C 75 % 1023,4 hPa 0,0 l/m 9,4 km/h (2 Bft) W-NW 283 0 min 0,000 mm 72 W/m 1,7 C 3,4 C 22,5 km/h (4 Bft) 100,00 %
09.01.2012 13:13 5,8 C 76 % 1023,4 hPa 0,0 l/m 17,8 km/h (3 Bft) W 273 0 min 0,000 mm 72 W/m 1,9 C -1,2 C 37,0 km/h (5 Bft) 100,00 %
09.01.2012 13:14 5,7 C 76 % 1023,4 hPa 0,0 l/m 18,3 km/h (3 Bft) W-NW 284 0 min 0,000 mm 74 W/m 1,8 C -1,6 C 29,0 km/h (5 Bft) 100,00 %
09.01.2012 13:15 5,7 C 75 % 1023,4 hPa 0,0 l/m 18,0 km/h (3 Bft) W-NW 288 0 min 0,000 mm 74 W/m 1,6 C -1,5 C 27,4 km/h (4 Bft) 100,00 %
09.01.2012 13:16 5,7 C 75 % 1023,4 hPa 0,0 l/m 12,5 km/h (3 Bft) W-NW 290 0 min 0,000 mm 72 W/m 1,6 C 1,3 C 20,9 km/h (4 Bft) 100,00 %
09.01.2012 13:17 5,7 C 76 % 1023,4 hPa 0,0 l/m 23,7 km/h (4 Bft) W-SW 253 0 min 0,000 mm 74 W/m 1,8 C -3,6 C 35,4 km/h (5 Bft) 100,00 %
09.01.2012 13:18 5,7 C 76 % 1023,4 hPa 0,0 l/m 20,2 km/h (4 Bft) W-NW 294 0 min 0,000 mm 76 W/m 1,8 C -2,3 C 27,4 km/h (4 Bft) 100,00 %
09.01.2012 13:19 5,6 C 76 % 1023,4 hPa 0,0 l/m 16,0 km/h (3 Bft) W-NW 290 0 min 0,000 mm 77 W/m 1,7 C -0,7 C 32,2 km/h (5 Bft) 100,00 %
09.01.2012 13:20 5,6 C 76 % 1023,4 hPa 0,0 l/m 19,0 km/h (3 Bft) W 272 0 min 0,000 mm 79 W/m 1,7 C -2,0 C 27,4 km/h (4 Bft) 100,00 %
09.01.2012 13:21 5,6 C 76 % 1023,4 hPa 0,0 l/m 15,6 km/h (3 Bft) NW 306 0 min 0,000 mm 74 W/m 1,7 C -0,5 C 25,7 km/h (4 Bft) 100,00 %
09.01.2012 13:22 5,6 C 76 % 1023,4 hPa 0,0 l/m 24,1 km/h (4 Bft) W-NW 293 0 min 0,000 mm 70 W/m 1,7 C -3,8 C 35,4 km/h (5 Bft) 100,00 %
09.01.2012 13:23 5,6 C 76 % 1023,4 hPa 0,0 l/m 20,6 km/h (4 Bft) W 274 0 min 0,000 mm 69 W/m 1,7 C -2,6 C 33,8 km/h (5 Bft) 100,00 %
09.01.2012 13:24 5,6 C 76 % 1023,4 hPa 0,0 l/m 14,9 km/h (3 Bft) W 278 0 min 0,000 mm 69 W/m 1,7 C -0,1 C 22,5 km/h (4 Bft) 100,00 %
09.01.2012 13:25 5,6 C 76 % 1023,4 hPa 0,0 l/m 12,7 km/h (3 Bft) W 276 0 min 0,000 mm 72 W/m 1,7 C 1,0 C 22,5 km/h (4 Bft) 100,00 %
09.01.2012 13:26 5,6 C 76 % 1023,4 hPa 0,0 l/m 18,5 km/h (3 Bft) W 264 0 min 0,000 mm 74 W/m 1,7 C -1,8 C 38,6 km/h (5 Bft) 100,00 %
09.01.2012 13:27 5,6 C 76 % 1023,3 hPa 0,0 l/m 19,3 km/h (3 Bft) W 275 0 min 0,000 mm 83 W/m 1,7 C -2,1 C 29,0 km/h (5 Bft) 100,00 %
09.01.2012 13:28 5,6 C 76 % 1023,4 hPa 0,0 l/m 14,5 km/h (3 Bft) W 265 0 min 0,000 mm 88 W/m 1,7 C 0,1 C 25,7 km/h (4 Bft) 100,00 %
09.01.2012 13:29 5,6 C 76 % 1023,4 hPa 0,0 l/m 24,8 km/h (4 Bft) W-NW 286 0 min 0,000 mm 91 W/m 1,7 C -4,1 C 37,0 km/h (5 Bft) 100,00 %
09.01.2012 13:30 5,6 C 76 % 1023,3 hPa 0,0 l/m 26,8 km/h (4 Bft) NW 305 0 min 0,000 mm 90 W/m 1,7 C -4,7 C 38,6 km/h (5 Bft) 100,00 %
09.01.2012 13:31 5,6 C 76 % 1023,3 hPa 0,0 l/m 24,6 km/h (4 Bft) W-NW 286 0 min 0,000 mm 88 W/m 1,7 C -4,0 C 33,8 km/h (5 Bft) 100,00 %
09.01.2012 13:32 5,6 C 75 % 1023,3 hPa 0,0 l/m 23,0 km/h (4 Bft) W-NW 300 0 min 0,000 mm 83 W/m 1,5 C -3,5 C 30,6 km/h (5 Bft) 100,00 %
09.01.2012 13:33 5,6 C 75 % 1023,3 hPa 0,0 l/m 21,7 km/h (4 Bft) W 281 0 min 0,000 mm 74 W/m 1,5 C -3,0 C 33,8 km/h (5 Bft) 100,00 %
09.01.2012 13:34 5,6 C 75 % 1023,3 hPa 0,0 l/m 20,4 km/h (4 Bft) W-NW 295 0 min 0,000 mm 76 W/m 1,5 C -2,6 C 32,2 km/h (5 Bft) 100,00 %
09.01.2012 13:35 5,6 C 75 % 1023,4 hPa 0,0 l/m 19,7 km/h (3 Bft) W 275 0 min 0,000 mm 79 W/m 1,5 C -2,3 C 30,6 km/h (5 Bft) 100,00 %
09.01.2012 13:36 5,6 C 75 % 1023,3 hPa 0,0 l/m 18,7 km/h (3 Bft) W 273 0 min 0,000 mm 81 W/m 1,5 C -1,9 C 37,0 km/h (5 Bft) 100,00 %
09.01.2012 13:37 5,6 C 75 % 1023,4 hPa 0,0 l/m 23,2 km/h (4 Bft) W 267 0 min 0,000 mm 86 W/m 1,5 C -3,6 C 35,4 km/h (5 Bft) 100,00 %
09.01.2012 13:38 5,6 C 75 % 1023,5 hPa 0,0 l/m 25,3 km/h (4 Bft) NW 305 0 min 0,000 mm 90 W/m 1,5 C -4,2 C 38,6 km/h (5 Bft) 100,00 %
09.01.2012 13:39 5,6 C 75 % 1023,4 hPa 0,0 l/m 26,8 km/h (4 Bft) W-SW 247 0 min 0,000 mm 90 W/m 1,5 C -4,7 C 33,8 km/h (5 Bft) 100,00 %
09.01.2012 13:40 5,7 C 75 % 1023,5 hPa 0,0 l/m 16,9 km/h (3 Bft) W 263 0 min 0,000 mm 90 W/m 1,6 C -1,0 C 32,2 km/h (5 Bft) 100,00 %
09.01.2012 13:41 5,7 C 75 % 1023,4 hPa 0,0 l/m 15,0 km/h (3 Bft) W-NW 293 0 min 0,000 mm 90 W/m 1,6 C -0,1 C 25,7 km/h (4 Bft) 100,00 %
09.01.2012 13:42 5,7 C 75 % 1023,5 hPa 0,0 l/m 20,8 km/h (4 Bft) W 268 0 min 0,000 mm 95 W/m 1,6 C -2,6 C 38,6 km/h (5 Bft) 100,00 %
09.01.2012 13:43 5,7 C 75 % 1023,5 hPa 0,0 l/m 18,9 km/h (3 Bft) W-NW 291 0 min 0,000 mm 102 W/m 1,6 C -1,8 C 35,4 km/h (5 Bft) 100,00 %
09.01.2012 13:44 5,7 C 75 % 1023,5 hPa 0,0 l/m 19,7 km/h (3 Bft) NW 307 0 min 0,000 mm 105 W/m 1,6 C -2,2 C 38,6 km/h (5 Bft) 100,00 %
09.01.2012 13:45 5,8 C 75 % 1023,5 hPa 0,0 l/m 24,6 km/h (4 Bft) W-NW 295 0 min 0,000 mm 111 W/m 1,7 C -3,7 C 38,6 km/h (5 Bft) 100,00 %
09.01.2012 13:46 5,8 C 74 % 1023,5 hPa 0,0 l/m 24,3 km/h (4 Bft) W-NW 284 0 min 0,000 mm 113 W/m 1,5 C -3,6 C 33,8 km/h (5 Bft) 100,00 %
09.01.2012 13:47 5,8 C 74 % 1023,5 hPa 0,0 l/m 13,2 km/h (3 Bft) W 263 0 min 0,000 mm 113 W/m 1,5 C 1,0 C 20,9 km/h (4 Bft) 100,00 %
09.01.2012 13:48 5,8 C 74 % 1023,6 hPa 0,0 l/m 17,7 km/h (3 Bft) W-NW 288 0 min 0,000 mm 113 W/m 1,5 C -1,2 C 33,8 km/h (5 Bft) 100,00 %
09.01.2012 13:49 5,8 C 74 % 1023,6 hPa 0,0 l/m 19,0 km/h (3 Bft) W-NW 295 0 min 0,000 mm 109 W/m 1,5 C -1,7 C 29,0 km/h (5 Bft) 100,00 %
09.01.2012 13:50 5,9 C 74 % 1023,7 hPa 0,0 l/m 16,3 km/h (3 Bft) NW 304 0 min 0,000 mm 107 W/m 1,6 C -0,5 C 32,2 km/h (5 Bft) 100,00 %
09.01.2012 13:51 5,9 C 74 % 1023,7 hPa 0,0 l/m 18,2 km/h (3 Bft) W-NW 286 0 min 0,000 mm 107 W/m 1,6 C -1,3 C 29,0 km/h (5 Bft) 100,00 %
09.01.2012 13:52 5,9 C 74 % 1023,7 hPa 0,0 l/m 18,5 km/h (3 Bft) W 275 0 min 0,000 mm 107 W/m 1,6 C -1,4 C 29,0 km/h (5 Bft) 100,00 %
09.01.2012 13:53 5,9 C 74 % 1023,7 hPa 0,0 l/m 16,7 km/h (3 Bft) W 281 0 min 0,000 mm 107 W/m 1,6 C -0,6 C 24,1 km/h (4 Bft) 100,00 %
09.01.2012 13:54 5,9 C 74 % 1023,8 hPa 0,0 l/m 18,8 km/h (3 Bft) W 268 0 min 0,000 mm 107 W/m 1,6 C -1,5 C 30,6 km/h (5 Bft) 100,00 %
09.01.2012 13:55 5,9 C 74 % 1023,8 hPa 0,0 l/m 26,0 km/h (4 Bft) W 272 0 min 0,000 mm 109 W/m 1,6 C -4,0 C 38,6 km/h (5 Bft) 100,00 %
09.01.2012 13:56 5,9 C 74 % 1023,7 hPa 0,0 l/m 21,1 km/h (4 Bft) W 271 0 min 0,000 mm 111 W/m 1,6 C -2,4 C 32,2 km/h (5 Bft) 100,00 %
09.01.2012 13:57 5,9 C 74 % 1023,7 hPa 0,0 l/m 24,7 km/h (4 Bft) W 270 0 min 0,000 mm 113 W/m 1,6 C -3,6 C 33,8 km/h (5 Bft) 100,00 %
09.01.2012 13:58 5,9 C 74 % 1023,8 hPa 0,0 l/m 21,3 km/h (4 Bft) W 269 0 min 0,000 mm 114 W/m 1,6 C -2,5 C 30,6 km/h (5 Bft) 100,00 %
09.01.2012 13:59 5,9 C 73 % 1023,7 hPa 0,0 l/m 27,3 km/h (4 Bft) W 277 0 min 0,000 mm 114 W/m 1,4 C -4,4 C 35,4 km/h (5 Bft) 100,00 %
09.01.2012 14:00 5,9 C 74 % 1023,8 hPa 0,0 l/m 19,6 km/h (3 Bft) W 280 0 min 0,000 mm 114 W/m 1,6 C -1,9 C 27,4 km/h (4 Bft) 100,00 %
09.01.2012 14:01 5,9 C 74 % 1023,8 hPa 0,0 l/m 21,0 km/h (4 Bft) W-NW 290 0 min 0,076 mm 114 W/m 1,6 C -2,4 C 37,0 km/h (5 Bft) 100,00 %
09.01.2012 14:02 5,9 C 74 % 1023,8 hPa 0,0 l/m 15,0 km/h (3 Bft) W-NW 292 0 min 0,000 mm 114 W/m 1,6 C 0,2 C 25,7 km/h (4 Bft) 100,00 %
09.01.2012 14:03 5,9 C 74 % 1023,7 hPa 0,0 l/m 19,9 km/h (4 Bft) W-NW 297 0 min 0,000 mm 114 W/m 1,6 C -2,0 C 37,0 km/h (5 Bft) 100,00 %
09.01.2012 14:04 5,9 C 74 % 1023,8 hPa 0,0 l/m 20,4 km/h (4 Bft) W-NW 296 0 min 0,000 mm 116 W/m 1,6 C -2,2 C 27,4 km/h (4 Bft) 100,00 %
09.01.2012 14:05 5,9 C 74 % 1023,8 hPa 0,0 l/m 15,8 km/h (3 Bft) NW 310 0 min 0,000 mm 120 W/m 1,6 C -0,2 C 24,1 km/h (4 Bft) 100,00 %
09.01.2012 14:06 5,9 C 74 % 1023,8 hPa 0,0 l/m 13,9 km/h (3 Bft) W 278 0 min 0,000 mm 120 W/m 1,6 C 0,7 C 25,7 km/h (4 Bft) 100,00 %
09.01.2012 14:07 5,9 C 74 % 1023,8 hPa 0,0 l/m 14,8 km/h (3 Bft) W-NW 284 0 min 0,000 mm 118 W/m 1,6 C 0,3 C 22,5 km/h (4 Bft) 100,00 %
09.01.2012 14:08 5,9 C 74 % 1023,8 hPa 0,0 l/m 22,7 km/h (4 Bft) W-NW 300 0 min 0,000 mm 114 W/m 1,6 C -3,0 C 29,0 km/h (5 Bft) 100,00 %
09.01.2012 14:09 5,9 C 74 % 1023,8 hPa 0,0 l/m 20,1 km/h (4 Bft) W-NW 298 0 min 0,000 mm 111 W/m 1,6 C -2,0 C 27,4 km/h (4 Bft) 100,00 %
09.01.2012 14:10 5,9 C 74 % 1023,8 hPa 0,0 l/m 22,0 km/h (4 Bft) NW 312 0 min 0,000 mm 109 W/m 1,6 C -2,7 C 29,0 km/h (5 Bft) 100,00 %
09.01.2012 14:11 5,9 C 74 % 1023,8 hPa 0,0 l/m 17,4 km/h (3 Bft) W-NW 282 0 min 0,000 mm 104 W/m 1,6 C -0,9 C 24,1 km/h (4 Bft) 100,00 %
09.01.2012 14:12 5,9 C 74 % 1023,8 hPa 0,0 l/m 14,3 km/h (3 Bft) W-NW 287 0 min 0,000 mm 93 W/m 1,6 C 0,5 C 24,1 km/h (4 Bft) 100,00 %
09.01.2012 14:13 5,9 C 74 % 1023,8 hPa 0,0 l/m 21,3 km/h (4 Bft) W 263 0 min 0,000 mm 86 W/m 1,6 C -2,5 C 27,4 km/h (4 Bft) 100,00 %
09.01.2012 14:14 5,9 C 74 % 1023,8 hPa 0,0 l/m 21,8 km/h (4 Bft) NW 311 0 min 0,000 mm 70 W/m 1,6 C -2,7 C 29,0 km/h (5 Bft) 100,00 %
09.01.2012 14:15 5,9 C 74 % 1023,8 hPa 0,0 l/m 20,0 km/h (4 Bft) W-NW 298 0 min 0,000 mm 60 W/m 1,6 C -2,0 C 25,7 km/h (4 Bft) 100,00 %
09.01.2012 14:16 5,8 C 74 % 1023,9 hPa 0,0 l/m 13,7 km/h (3 Bft) W-NW 297 0 min 0,000 mm 60 W/m 1,5 C 0,7 C 17,7 km/h (3 Bft) 100,00 %
09.01.2012 14:17 5,8 C 74 % 1023,9 hPa 0,0 l/m 21,9 km/h (4 Bft) NW 306 0 min 0,000 mm 58 W/m 1,5 C -2,8 C 29,0 km/h (5 Bft) 100,00 %
09.01.2012 14:18 5,8 C 74 % 1024,1 hPa 0,0 l/m 26,4 km/h (4 Bft) NW 313 0 min 0,000 mm 63 W/m 1,5 C -4,3 C 33,8 km/h (5 Bft) 100,00 %
09.01.2012 14:19 5,8 C 74 % 1023,9 hPa 0,0 l/m 19,1 km/h (3 Bft) W-NW 286 0 min 0,000 mm 67 W/m 1,5 C -1,8 C 27,4 km/h (4 Bft) 100,00 %
09.01.2012 14:20 5,8 C 74 % 1023,8 hPa 0,0 l/m 19,3 km/h (3 Bft) W 280 0 min 0,000 mm 69 W/m 1,5 C -1,9 C 25,7 km/h (4 Bft) 100,00 %
09.01.2012 14:21 5,8 C 74 % 1024,0 hPa 0,0 l/m 14,6 km/h (3 Bft) NW 306 0 min 0,000 mm 83 W/m 1,5 C 0,2 C 17,7 km/h (3 Bft) 100,00 %
09.01.2012 14:22 5,8 C 74 % 1024,0 hPa 0,0 l/m 20,2 km/h (4 Bft) W-NW 284 0 min 0,000 mm 88 W/m 1,5 C -2,2 C 29,0 km/h (5 Bft) 100,00 %
09.01.2012 14:23 5,8 C 74 % 1024,0 hPa 0,0 l/m 23,4 km/h (4 Bft) NW 304 0 min 0,000 mm 97 W/m 1,5 C -3,3 C 27,4 km/h (4 Bft) 100,00 %
09.01.2012 14:24 5,8 C 74 % 1023,9 hPa 0,0 l/m 17,8 km/h (3 Bft) NW 311 0 min 0,000 mm 74 W/m 1,5 C -1,2 C 24,1 km/h (4 Bft) 100,00 %
09.01.2012 14:25 5,8 C 74 % 1023,9 hPa 0,0 l/m 15,0 km/h (3 Bft) W-NW 298 0 min 0,000 mm 67 W/m 1,5 C 0,0 C 19,3 km/h (3 Bft) 100,00 %
09.01.2012 14:26 5,8 C 74 % 1023,9 hPa 0,0 l/m 13,9 km/h (3 Bft) NW 312 0 min 0,000 mm 77 W/m 1,5 C 0,6 C 19,3 km/h (3 Bft) 100,00 %
09.01.2012 14:27 5,8 C 74 % 1024,0 hPa 0,0 l/m 20,0 km/h (4 Bft) W-NW 288 0 min 0,000 mm 83 W/m 1,5 C -2,1 C 27,4 km/h (4 Bft) 100,00 %
09.01.2012 14:28 5,8 C 74 % 1023,9 hPa 0,0 l/m 22,4 km/h (4 Bft) NW 310 0 min 0,000 mm 86 W/m 1,5 C -3,0 C 25,7 km/h (4 Bft) 100,00 %
09.01.2012 14:29 5,8 C 74 % 1023,9 hPa 0,0 l/m 20,6 km/h (4 Bft) N 350 0 min 0,000 mm 98 W/m 1,5 C -2,4 C 22,5 km/h (4 Bft) 100,00 %
09.01.2012 14:30 5,8 C 74 % 1023,9 hPa 0,0 l/m 22,3 km/h (4 Bft) NW 311 0 min 0,000 mm 116 W/m 1,5 C -3,0 C 33,8 km/h (5 Bft) 100,00 %
09.01.2012 14:31 5,8 C 74 % 1024,0 hPa 0,0 l/m 27,1 km/h (4 Bft) W-NW 283 0 min 0,000 mm 109 W/m 1,5 C -4,5 C 33,8 km/h (5 Bft) 100,00 %
09.01.2012 14:32 5,8 C 74 % 1024,0 hPa 0,0 l/m 17,6 km/h (3 Bft) NW 306 0 min 0,000 mm 113 W/m 1,5 C -1,2 C 22,5 km/h (4 Bft) 100,00 %
09.01.2012 14:33 5,9 C 74 % 1024,0 hPa 0,0 l/m 17,8 km/h (3 Bft) W-NW 294 0 min 0,000 mm 120 W/m 1,6 C -1,1 C 22,5 km/h (4 Bft) 100,00 %
09.01.2012 14:34 5,9 C 74 % 1024,0 hPa 0,0 l/m 13,3 km/h (3 Bft) NW 307 0 min 0,000 mm 123 W/m 1,6 C 1,1 C 20,9 km/h (4 Bft) 100,00 %
09.01.2012 14:35 5,9 C 74 % 1023,9 hPa 0,0 l/m 14,5 km/h (3 Bft) NW 304 0 min 0,000 mm 114 W/m 1,6 C 0,4 C 19,3 km/h (3 Bft) 100,00 %
09.01.2012 14:36 5,9 C 74 % 1024,0 hPa 0,0 l/m 23,5 km/h (4 Bft) W-NW 292 0 min 0,000 mm 104 W/m 1,6 C -3,2 C 29,0 km/h (5 Bft) 100,00 %
09.01.2012 14:38 5,9 C 74 % 1024,0 hPa 0,0 l/m 16,6 km/h (3 Bft) N-NW 331 2 min 0,000 mm 155 W/m 1,6 C -0,6 C 25,7 km/h (4 Bft) 100,00 %
09.01.2012 14:39 5,9 C 74 % 1023,9 hPa 0,0 l/m 22,2 km/h (4 Bft) W-NW 301 0 min 0,000 mm 123 W/m 1,6 C -2,8 C 29,0 km/h (5 Bft) 100,00 %
09.01.2012 14:40 5,9 C 73 % 1024,0 hPa 0,0 l/m 22,7 km/h (4 Bft) NW 312 0 min 0,000 mm 127 W/m 1,4 C -3,0 C 29,0 km/h (5 Bft) 100,00 %
09.01.2012 14:41 5,9 C 73 % 1024,0 hPa 0,0 l/m 21,5 km/h (4 Bft) W-NW 287 0 min 0,000 mm 127 W/m 1,4 C -2,6 C 29,0 km/h (5 Bft) 100,00 %
09.01.2012 14:42 5,9 C 73 % 1024,0 hPa 0,0 l/m 14,5 km/h (3 Bft) W-NW 302 0 min 0,000 mm 128 W/m 1,4 C 0,4 C 24,1 km/h (4 Bft) 100,00 %
09.01.2012 14:43 6,0 C 73 % 1024,0 hPa 0,0 l/m 19,4 km/h (3 Bft) W 267 0 min 0,000 mm 102 W/m 1,5 C -1,6 C 27,4 km/h (4 Bft) 100,00 %
09.01.2012 14:44 6,0 C 73 % 1023,9 hPa 0,0 l/m 19,7 km/h (3 Bft) NW 309 0 min 0,000 mm 102 W/m 1,5 C -1,8 C 24,1 km/h (4 Bft) 100,00 %
09.01.2012 14:45 6,0 C 73 % 1023,9 hPa 0,0 l/m 16,8 km/h (3 Bft) W-NW 303 0 min 0,000 mm 104 W/m 1,5 C -0,6 C 27,4 km/h (4 Bft) 100,00 %
09.01.2012 14:46 6,0 C 73 % 1024,0 hPa 0,0 l/m 24,4 km/h (4 Bft) W 265 0 min 0,000 mm 104 W/m 1,5 C -3,4 C 38,6 km/h (5 Bft) 100,00 %
09.01.2012 14:47 6,0 C 72 % 1023,9 hPa 0,0 l/m 26,1 km/h (4 Bft) NW 311 0 min 0,000 mm 100 W/m 1,3 C -3,9 C 40,2 km/h (6 Bft) 100,00 %
09.01.2012 14:48 6,0 C 72 % 1024,0 hPa 0,0 l/m 25,9 km/h (4 Bft) W-NW 283 0 min 0,000 mm 93 W/m 1,3 C -3,9 C 37,0 km/h (5 Bft) 100,00 %
09.01.2012 14:49 6,0 C 72 % 1024,0 hPa 0,0 l/m 22,9 km/h (4 Bft) W 281 0 min 0,000 mm 97 W/m 1,3 C -2,9 C 29,0 km/h (5 Bft) 100,00 %
09.01.2012 14:50 6,1 C 72 % 1023,9 hPa 0,0 l/m 17,0 km/h (3 Bft) W 263 0 min 0,000 mm 93 W/m 1,4 C -0,5 C 25,7 km/h (4 Bft) 100,00 %
09.01.2012 14:51 6,1 C 72 % 1024,0 hPa 0,0 l/m 17,5 km/h (3 Bft) W 273 0 min 0,000 mm 90 W/m 1,4 C -0,7 C 27,4 km/h (4 Bft) 100,00 %
09.01.2012 14:52 6,1 C 72 % 1024,0 hPa 0,0 l/m 18,3 km/h (3 Bft) NW 318 0 min 0,000 mm 81 W/m 1,4 C -1,1 C 27,4 km/h (4 Bft) 100,00 %
09.01.2012 14:53 6,1 C 72 % 1024,0 hPa 0,0 l/m 20,5 km/h (4 Bft) NW 306 0 min 0,000 mm 72 W/m 1,4 C -1,9 C 27,4 km/h (4 Bft) 100,00 %
09.01.2012 14:54 6,0 C 72 % 1024,0 hPa 0,0 l/m 21,3 km/h (4 Bft) W 279 0 min 0,000 mm 67 W/m 1,3 C -2,4 C 29,0 km/h (5 Bft) 100,00 %
09.01.2012 14:55 6,0 C 72 % 1024,0 hPa 0,0 l/m 21,7 km/h (4 Bft) W-NW 291 0 min 0,000 mm 62 W/m 1,3 C -2,5 C 33,8 km/h (5 Bft) 100,00 %
09.01.2012 14:56 6,0 C 72 % 1024,2 hPa 0,0 l/m 22,3 km/h (4 Bft) W-NW 288 0 min 0,000 mm 49 W/m 1,3 C -2,7 C 27,4 km/h (4 Bft) 100,00 %
09.01.2012 14:57 6,0 C 72 % 1024,1 hPa 0,0 l/m 16,2 km/h (3 Bft) W 263 0 min 0,000 mm 42 W/m 1,3 C -0,3 C 24,1 km/h (4 Bft) 100,00 %
09.01.2012 14:58 5,9 C 72 % 1024,1 hPa 0,0 l/m 18,8 km/h (3 Bft) W 279 0 min 0,000 mm 40 W/m 1,2 C -1,5 C 27,4 km/h (4 Bft) 100,00 %
09.01.2012 14:59 5,9 C 72 % 1024,2 hPa 0,0 l/m 18,2 km/h (3 Bft) W-NW 286 0 min 0,000 mm 40 W/m 1,2 C -1,3 C 29,0 km/h (5 Bft) 100,00 %
09.01.2012 15:00 5,9 C 72 % 1024,2 hPa 0,0 l/m 15,7 km/h (3 Bft) W 263 0 min 0,000 mm 40 W/m 1,2 C -0,2 C 24,1 km/h (4 Bft) 100,00 %
09.01.2012 15:01 5,9 C 72 % 1024,2 hPa 0,0 l/m 11,3 km/h (2 Bft) W-NW 290 0 min 0,077 mm 44 W/m 1,2 C 2,2 C 19,3 km/h (3 Bft) 100,00 %
09.01.2012 15:02 5,8 C 72 % 1024,2 hPa 0,0 l/m 10,2 km/h (2 Bft) W 276 0 min 0,077 mm 44 W/m 1,2 C 2,8 C 19,3 km/h (3 Bft) 97,22 %
09.01.2012 15:03 5,8 C 73 % 1024,3 hPa 0,0 l/m 17,2 km/h (3 Bft) W 277 0 min 0,000 mm 39 W/m 1,3 C -1,0 C 25,7 km/h (4 Bft) 100,00 %
09.01.2012 15:04 5,8 C 73 % 1024,3 hPa 0,0 l/m 9,2 km/h (2 Bft) W-NW 295 0 min 0,000 mm 37 W/m 1,3 C 3,5 C 14,5 km/h (3 Bft) 100,00 %
09.01.2012 15:05 5,7 C 73 % 1024,4 hPa 0,0 l/m 6,7 km/h (2 Bft) W-NW 285 0 min 0,000 mm 35 W/m 1,2 C 5,5 C 11,3 km/h (2 Bft) 100,00 %
09.01.2012 15:06 5,7 C 73 % 1024,3 hPa 0,0 l/m 10,4 km/h (2 Bft) W-NW 296 0 min 0,000 mm 39 W/m 1,2 C 2,6 C 17,7 km/h (3 Bft) 100,00 %
09.01.2012 15:07 5,7 C 73 % 1024,4 hPa 0,0 l/m 11,3 km/h (2 Bft) W-NW 302 0 min 0,000 mm 47 W/m 1,2 C 2,0 C 17,7 km/h (3 Bft) 100,00 %
09.01.2012 15:08 5,7 C 74 % 1024,3 hPa 0,0 l/m 14,1 km/h (3 Bft) NW 311 0 min 0,000 mm 49 W/m 1,4 C 0,4 C 24,1 km/h (4 Bft) 100,00 %
09.01.2012 15:09 5,6 C 74 % 1024,3 hPa 0,0 l/m 23,2 km/h (4 Bft) W-NW 296 0 min 0,000 mm 51 W/m 1,3 C -3,6 C 33,8 km/h (5 Bft) 100,00 %
09.01.2012 15:10 5,6 C 73 % 1024,3 hPa 0,0 l/m 25,7 km/h (4 Bft) W-NW 294 0 min 0,000 mm 53 W/m 1,2 C -4,3 C 33,8 km/h (5 Bft) 100,00 %
09.01.2012 15:11 5,6 C 73 % 1024,3 hPa 0,0 l/m 26,8 km/h (4 Bft) W 269 0 min 0,000 mm 54 W/m 1,2 C -4,7 C 35,4 km/h (5 Bft) 100,00 %
09.01.2012 15:12 5,6 C 73 % 1024,4 hPa 0,0 l/m 13,5 km/h (3 Bft) W-NW 290 0 min 0,000 mm 56 W/m 1,2 C 0,6 C 24,1 km/h (4 Bft) 100,00 %
09.01.2012 15:13 5,6 C 73 % 1024,4 hPa 0,0 l/m 17,9 km/h (3 Bft) W-NW 283 0 min 0,000 mm 56 W/m 1,2 C -1,5 C 27,4 km/h (4 Bft) 100,00 %
09.01.2012 15:14 5,6 C 73 % 1024,4 hPa 0,0 l/m 15,4 km/h (3 Bft) W-NW 290 0 min 0,000 mm 51 W/m 1,2 C -0,4 C 27,4 km/h (4 Bft) 100,00 %
09.01.2012 15:15 5,6 C 73 % 1024,4 hPa 0,0 l/m 24,4 km/h (4 Bft) W-NW 303 0 min 0,000 mm 47 W/m 1,2 C -3,9 C 32,2 km/h (5 Bft) 100,00 %
09.01.2012 15:16 5,6 C 73 % 1024,4 hPa 0,0 l/m 21,9 km/h (4 Bft) NW 310 0 min 0,000 mm 44 W/m 1,2 C -3,1 C 27,4 km/h (4 Bft) 100,00 %
09.01.2012 15:17 5,6 C 73 % 1024,4 hPa 0,0 l/m 22,7 km/h (4 Bft) W-NW 288 0 min 0,000 mm 40 W/m 1,2 C -3,4 C 30,6 km/h (5 Bft) 100,00 %
09.01.2012 15:18 5,6 C 73 % 1024,4 hPa 0,0 l/m 16,5 km/h (3 Bft) W 271 0 min 0,000 mm 33 W/m 1,2 C -0,9 C 24,1 km/h (4 Bft) 100,00 %
09.01.2012 15:19 5,6 C 74 % 1024,4 hPa 0,0 l/m 21,7 km/h (4 Bft) W-NW 294 0 min 0,000 mm 32 W/m 1,3 C -3,0 C 32,2 km/h (5 Bft) 100,00 %
09.01.2012 15:20 5,6 C 74 % 1024,4 hPa 0,0 l/m 26,7 km/h (4 Bft) W-NW 301 0 min 0,000 mm 28 W/m 1,3 C -4,6 C 35,4 km/h (5 Bft) 100,00 %
09.01.2012 15:21 5,6 C 73 % 1024,3 hPa 0,0 l/m 25,3 km/h (4 Bft) W-SW 238 0 min 0,000 mm 26 W/m 1,2 C -4,2 C 33,8 km/h (5 Bft) 100,00 %
09.01.2012 15:22 5,6 C 73 % 1024,2 hPa 0,0 l/m 27,2 km/h (4 Bft) W-NW 286 0 min 0,000 mm 28 W/m 1,2 C -4,8 C 35,4 km/h (5 Bft) 100,00 %
09.01.2012 15:23 5,6 C 73 % 1024,3 hPa 0,0 l/m 25,6 km/h (4 Bft) NW 314 0 min 0,000 mm 28 W/m 1,2 C -4,3 C 33,8 km/h (5 Bft) 100,00 %
09.01.2012 15:24 5,6 C 73 % 1024,3 hPa 0,0 l/m 21,3 km/h (4 Bft) NW 326 0 min 0,000 mm 28 W/m 1,2 C -2,9 C 27,4 km/h (4 Bft) 100,00 %
09.01.2012 15:25 5,6 C 73 % 1024,3 hPa 0,0 l/m 13,1 km/h (3 Bft) W-NW 298 0 min 0,000 mm 30 W/m 1,2 C 0,8 C 19,3 km/h (3 Bft) 100,00 %
09.01.2012 15:26 5,6 C 74 % 1024,3 hPa 0,0 l/m 19,2 km/h (3 Bft) NW 307 0 min 0,000 mm 30 W/m 1,3 C -2,1 C 30,6 km/h (5 Bft) 100,00 %
09.01.2012 15:27 5,6 C 74 % 1024,4 hPa 0,0 l/m 27,5 km/h (4 Bft) W-NW 287 0 min 0,000 mm 30 W/m 1,3 C -4,9 C 35,4 km/h (5 Bft) 100,00 %
09.01.2012 15:28 5,5 C 74 % 1024,4 hPa 0,0 l/m 16,9 km/h (3 Bft) NW 307 0 min 0,000 mm 28 W/m 1,2 C -1,2 C 27,4 km/h (4 Bft) 100,00 %
09.01.2012 15:29 5,5 C 74 % 1024,4 hPa 0,0 l/m 15,7 km/h (3 Bft) W-NW 300 0 min 0,000 mm 28 W/m 1,2 C -0,7 C 20,9 km/h (4 Bft) 100,00 %
09.01.2012 15:30 5,5 C 74 % 1024,3 hPa 0,0 l/m 20,1 km/h (4 Bft) NW 306 0 min 0,000 mm 26 W/m 1,2 C -2,6 C 24,1 km/h (4 Bft) 100,00 %
09.01.2012 15:31 5,5 C 74 % 1024,4 hPa 0,0 l/m 20,0 km/h (4 Bft) W-NW 287 0 min 0,000 mm 26 W/m 1,2 C -2,5 C 22,5 km/h (4 Bft) 100,00 %
09.01.2012 15:32 5,4 C 74 % 1024,4 hPa 0,0 l/m 12,6 km/h (3 Bft) NW 321 0 min 0,000 mm 26 W/m 1,1 C 0,9 C 19,3 km/h (3 Bft) 100,00 %
09.01.2012 15:33 5,4 C 74 % 1024,3 hPa 0,0 l/m 14,1 km/h (3 Bft) W-NW 300 0 min 0,000 mm 26 W/m 1,1 C 0,0 C 19,3 km/h (3 Bft) 100,00 %
09.01.2012 15:34 5,4 C 74 % 1024,3 hPa 0,0 l/m 20,0 km/h (4 Bft) W 281 0 min 0,000 mm 30 W/m 1,1 C -2,7 C 33,8 km/h (5 Bft) 100,00 %
09.01.2012 15:35 5,4 C 74 % 1024,2 hPa 0,0 l/m 26,2 km/h (4 Bft) W 275 0 min 0,000 mm 30 W/m 1,1 C -4,8 C 32,2 km/h (5 Bft) 100,00 %
09.01.2012 15:36 5,4 C 74 % 1024,2 hPa 0,0 l/m 18,5 km/h (3 Bft) NW 304 0 min 0,000 mm 28 W/m 1,1 C -2,0 C 30,6 km/h (5 Bft) 100,00 %
09.01.2012 15:37 5,4 C 74 % 1024,3 hPa 0,0 l/m 13,1 km/h (3 Bft) NW 304 0 min 0,000 mm 32 W/m 1,1 C 0,6 C 27,4 km/h (4 Bft) 100,00 %
09.01.2012 15:38 5,4 C 74 % 1024,3 hPa 0,0 l/m 21,6 km/h (4 Bft) W-NW 293 0 min 0,000 mm 28 W/m 1,1 C -3,3 C 29,0 km/h (5 Bft) 100,00 %
09.01.2012 15:39 5,4 C 74 % 1024,4 hPa 0,0 l/m 15,5 km/h (3 Bft) W-NW 302 0 min 0,000 mm 28 W/m 1,1 C -0,7 C 25,7 km/h (4 Bft) 100,00 %
09.01.2012 15:40 5,4 C 74 % 1024,3 hPa 0,0 l/m 18,9 km/h (3 Bft) W-NW 284 0 min 0,000 mm 28 W/m 1,1 C -2,2 C 24,1 km/h (4 Bft) 100,00 %
09.01.2012 15:41 5,4 C 74 % 1024,2 hPa 0,0 l/m 21,8 km/h (4 Bft) NW 316 0 min 0,000 mm 28 W/m 1,1 C -3,3 C 27,4 km/h (4 Bft) 100,00 %
09.01.2012 15:42 5,4 C 74 % 1024,3 hPa 0,0 l/m 16,0 km/h (3 Bft) W-NW 286 0 min 0,000 mm 28 W/m 1,1 C -0,9 C 20,9 km/h (4 Bft) 100,00 %
09.01.2012 15:43 5,4 C 74 % 1024,3 hPa 0,0 l/m 12,2 km/h (2 Bft) W 276 0 min 0,000 mm 28 W/m 1,1 C 1,1 C 20,9 km/h (4 Bft) 100,00 %
09.01.2012 15:44 5,4 C 74 % 1024,3 hPa 0,0 l/m 16,9 km/h (3 Bft) W-NW 287 0 min 0,000 mm 30 W/m 1,1 C -1,3 C 29,0 km/h (5 Bft) 100,00 %
09.01.2012 15:45 5,4 C 74 % 1024,4 hPa 0,0 l/m 15,4 km/h (3 Bft) W-NW 291 0 min 0,000 mm 30 W/m 1,1 C -0,6 C 27,4 km/h (4 Bft) 100,00 %
09.01.2012 15:46 5,4 C 74 % 1024,3 hPa 0,0 l/m 14,9 km/h (3 Bft) W-NW 287 0 min 0,000 mm 28 W/m 1,1 C -0,4 C 20,9 km/h (4 Bft) 100,00 %
09.01.2012 15:47 5,4 C 74 % 1024,3 hPa 0,0 l/m 12,5 km/h (3 Bft) W-NW 288 0 min 0,000 mm 30 W/m 1,1 C 0,9 C 19,3 km/h (3 Bft) 100,00 %
09.01.2012 15:48 5,4 C 74 % 1024,4 hPa 0,0 l/m 9,2 km/h (2 Bft) W 277 0 min 0,000 mm 28 W/m 1,1 C 3,1 C 16,1 km/h (3 Bft) 100,00 %
09.01.2012 15:49 5,4 C 74 % 1024,3 hPa 0,0 l/m 7,8 km/h (2 Bft) W-NW 284 0 min 0,000 mm 28 W/m 1,1 C 4,2 C 11,3 km/h (2 Bft) 100,00 %
09.01.2012 15:50 5,4 C 74 % 1024,4 hPa 0,0 l/m 10,1 km/h (2 Bft) W-NW 299 0 min 0,000 mm 28 W/m 1,1 C 2,4 C 19,3 km/h (3 Bft) 95,65 %
09.01.2012 15:51 5,4 C 74 % 1024,4 hPa 0,0 l/m 18,2 km/h (3 Bft) W 268 0 min 0,000 mm 28 W/m 1,1 C -1,9 C 22,5 km/h (4 Bft) 100,00 %
09.01.2012 15:52 5,4 C 74 % 1024,3 hPa 0,0 l/m 12,9 km/h (3 Bft) W-NW 287 0 min 0,000 mm 26 W/m 1,1 C 0,7 C 20,9 km/h (4 Bft) 96,00 %
09.01.2012 15:53 5,4 C 74 % 1024,4 hPa 0,0 l/m 11,7 km/h (2 Bft) W-NW 298 0 min 0,000 mm 25 W/m 1,1 C 1,4 C 22,5 km/h (4 Bft) 100,00 %
09.01.2012 15:54 5,4 C 74 % 1024,4 hPa 0,0 l/m 14,8 km/h (3 Bft) W 280 0 min 0,000 mm 21 W/m 1,1 C -0,3 C 27,4 km/h (4 Bft) 100,00 %
09.01.2012 15:55 5,4 C 74 % 1024,4 hPa 0,0 l/m 19,7 km/h (3 Bft) W-NW 290 0 min 0,000 mm 18 W/m 1,1 C -2,5 C 30,6 km/h (5 Bft) 100,00 %
09.01.2012 15:56 5,4 C 74 % 1024,4 hPa 0,0 l/m 17,5 km/h (3 Bft) W-NW 287 0 min 0,000 mm 16 W/m 1,1 C -1,6 C 25,7 km/h (4 Bft) 100,00 %
09.01.2012 15:57 5,4 C 74 % 1024,6 hPa 0,0 l/m 21,5 km/h (4 Bft) W 279 0 min 0,000 mm 16 W/m 1,1 C -3,2 C 27,4 km/h (4 Bft) 100,00 %
09.01.2012 15:58 5,4 C 74 % 1024,6 hPa 0,0 l/m 14,7 km/h (3 Bft) W 268 0 min 0,000 mm 16 W/m 1,1 C -0,3 C 22,5 km/h (4 Bft) 100,00 %
09.01.2012 15:59 5,4 C 74 % 1024,5 hPa 0,0 l/m 13,5 km/h (3 Bft) W-NW 294 0 min 0,000 mm 14 W/m 1,1 C 0,4 C 19,3 km/h (3 Bft) 100,00 %
09.01.2012 16:00 5,4 C 74 % 1024,6 hPa 0,0 l/m 5,9 km/h (2 Bft) W-NW 294 0 min 0,000 mm 12 W/m 1,1 C 5,4 C 9,7 km/h (2 Bft) 100,00 %
09.01.2012 16:01 5,4 C 74 % 1024,6 hPa 0,0 l/m 13,2 km/h (3 Bft) W 281 0 min 0,000 mm 11 W/m 1,1 C 0,5 C 19,3 km/h (3 Bft) 100,00 %
09.01.2012 16:02 5,4 C 74 % 1024,6 hPa 0,0 l/m 15,1 km/h (3 Bft) W 270 0 min 0,000 mm 9 W/m 1,1 C -0,5 C 25,7 km/h (4 Bft) 100,00 %
09.01.2012 16:03 5,4 C 74 % 1024,6 hPa 0,0 l/m 14,6 km/h (3 Bft) W-NW 299 0 min 0,000 mm 7 W/m 1,1 C -0,2 C 24,1 km/h (4 Bft) 100,00 %
09.01.2012 16:04 5,4 C 74 % 1024,6 hPa 0,0 l/m 19,0 km/h (3 Bft) W-SW 249 0 min 0,000 mm 7 W/m 1,1 C -2,3 C 27,4 km/h (4 Bft) 100,00 %
09.01.2012 16:05 5,4 C 74 % 1024,6 hPa 0,0 l/m 18,4 km/h (3 Bft) W-NW 298 0 min 0,000 mm 7 W/m 1,1 C -2,0 C 24,1 km/h (4 Bft) 100,00 %
09.01.2012 16:06 5,4 C 74 % 1024,6 hPa 0,0 l/m 14,8 km/h (3 Bft) W 280 0 min 0,000 mm 5 W/m 1,1 C -0,3 C 29,0 km/h (5 Bft) 100,00 %
09.01.2012 16:07 5,3 C 74 % 1024,6 hPa 0,0 l/m 10,8 km/h (2 Bft) W 281 0 min 0,000 mm 5 W/m 1,0 C 1,9 C 16,1 km/h (3 Bft) 100,00 %
09.01.2012 16:08 5,3 C 74 % 1024,6 hPa 0,0 l/m 11,7 km/h (2 Bft) W-NW 294 0 min 0,000 mm 5 W/m 1,0 C 1,3 C 17,7 km/h (3 Bft) 100,00 %
09.01.2012 16:09 5,3 C 74 % 1024,7 hPa 0,0 l/m 19,7 km/h (3 Bft) W-NW 293 0 min 0,000 mm 5 W/m 1,0 C -2,7 C 24,1 km/h (4 Bft) 100,00 %
09.01.2012 16:10 5,3 C 74 % 1024,6 hPa 0,0 l/m 17,6 km/h (3 Bft) W-NW 302 0 min 0,000 mm 5 W/m 1,0 C -1,8 C 25,7 km/h (4 Bft) 100,00 %
09.01.2012 16:11 5,3 C 74 % 1024,6 hPa 0,0 l/m 15,2 km/h (3 Bft) W-NW 288 0 min 0,000 mm 5 W/m 1,0 C -0,7 C 22,5 km/h (4 Bft) 100,00 %
09.01.2012 16:12 5,3 C 74 % 1024,6 hPa 0,0 l/m 12,6 km/h (3 Bft) NW 309 0 min 0,000 mm 5 W/m 1,0 C 0,7 C 20,9 km/h (4 Bft) 100,00 %
09.01.2012 16:13 5,3 C 74 % 1024,6 hPa 0,0 l/m 15,0 km/h (3 Bft) W-NW 298 0 min 0,000 mm 5 W/m 1,0 C -0,6 C 25,7 km/h (4 Bft) 100,00 %
09.01.2012 16:14 5,3 C 74 % 1024,6 hPa 0,0 l/m 10,8 km/h (2 Bft) W-NW 295 0 min 0,000 mm 5 W/m 1,0 C 1,9 C 19,3 km/h (3 Bft) 100,00 %
09.01.2012 16:15 5,3 C 74 % 1024,6 hPa 0,0 l/m 8,6 km/h (2 Bft) W-NW 302 0 min 0,000 mm 5 W/m 1,0 C 3,4 C 17,7 km/h (3 Bft) 100,00 %
09.01.2012 16:16 5,3 C 74 % 1024,7 hPa 0,0 l/m 15,0 km/h (3 Bft) W 281 0 min 0,000 mm 0 W/m 1,0 C -0,6 C 22,5 km/h (4 Bft) 100,00 %
09.01.2012 16:17 5,3 C 74 % 1024,6 hPa 0,0 l/m 14,7 km/h (3 Bft) W-NW 283 0 min 0,000 mm 0 W/m 1,0 C -0,4 C 20,9 km/h (4 Bft) 100,00 %
09.01.2012 16:18 5,3 C 74 % 1024,7 hPa 0,0 l/m 12,9 km/h (3 Bft) W 280 0 min 0,000 mm 0 W/m 1,0 C 0,6 C 24,1 km/h (4 Bft) 100,00 %
09.01.2012 16:19 5,3 C 74 % 1024,7 hPa 0,0 l/m 13,5 km/h (3 Bft) W-NW 294 0 min 0,000 mm 0 W/m 1,0 C 0,2 C 22,5 km/h (4 Bft) 100,00 %
09.01.2012 16:20 5,3 C 74 % 1024,6 hPa 0,0 l/m 9,0 km/h (2 Bft) W-NW 284 0 min 0,000 mm 0 W/m 1,0 C 3,1 C 14,5 km/h (3 Bft) 100,00 %
09.01.2012 16:21 5,3 C 74 % 1024,6 hPa 0,0 l/m 11,1 km/h (2 Bft) W 281 0 min 0,000 mm 0 W/m 1,0 C 1,7 C 17,7 km/h (3 Bft) 100,00 %
09.01.2012 16:22 5,3 C 74 % 1024,6 hPa 0,0 l/m 7,0 km/h (2 Bft) W 277 0 min 0,000 mm 0 W/m 1,0 C 4,8 C 11,3 km/h (2 Bft) 100,00 %
09.01.2012 16:23 5,3 C 74 % 1024,7 hPa 0,0 l/m 7,2 km/h (2 Bft) W-NW 289 0 min 0,000 mm 0 W/m 1,0 C 4,6 C 11,3 km/h (2 Bft) 100,00 %
09.01.2012 16:24 5,3 C 74 % 1024,7 hPa 0,0 l/m 6,8 km/h (2 Bft) W-NW 286 0 min 0,000 mm 0 W/m 1,0 C 5,0 C 19,3 km/h (3 Bft) 100,00 %
09.01.2012 16:25 5,2 C 74 % 1024,7 hPa 0,0 l/m 11,8 km/h (2 Bft) W 276 0 min 0,000 mm 0 W/m 1,0 C 1,1 C 17,7 km/h (3 Bft) 100,00 %
09.01.2012 16:26 5,2 C 74 % 1024,6 hPa 0,0 l/m 10,1 km/h (2 Bft) W-NW 300 0 min 0,000 mm 0 W/m 1,0 C 2,2 C 17,7 km/h (3 Bft) 100,00 %
09.01.2012 16:27 5,2 C 74 % 1024,7 hPa 0,0 l/m 11,8 km/h (2 Bft) W 276 0 min 0,000 mm 0 W/m 1,0 C 1,1 C 19,3 km/h (3 Bft) 100,00 %
09.01.2012 16:28 5,2 C 74 % 1024,7 hPa 0,0 l/m 16,2 km/h (3 Bft) W 261 0 min 0,000 mm 0 W/m 1,0 C -1,3 C 29,0 km/h (5 Bft) 100,00 %
09.01.2012 16:29 5,2 C 74 % 1024,7 hPa 0,0 l/m 9,1 km/h (2 Bft) W-NW 302 0 min 0,000 mm 0 W/m 1,0 C 2,9 C 16,1 km/h (3 Bft) 100,00 %
09.01.2012 16:30 5,2 C 74 % 1024,7 hPa 0,0 l/m 12,1 km/h (2 Bft) W-NW 286 0 min 0,000 mm 0 W/m 1,0 C 0,9 C 20,9 km/h (4 Bft) 100,00 %
09.01.2012 16:31 5,2 C 74 % 1024,7 hPa 0,0 l/m 14,0 km/h (3 Bft) N-NW 330 0 min 0,000 mm 0 W/m 1,0 C -0,2 C 20,9 km/h (4 Bft) 100,00 %
09.01.2012 16:32 5,2 C 74 % 1024,7 hPa 0,0 l/m 7,3 km/h (2 Bft) W-NW 298 0 min 0,000 mm 0 W/m 1,0 C 4,4 C 9,7 km/h (2 Bft) 100,00 %
09.01.2012 16:33 5,2 C 74 % 1024,7 hPa 0,0 l/m 10,7 km/h (2 Bft) W-NW 287 0 min 0,000 mm 0 W/m 1,0 C 1,8 C 19,3 km/h (3 Bft) 100,00 %
09.01.2012 16:34 5,2 C 74 % 1024,7 hPa 0,0 l/m 7,2 km/h (2 Bft) NW 310 0 min 0,000 mm 0 W/m 1,0 C 4,5 C 16,1 km/h (3 Bft) 100,00 %
09.01.2012 16:35 5,2 C 74 % 1024,7 hPa 0,0 l/m 13,0 km/h (3 Bft) NW 304 0 min 0,000 mm 0 W/m 1,0 C 0,4 C 20,9 km/h (4 Bft) 100,00 %
09.01.2012 16:36 5,2 C 74 % 1024,7 hPa 0,0 l/m 8,3 km/h (2 Bft) W-NW 284 0 min 0,000 mm 0 W/m 1,0 C 3,6 C 16,1 km/h (3 Bft) 100,00 %
09.01.2012 16:37 5,2 C 73 % 1024,8 hPa 0,0 l/m 14,2 km/h (3 Bft) W 272 0 min 0,000 mm 0 W/m 0,8 C -0,3 C 24,1 km/h (4 Bft) 100,00 %
09.01.2012 16:38 5,2 C 73 % 1024,8 hPa 0,0 l/m 12,9 km/h (3 Bft) W-NW 294 0 min 0,000 mm 0 W/m 0,8 C 0,5 C 19,3 km/h (3 Bft) 100,00 %
09.01.2012 16:39 5,2 C 73 % 1024,8 hPa 0,0 l/m 9,4 km/h (2 Bft) W-NW 294 0 min 0,000 mm 0 W/m 0,8 C 2,7 C 16,1 km/h (3 Bft) 100,00 %
09.01.2012 16:40 5,2 C 74 % 1024,8 hPa 0,0 l/m 7,0 km/h (2 Bft) W-NW 293 0 min 0,000 mm 0 W/m 1,0 C 4,7 C 11,3 km/h (2 Bft) 100,00 %
09.01.2012 16:41 5,2 C 74 % 1024,8 hPa 0,0 l/m 10,4 km/h (2 Bft) W 263 0 min 0,000 mm 0 W/m 1,0 C 2,0 C 22,5 km/h (4 Bft) 100,00 %
09.01.2012 16:42 5,2 C 74 % 1024,9 hPa 0,0 l/m 11,7 km/h (2 Bft) W-NW 287 0 min 0,000 mm 0 W/m 1,0 C 1,2 C 16,1 km/h (3 Bft) 100,00 %
09.01.2012 16:43 5,2 C 73 % 1024,8 hPa 0,0 l/m 10,6 km/h (2 Bft) NW 307 0 min 0,000 mm 0 W/m 0,8 C 1,9 C 20,9 km/h (4 Bft) 100,00 %
09.01.2012 16:44 5,1 C 73 % 1024,8 hPa 0,0 l/m 15,5 km/h (3 Bft) W 261 0 min 0,000 mm 0 W/m 0,7 C -1,1 C 20,9 km/h (4 Bft) 100,00 %
09.01.2012 16:45 5,1 C 73 % 1024,8 hPa 0,0 l/m 12,9 km/h (3 Bft) W 267 0 min 0,000 mm 0 W/m 0,7 C 0,3 C 22,5 km/h (4 Bft) 100,00 %
09.01.2012 16:46 5,1 C 73 % 1024,8 hPa 0,0 l/m 6,9 km/h (2 Bft) W-NW 300 0 min 0,000 mm 0 W/m 0,7 C 4,7 C 11,3 km/h (2 Bft) 100,00 %
09.01.2012 16:47 5,1 C 73 % 1024,7 hPa 0,0 l/m 12,9 km/h (3 Bft) W-NW 292 0 min 0,000 mm 0 W/m 0,7 C 0,3 C 20,9 km/h (4 Bft) 100,00 %
09.01.2012 16:48 5,1 C 73 % 1024,8 hPa 0,0 l/m 12,8 km/h (3 Bft) W 274 0 min 0,000 mm 0 W/m 0,7 C 0,4 C 19,3 km/h (3 Bft) 100,00 %
09.01.2012 16:49 5,1 C 73 % 1024,8 hPa 0,0 l/m 8,9 km/h (2 Bft) W 273 0 min 0,000 mm 0 W/m 0,7 C 3,0 C 16,1 km/h (3 Bft) 100,00 %
09.01.2012 16:50 5,1 C 73 % 1024,8 hPa 0,0 l/m 8,7 km/h (2 Bft) W-NW 297 0 min 0,000 mm 0 W/m 0,7 C 3,1 C 16,1 km/h (3 Bft) 100,00 %
09.01.2012 16:51 5,1 C 73 % 1024,8 hPa 0,0 l/m 15,5 km/h (3 Bft) W-SW 242 0 min 0,000 mm 0 W/m 0,7 C -1,1 C 20,9 km/h (4 Bft) 100,00 %
09.01.2012 16:52 5,1 C 73 % 1024,8 hPa 0,0 l/m 9,9 km/h (2 Bft) W-NW 294 0 min 0,000 mm 0 W/m 0,7 C 2,3 C 14,5 km/h (3 Bft) 100,00 %
09.01.2012 16:53 5,1 C 73 % 1024,7 hPa 0,0 l/m 14,2 km/h (3 Bft) W-NW 298 0 min 0,000 mm 0 W/m 0,7 C -0,4 C 20,9 km/h (4 Bft) 100,00 %
09.01.2012 16:54 5,1 C 73 % 1024,7 hPa 0,0 l/m 9,3 km/h (2 Bft) W 281 0 min 0,000 mm 0 W/m 0,7 C 2,7 C 16,1 km/h (3 Bft) 100,00 %
09.01.2012 16:55 5,1 C 74 % 1024,8 hPa 0,0 l/m 6,7 km/h (2 Bft) W-NW 298 0 min 0,000 mm 0 W/m 0,9 C 4,9 C 11,3 km/h (2 Bft) 100,00 %
09.01.2012 16:56 5,1 C 73 % 1024,8 hPa 0,0 l/m 8,9 km/h (2 Bft) W-NW 290 0 min 0,000 mm 0 W/m 0,7 C 3,0 C 14,5 km/h (3 Bft) 100,00 %
09.01.2012 16:57 5,0 C 74 % 1024,8 hPa 0,0 l/m 8,3 km/h (2 Bft) W-NW 284 0 min 0,000 mm 0 W/m 0,8 C 3,4 C 11,3 km/h (2 Bft) 100,00 %
09.01.2012 16:58 5,0 C 74 % 1024,8 hPa 0,0 l/m 9,7 km/h (2 Bft) W 276 0 min 0,000 mm 0 W/m 0,8 C 2,3 C 16,1 km/h (3 Bft) 100,00 %
09.01.2012 16:59 5,0 C 74 % 1024,8 hPa 0,0 l/m 8,5 km/h (2 Bft) W-NW 291 0 min 0,000 mm 0 W/m 0,8 C 3,2 C 16,1 km/h (3 Bft) 100,00 %
09.01.2012 17:00 4,9 C 73 % 1024,8 hPa 0,0 l/m 13,1 km/h (3 Bft) W-NW 288 0 min 0,000 mm 0 W/m 0,5 C -0,0 C 19,3 km/h (3 Bft) 100,00 %
09.01.2012 17:01 5,0 C 73 % 1024,8 hPa 0,0 l/m 11,1 km/h (2 Bft) W-NW 290 0 min 0,000 mm 0 W/m 0,6 C 1,3 C 19,3 km/h (3 Bft) 100,00 %
09.01.2012 17:02 5,0 C 73 % 1024,8 hPa 0,0 l/m 8,2 km/h (2 Bft) W-NW 291 0 min 0,000 mm 0 W/m 0,6 C 3,4 C 14,5 km/h (3 Bft) 100,00 %
09.01.2012 17:03 4,9 C 73 % 1024,8 hPa 0,0 l/m 7,7 km/h (2 Bft) W-NW 283 0 min 0,000 mm 0 W/m 0,5 C 3,8 C 12,9 km/h (3 Bft) 100,00 %
09.01.2012 17:04 4,9 C 73 % 1024,8 hPa 0,0 l/m 6,9 km/h (2 Bft) W 277 0 min 0,000 mm 0 W/m 0,5 C 4,5 C 11,3 km/h (2 Bft) 100,00 %
09.01.2012 17:05 4,9 C 73 % 1024,8 hPa 0,0 l/m 15,3 km/h (3 Bft) W 264 0 min 0,000 mm 0 W/m 0,5 C -1,2 C 24,1 km/h (4 Bft) 100,00 %
09.01.2012 17:06 4,9 C 73 % 1024,8 hPa 0,0 l/m 8,7 km/h (2 Bft) W-NW 302 0 min 0,000 mm 0 W/m 0,5 C 2,9 C 16,1 km/h (3 Bft) 100,00 %
09.01.2012 17:07 4,9 C 73 % 1024,8 hPa 0,0 l/m 7,3 km/h (2 Bft) W-NW 296 0 min 0,000 mm 0 W/m 0,5 C 4,1 C 14,5 km/h (3 Bft) 100,00 %
09.01.2012 17:08 4,9 C 73 % 1024,8 hPa 0,0 l/m 7,2 km/h (2 Bft) W-NW 292 0 min 0,000 mm 0 W/m 0,5 C 4,2 C 14,5 km/h (3 Bft) 100,00 %
09.01.2012 17:09 4,9 C 73 % 1024,9 hPa 0,0 l/m 4,6 km/h (1 Bft) W-NW 296 0 min 0,000 mm 0 W/m 0,5 C 4,9 C 8,0 km/h (2 Bft) 100,00 %
09.01.2012 17:10 4,9 C 73 % 1024,9 hPa 0,0 l/m 5,0 km/h (1 Bft) W-NW 296 0 min 0,000 mm 0 W/m 0,5 C 4,9 C 8,0 km/h (2 Bft) 100,00 %
09.01.2012 17:11 4,9 C 73 % 1024,9 hPa 0,0 l/m 6,5 km/h (2 Bft) W-NW 283 0 min 0,000 mm 0 W/m 0,5 C 4,8 C 11,3 km/h (2 Bft) 100,00 %
09.01.2012 17:12 4,9 C 73 % 1024,9 hPa 0,0 l/m 9,2 km/h (2 Bft) NW 306 0 min 0,000 mm 0 W/m 0,5 C 2,5 C 14,5 km/h (3 Bft) 100,00 %
09.01.2012 17:13 4,9 C 73 % 1024,9 hPa 0,0 l/m 13,4 km/h (3 Bft) W-NW 284 0 min 0,000 mm 0 W/m 0,5 C -0,2 C 17,7 km/h (3 Bft) 100,00 %
09.01.2012 17:14 4,9 C 73 % 1024,9 hPa 0,0 l/m 9,3 km/h (2 Bft) W-NW 295 0 min 0,000 mm 0 W/m 0,5 C 2,5 C 14,5 km/h (3 Bft) 100,00 %
09.01.2012 17:15 4,9 C 73 % 1025,0 hPa 0,0 l/m 5,6 km/h (1 Bft) W 275 0 min 0,000 mm 0 W/m 0,5 C 4,9 C 9,7 km/h (2 Bft) 100,00 %
09.01.2012 17:16 4,9 C 73 % 1025,0 hPa 0,0 l/m 11,9 km/h (2 Bft) W-SW 256 0 min 0,000 mm 0 W/m 0,5 C 0,7 C 19,3 km/h (3 Bft) 100,00 %
09.01.2012 17:17 4,9 C 73 % 1025,0 hPa 0,0 l/m 9,6 km/h (2 Bft) W-NW 300 0 min 0,000 mm 0 W/m 0,5 C 2,2 C 16,1 km/h (3 Bft) 100,00 %
09.01.2012 17:18 4,9 C 73 % 1025,0 hPa 0,0 l/m 13,9 km/h (3 Bft) W 273 0 min 0,000 mm 0 W/m 0,5 C -0,5 C 20,9 km/h (4 Bft) 100,00 %
09.01.2012 17:19 4,9 C 73 % 1025,0 hPa 0,0 l/m 8,7 km/h (2 Bft) W-NW 291 0 min 0,000 mm 0 W/m 0,5 C 2,9 C 14,5 km/h (3 Bft) 100,00 %
09.01.2012 17:20 4,9 C 73 % 1025,0 hPa 0,0 l/m 9,1 km/h (2 Bft) W-NW 288 0 min 0,000 mm 0 W/m 0,5 C 2,6 C 12,9 km/h (3 Bft) 100,00 %
09.01.2012 17:21 4,9 C 73 % 1025,1 hPa 0,0 l/m 11,8 km/h (2 Bft) W-NW 296 0 min 0,000 mm 0 W/m 0,5 C 0,8 C 19,3 km/h (3 Bft) 100,00 %
09.01.2012 17:22 4,9 C 73 % 1025,1 hPa 0,0 l/m 10,3 km/h (2 Bft) W-NW 296 0 min 0,000 mm 0 W/m 0,5 C 1,8 C 20,9 km/h (4 Bft) 100,00 %
09.01.2012 17:23 4,9 C 73 % 1025,0 hPa 0,0 l/m 13,6 km/h (3 Bft) W 269 0 min 0,000 mm 0 W/m 0,5 C -0,3 C 22,5 km/h (4 Bft) 100,00 %
09.01.2012 17:24 4,9 C 73 % 1025,0 hPa 0,0 l/m 9,6 km/h (2 Bft) W 271 0 min 0,000 mm 0 W/m 0,5 C 2,2 C 12,9 km/h (3 Bft) 100,00 %
09.01.2012 17:25 4,9 C 73 % 1025,0 hPa 0,0 l/m 10,6 km/h (2 Bft) W 273 0 min 0,000 mm 0 W/m 0,5 C 1,5 C 20,9 km/h (4 Bft) 100,00 %
09.01.2012 17:26 4,9 C 73 % 1025,0 hPa 0,0 l/m 10,4 km/h (2 Bft) W-NW 288 0 min 0,000 mm 0 W/m 0,5 C 1,7 C 17,7 km/h (3 Bft) 100,00 %
09.01.2012 17:27 4,9 C 73 % 1025,0 hPa 0,0 l/m 9,0 km/h (2 Bft) W 271 0 min 0,000 mm 0 W/m 0,5 C 2,7 C 16,1 km/h (3 Bft) 100,00 %
09.01.2012 17:28 4,9 C 73 % 1025,0 hPa 0,0 l/m 12,7 km/h (3 Bft) W-NW 288 0 min 0,000 mm 0 W/m 0,5 C 0,2 C 22,5 km/h (4 Bft) 100,00 %
09.01.2012 17:29 4,9 C 73 % 1025,0 hPa 0,0 l/m 13,4 km/h (3 Bft) W-NW 286 0 min 0,000 mm 0 W/m 0,5 C -0,2 C 25,7 km/h (4 Bft) 96,00 %
09.01.2012 17:30 4,9 C 72 % 1025,1 hPa 0,0 l/m 14,6 km/h (3 Bft) W 272 0 min 0,000 mm 0 W/m 0,3 C -0,8 C 22,5 km/h (4 Bft) 100,00 %
09.01.2012 17:31 4,9 C 72 % 1025,1 hPa 0,0 l/m 8,3 km/h (2 Bft) W 271 0 min 0,000 mm 0 W/m 0,3 C 3,3 C 16,1 km/h (3 Bft) 100,00 %
09.01.2012 17:32 4,9 C 72 % 1025,0 hPa 0,0 l/m 7,8 km/h (2 Bft) W 273 0 min 0,000 mm 0 W/m 0,3 C 3,7 C 14,5 km/h (3 Bft) 100,00 %
09.01.2012 17:33 4,9 C 72 % 1025,0 hPa 0,0 l/m 7,7 km/h (2 Bft) W-NW 296 0 min 0,000 mm 0 W/m 0,3 C 3,8 C 14,5 km/h (3 Bft) 100,00 %
09.01.2012 17:34 4,9 C 72 % 1025,1 hPa 0,0 l/m 12,7 km/h (3 Bft) W 267 0 min 0,000 mm 0 W/m 0,3 C 0,2 C 20,9 km/h (4 Bft) 100,00 %
09.01.2012 17:35 4,9 C 72 % 1025,1 hPa 0,0 l/m 12,8 km/h (3 Bft) W-NW 286 0 min 0,000 mm 0 W/m 0,3 C 0,2 C 22,5 km/h (4 Bft) 100,00 %
09.01.2012 17:36 4,9 C 72 % 1025,1 hPa 0,0 l/m 8,2 km/h (2 Bft) W 267 0 min 0,000 mm 0 W/m 0,3 C 3,3 C 11,3 km/h (2 Bft) 100,00 %
09.01.2012 17:37 4,9 C 72 % 1025,0 hPa 0,0 l/m 4,9 km/h (1 Bft) W 275 0 min 0,000 mm 0 W/m 0,3 C 4,9 C 14,5 km/h (3 Bft) 100,00 %
09.01.2012 17:38 4,9 C 72 % 1025,0 hPa 0,0 l/m 10,8 km/h (2 Bft) W-NW 290 0 min 0,000 mm 0 W/m 0,3 C 1,4 C 19,3 km/h (3 Bft) 100,00 %
09.01.2012 17:39 4,9 C 72 % 1025,1 hPa 0,0 l/m 5,8 km/h (2 Bft) W 279 0 min 0,000 mm 0 W/m 0,3 C 4,9 C 9,7 km/h (2 Bft) 95,83 %
09.01.2012 17:40 4,9 C 72 % 1025,1 hPa 0,0 l/m 13,3 km/h (3 Bft) W-NW 292 0 min 0,000 mm 0 W/m 0,3 C -0,1 C 20,9 km/h (4 Bft) 100,00 %
09.01.2012 17:41 4,9 C 72 % 1025,1 hPa 0,0 l/m 10,2 km/h (2 Bft) W 271 0 min 0,000 mm 0 W/m 0,3 C 1,8 C 14,5 km/h (3 Bft) 100,00 %
09.01.2012 17:42 4,9 C 72 % 1025,1 hPa 0,0 l/m 5,9 km/h (2 Bft) W-NW 286 0 min 0,000 mm 0 W/m 0,3 C 4,9 C 9,7 km/h (2 Bft) 100,00 %
09.01.2012 17:43 4,9 C 72 % 1025,1 hPa 0,0 l/m 6,2 km/h (2 Bft) W-NW 287 0 min 0,000 mm 0 W/m 0,3 C 4,9 C 9,7 km/h (2 Bft) 100,00 %
09.01.2012 17:44 4,9 C 72 % 1025,1 hPa 0,0 l/m 8,6 km/h (2 Bft) W-NW 298 0 min 0,000 mm 0 W/m 0,3 C 3,0 C 16,1 km/h (3 Bft) 100,00 %
09.01.2012 17:45 4,9 C 72 % 1025,1 hPa 0,0 l/m 14,4 km/h (3 Bft) W-NW 290 0 min 0,000 mm 0 W/m 0,3 C -0,7 C 19,3 km/h (3 Bft) 100,00 %
09.01.2012 17:46 4,9 C 72 % 1025,1 hPa 0,0 l/m 12,7 km/h (3 Bft) W 261 0 min 0,000 mm 0 W/m 0,3 C 0,2 C 17,7 km/h (3 Bft) 100,00 %
09.01.2012 17:47 4,9 C 71 % 1025,1 hPa 0,0 l/m 8,6 km/h (2 Bft) W 279 0 min 0,000 mm 0 W/m 0,1 C 3,0 C 11,3 km/h (2 Bft) 100,00 %
09.01.2012 17:48 4,9 C 71 % 1025,1 hPa 0,0 l/m 12,5 km/h (3 Bft) W-NW 300 0 min 0,000 mm 0 W/m 0,1 C 0,3 C 17,7 km/h (3 Bft) 100,00 %
09.01.2012 17:49 4,9 C 71 % 1025,2 hPa 0,0 l/m 9,1 km/h (2 Bft) W-NW 290 0 min 0,000 mm 0 W/m 0,1 C 2,6 C 17,7 km/h (3 Bft) 100,00 %
09.01.2012 17:50 4,9 C 71 % 1025,2 hPa 0,0 l/m 5,1 km/h (1 Bft) W-NW 287 0 min 0,000 mm 0 W/m 0,1 C 4,9 C 8,0 km/h (2 Bft) 100,00 %
09.01.2012 17:51 4,9 C 71 % 1025,2 hPa 0,0 l/m 5,2 km/h (1 Bft) W-NW 294 0 min 0,000 mm 0 W/m 0,1 C 4,9 C 8,0 km/h (2 Bft) 100,00 %
09.01.2012 17:52 4,9 C 71 % 1025,2 hPa 0,0 l/m 12,9 km/h (3 Bft) W-NW 286 0 min 0,000 mm 0 W/m 0,1 C 0,1 C 20,9 km/h (4 Bft) 100,00 %
09.01.2012 17:53 5,0 C 71 % 1025,2 hPa 0,0 l/m 6,0 km/h (2 Bft) W-NW 292 0 min 0,000 mm 0 W/m 0,2 C 5,0 C 9,7 km/h (2 Bft) 100,00 %
09.01.2012 17:54 5,0 C 71 % 1025,2 hPa 0,0 l/m 5,9 km/h (2 Bft) W-NW 290 0 min 0,000 mm 0 W/m 0,2 C 5,0 C 9,7 km/h (2 Bft) 100,00 %
09.01.2012 17:55 5,0 C 71 % 1025,2 hPa 0,0 l/m 13,4 km/h (3 Bft) W 281 0 min 0,000 mm 0 W/m 0,2 C -0,1 C 20,9 km/h (4 Bft) 100,00 %
09.01.2012 17:56 5,0 C 71 % 1025,2 hPa 0,0 l/m 14,1 km/h (3 Bft) W-NW 298 0 min 0,000 mm 0 W/m 0,2 C -0,5 C 22,5 km/h (4 Bft) 100,00 %
09.01.2012 17:57 5,0 C 71 % 1025,1 hPa 0,0 l/m 12,0 km/h (2 Bft) W-NW 296 0 min 0,000 mm 0 W/m 0,2 C 0,8 C 17,7 km/h (3 Bft) 100,00 %
09.01.2012 17:58 5,0 C 71 % 1025,1 hPa 0,0 l/m 7,9 km/h (2 Bft) W-NW 296 0 min 0,000 mm 0 W/m 0,2 C 3,7 C 14,5 km/h (3 Bft) 100,00 %
09.01.2012 17:59 5,0 C 71 % 1025,1 hPa 0,0 l/m 12,5 km/h (3 Bft) W-NW 298 0 min 0,000 mm 0 W/m 0,2 C 0,5 C 19,3 km/h (3 Bft) 100,00 %
09.01.2012 18:00 5,0 C 71 % 1025,2 hPa 0,0 l/m 8,6 km/h (2 Bft) W-NW 295 0 min 0,000 mm 0 W/m 0,2 C 3,1 C 16,1 km/h (3 Bft) 100,00 %
09.01.2012 18:01 5,0 C 71 % 1025,1 hPa 0,0 l/m 9,1 km/h (2 Bft) W-NW 292 0 min 0,024 mm 0 W/m 0,2 C 2,7 C 20,9 km/h (4 Bft) 100,00 %
09.01.2012 18:02 5,0 C 71 % 1025,1 hPa 0,0 l/m 10,0 km/h (2 Bft) W-NW 291 0 min 0,000 mm 0 W/m 0,2 C 2,1 C 17,7 km/h (3 Bft) 100,00 %
09.01.2012 18:03 5,1 C 71 % 1025,1 hPa 0,0 l/m 10,3 km/h (2 Bft) W-NW 286 0 min 0,000 mm 0 W/m 0,3 C 2,0 C 17,7 km/h (3 Bft) 100,00 %
09.01.2012 18:04 5,1 C 71 % 1025,2 hPa 0,0 l/m 9,3 km/h (2 Bft) W-NW 288 0 min 0,000 mm 0 W/m 0,3 C 2,7 C 16,1 km/h (3 Bft) 100,00 %
09.01.2012 18:05 5,1 C 71 % 1025,1 hPa 0,0 l/m 4,7 km/h (1 Bft) W-NW 283 0 min 0,000 mm 0 W/m 0,3 C 5,1 C 8,0 km/h (2 Bft) 100,00 %
09.01.2012 18:06 5,0 C 71 % 1025,2 hPa 0,0 l/m 8,9 km/h (2 Bft) W-NW 290 0 min 0,000 mm 0 W/m 0,2 C 2,9 C 17,7 km/h (3 Bft) 100,00 %
09.01.2012 18:07 5,1 C 71 % 1025,2 hPa 0,0 l/m 8,7 km/h (2 Bft) W-NW 287 0 min 0,000 mm 0 W/m 0,3 C 3,1 C 16,1 km/h (3 Bft) 100,00 %
09.01.2012 18:08 5,1 C 71 % 1025,1 hPa 0,0 l/m 9,8 km/h (2 Bft) W-NW 297 0 min 0,000 mm 0 W/m 0,3 C 2,3 C 17,7 km/h (3 Bft) 100,00 %
09.01.2012 18:09 5,1 C 71 % 1025,2 hPa 0,0 l/m 4,5 km/h (1 Bft) W-NW 296 0 min 0,000 mm 0 W/m 0,3 C 5,1 C 6,4 km/h (2 Bft) 100,00 %
09.01.2012 18:10 5,1 C 71 % 1025,2 hPa 0,0 l/m 7,0 km/h (2 Bft) W-NW 302 0 min 0,000 mm 0 W/m 0,3 C 4,6 C 11,3 km/h (2 Bft) 100,00 %
09.01.2012 18:11 5,1 C 71 % 1025,2 hPa 0,0 l/m 7,6 km/h (2 Bft) W-NW 301 0 min 0,000 mm 0 W/m 0,3 C 4,0 C 16,1 km/h (3 Bft) 100,00 %
09.01.2012 18:12 5,0 C 71 % 1025,2 hPa 0,0 l/m 13,4 km/h (3 Bft) W-NW 297 0 min 0,000 mm 0 W/m 0,2 C -0,1 C 20,9 km/h (4 Bft) 100,00 %
09.01.2012 18:13 5,0 C 71 % 1025,2 hPa 0,0 l/m 13,3 km/h (3 Bft) W-NW 296 0 min 0,000 mm 0 W/m 0,2 C -0,0 C 19,3 km/h (3 Bft) 100,00 %
09.01.2012 18:14 5,1 C 70 % 1025,3 hPa 0,0 l/m 11,9 km/h (2 Bft) W-NW 296 0 min 0,000 mm 0 W/m 0,1 C 0,9 C 19,3 km/h (3 Bft) 100,00 %
09.01.2012 18:15 5,1 C 70 % 1025,3 hPa 0,0 l/m 10,9 km/h (2 Bft) W-NW 290 0 min 0,000 mm 0 W/m 0,1 C 1,6 C 17,7 km/h (3 Bft) 100,00 %
09.01.2012 18:16 5,1 C 70 % 1025,3 hPa 0,0 l/m 11,7 km/h (2 Bft) W-NW 283 0 min 0,000 mm 0 W/m 0,1 C 1,1 C 16,1 km/h (3 Bft) 100,00 %
09.01.2012 18:17 5,1 C 70 % 1025,3 hPa 0,0 l/m 13,2 km/h (3 Bft) NW 305 0 min 0,000 mm 0 W/m 0,1 C 0,2 C 24,1 km/h (4 Bft) 95,83 %
09.01.2012 18:18 5,1 C 70 % 1025,4 hPa 0,0 l/m 18,4 km/h (3 Bft) W-NW 296 0 min 0,000 mm 0 W/m 0,1 C -2,4 C 24,1 km/h (4 Bft) 100,00 %
09.01.2012 18:19 5,1 C 70 % 1025,4 hPa 0,0 l/m 14,3 km/h (3 Bft) W-NW 286 0 min 0,000 mm 0 W/m 0,1 C -0,4 C 20,9 km/h (4 Bft) 100,00 %
09.01.2012 18:20 5,1 C 70 % 1025,3 hPa 0,0 l/m 9,4 km/h (2 Bft) W-NW 290 0 min 0,000 mm 0 W/m 0,1 C 2,6 C 17,7 km/h (3 Bft) 100,00 %
09.01.2012 18:21 5,1 C 70 % 1025,4 hPa 0,0 l/m 11,1 km/h (2 Bft) W-NW 295 0 min 0,000 mm 0 W/m 0,1 C 1,4 C 14,5 km/h (3 Bft) 100,00 %
09.01.2012 18:22 5,1 C 70 % 1025,4 hPa 0,0 l/m 14,5 km/h (3 Bft) W-NW 297 0 min 0,000 mm 0 W/m 0,1 C -0,5 C 29,0 km/h (5 Bft) 100,00 %
09.01.2012 18:23 5,1 C 70 % 1025,4 hPa 0,0 l/m 11,2 km/h (2 Bft) W 277 0 min 0,000 mm 0 W/m 0,1 C 1,4 C 17,7 km/h (3 Bft) 100,00 %
09.01.2012 18:24 5,1 C 70 % 1025,3 hPa 0,0 l/m 9,2 km/h (2 Bft) W-NW 299 0 min 0,000 mm 0 W/m 0,1 C 2,8 C 19,3 km/h (3 Bft) 100,00 %
09.01.2012 18:25 5,1 C 70 % 1025,3 hPa 0,0 l/m 11,9 km/h (2 Bft) NW 317 0 min 0,000 mm 0 W/m 0,1 C 0,9 C 17,7 km/h (3 Bft) 100,00 %
09.01.2012 18:26 5,1 C 70 % 1025,4 hPa 0,0 l/m 8,9 km/h (2 Bft) NW 305 0 min 0,000 mm 0 W/m 0,1 C 3,0 C 14,5 km/h (3 Bft) 100,00 %
09.01.2012 18:27 5,1 C 70 % 1025,3 hPa 0,0 l/m 8,0 km/h (2 Bft) W-NW 292 0 min 0,000 mm 0 W/m 0,1 C 3,7 C 14,5 km/h (3 Bft) 100,00 %
09.01.2012 18:28 5,1 C 70 % 1025,3 hPa 0,0 l/m 6,9 km/h (2 Bft) W-NW 301 0 min 0,000 mm 0 W/m 0,1 C 4,7 C 9,7 km/h (2 Bft) 100,00 %
09.01.2012 18:29 5,1 C 70 % 1025,4 hPa 0,0 l/m 8,2 km/h (2 Bft) NW 306 0 min 0,000 mm 0 W/m 0,1 C 3,5 C 11,3 km/h (2 Bft) 100,00 %
09.01.2012 18:30 5,1 C 70 % 1025,4 hPa 0,0 l/m 7,6 km/h (2 Bft) NW 308 0 min 0,000 mm 0 W/m 0,1 C 4,0 C 11,3 km/h (2 Bft) 100,00 %
09.01.2012 18:31 5,1 C 70 % 1025,4 hPa 0,0 l/m 10,9 km/h (2 Bft) W-NW 288 0 min 0,000 mm 0 W/m 0,1 C 1,6 C 17,7 km/h (3 Bft) 100,00 %
09.01.2012 18:32 5,1 C 70 % 1025,4 hPa 0,0 l/m 6,9 km/h (2 Bft) W-NW 292 0 min 0,000 mm 0 W/m 0,1 C 4,7 C 9,7 km/h (2 Bft) 100,00 %
09.01.2012 18:33 5,1 C 70 % 1025,3 hPa 0,0 l/m 6,6 km/h (2 Bft) W-NW 298 0 min 0,000 mm 0 W/m 0,1 C 4,9 C 9,7 km/h (2 Bft) 100,00 %
09.01.2012 18:34 5,1 C 70 % 1025,3 hPa 0,0 l/m 3,8 km/h (1 Bft) W-NW 298 0 min 0,000 mm 0 W/m 0,1 C 5,1 C 6,4 km/h (2 Bft) 100,00 %
09.01.2012 18:35 5,1 C 70 % 1025,4 hPa 0,0 l/m 5,4 km/h (1 Bft) W-NW 298 0 min 0,000 mm 0 W/m 0,1 C 5,1 C 9,7 km/h (2 Bft) 100,00 %
09.01.2012 18:36 5,1 C 70 % 1025,4 hPa 0,0 l/m 7,0 km/h (2 Bft) NW 313 0 min 0,000 mm 0 W/m 0,1 C 4,6 C 11,3 km/h (2 Bft) 100,00 %
09.01.2012 18:37 5,1 C 70 % 1025,4 hPa 0,0 l/m 7,6 km/h (2 Bft) NW 308 0 min 0,000 mm 0 W/m 0,1 C 4,0 C 11,3 km/h (2 Bft) 100,00 %
09.01.2012 18:38 5,1 C 70 % 1025,4 hPa 0,0 l/m 5,1 km/h (1 Bft) NW 314 0 min 0,000 mm 0 W/m 0,1 C 5,1 C 8,0 km/h (2 Bft) 100,00 %
09.01.2012 18:39 5,1 C 70 % 1025,3 hPa 0,0 l/m 5,0 km/h (1 Bft) NW 315 0 min 0,000 mm 0 W/m 0,1 C 5,1 C 8,0 km/h (2 Bft) 100,00 %
09.01.2012 18:40 5,1 C 70 % 1025,4 hPa 0,0 l/m 2,4 km/h (1 Bft) NW 315 0 min 0,000 mm 0 W/m 0,1 C 5,1 C 6,4 km/h (2 Bft) 100,00 %
09.01.2012 18:41 5,1 C 70 % 1025,3 hPa 0,0 l/m 1,5 km/h (1 Bft) NW 306 0 min 0,000 mm 0 W/m 0,1 C 5,1 C 11,3 km/h (2 Bft) 100,00 %
09.01.2012 18:42 5,1 C 70 % 1025,4 hPa 0,0 l/m 7,8 km/h (2 Bft) W-NW 300 0 min 0,000 mm 0 W/m 0,1 C 3,9 C 11,3 km/h (2 Bft) 100,00 %
09.01.2012 18:43 5,0 C 70 % 1025,4 hPa 0,0 l/m 3,6 km/h (1 Bft) W-NW 300 0 min 0,000 mm 0 W/m -0,0 C 5,0 C 8,0 km/h (2 Bft) 100,00 %
09.01.2012 18:44 5,0 C 70 % 1025,4 hPa 0,0 l/m 2,6 km/h (1 Bft) W-NW 300 0 min 0,000 mm 0 W/m -0,0 C 5,0 C 8,0 km/h (2 Bft) 100,00 %
09.01.2012 18:45 5,0 C 70 % 1025,5 hPa 0,0 l/m 0,4 km/h (0 Bft) W-NW 300 0 min 0,000 mm 0 W/m -0,0 C 5,0 C 4,8 km/h (1 Bft) 100,00 %
09.01.2012 18:46 5,0 C 70 % 1025,5 hPa 0,0 l/m 0,0 km/h (0 Bft) W-NW 300 0 min 0,000 mm 0 W/m -0,0 C 5,0 C 0,0 km/h (0 Bft) 100,00 %
09.01.2012 18:47 5,0 C 70 % 1025,4 hPa 0,0 l/m 0,0 km/h (0 Bft) W-NW 299 0 min 0,000 mm 0 W/m -0,0 C 5,0 C 0,0 km/h (0 Bft) 100,00 %
09.01.2012 18:48 4,9 C 70 % 1025,4 hPa 0,0 l/m 0,0 km/h (0 Bft) W-NW 299 0 min 0,000 mm 0 W/m -0,1 C 4,9 C 0,0 km/h (0 Bft) 91,30 %
09.01.2012 18:49 4,9 C 70 % 1025,4 hPa 0,0 l/m 0,0 km/h (0 Bft) W-NW 300 0 min 0,000 mm 0 W/m -0,1 C 4,9 C 0,0 km/h (0 Bft) 100,00 %
09.01.2012 18:50 4,9 C 70 % 1025,4 hPa 0,0 l/m 3,4 km/h (1 Bft) W-NW 301 0 min 0,000 mm 0 W/m -0,1 C 4,9 C 11,3 km/h (2 Bft) 100,00 %
09.01.2012 18:51 4,9 C 70 % 1025,4 hPa 0,0 l/m 5,9 km/h (2 Bft) W-NW 298 0 min 0,000 mm 0 W/m -0,1 C 4,9 C 9,7 km/h (2 Bft) 100,00 %
09.01.2012 18:52 4,9 C 70 % 1025,4 hPa 0,0 l/m 9,2 km/h (2 Bft) W-NW 298 0 min 0,000 mm 0 W/m -0,1 C 2,5 C 12,9 km/h (3 Bft) 100,00 %
09.01.2012 18:53 4,9 C 70 % 1025,4 hPa 0,0 l/m 7,5 km/h (2 Bft) W-NW 289 0 min 0,000 mm 0 W/m -0,1 C 3,9 C 14,5 km/h (3 Bft) 100,00 %
09.01.2012 18:54 4,9 C 70 % 1025,4 hPa 0,0 l/m 10,4 km/h (2 Bft) W-NW 288 0 min 0,000 mm 0 W/m -0,1 C 1,7 C 19,3 km/h (3 Bft) 100,00 %
09.01.2012 18:55 4,9 C 70 % 1025,4 hPa 0,0 l/m 14,8 km/h (3 Bft) W-NW 287 0 min 0,000 mm 0 W/m -0,1 C -0,9 C 25,7 km/h (4 Bft) 100,00 %
09.01.2012 18:56 4,9 C 70 % 1025,5 hPa 0,0 l/m 9,7 km/h (2 Bft) W-SW 249 0 min 0,000 mm 0 W/m -0,1 C 2,2 C 20,9 km/h (4 Bft) 100,00 %
09.01.2012 18:57 4,9 C 70 % 1025,4 hPa 0,0 l/m 10,9 km/h (2 Bft) W-NW 303 0 min 0,000 mm 0 W/m -0,1 C 1,3 C 19,3 km/h (3 Bft) 100,00 %
09.01.2012 18:58 4,9 C 70 % 1025,4 hPa 0,0 l/m 14,7 km/h (3 Bft) W-NW 288 0 min 0,000 mm 0 W/m -0,1 C -0,9 C 20,9 km/h (4 Bft) 100,00 %
09.01.2012 18:59 4,9 C 70 % 1025,4 hPa 0,0 l/m 8,9 km/h (2 Bft) W 267 0 min 0,000 mm 0 W/m -0,1 C 2,8 C 14,5 km/h (3 Bft) 100,00 %
09.01.2012 19:00 4,9 C 70 % 1025,5 hPa 0,0 l/m 8,0 km/h (2 Bft) W-NW 283 0 min 0,000 mm 0 W/m -0,1 C 3,5 C 16,1 km/h (3 Bft) 100,00 %
09.01.2012 19:01 4,9 C 70 % 1025,5 hPa 0,0 l/m 7,7 km/h (2 Bft) W-NW 290 0 min 0,025 mm 0 W/m -0,1 C 3,8 C 14,5 km/h (3 Bft) 100,00 %
09.01.2012 19:02 4,9 C 70 % 1025,5 hPa 0,0 l/m 7,2 km/h (2 Bft) NW 305 0 min 0,001 mm 0 W/m -0,1 C 4,2 C 11,3 km/h (2 Bft) 100,00 %
09.01.2012 19:03 4,9 C 70 % 1025,5 hPa 0,0 l/m 4,9 km/h (1 Bft) W-NW 302 0 min 0,000 mm 0 W/m -0,1 C 4,9 C 11,3 km/h (2 Bft) 92,86 %
09.01.2012 19:04 4,9 C 70 % 1025,5 hPa 0,0 l/m 6,3 km/h (2 Bft) W-NW 284 0 min 0,000 mm 0 W/m -0,1 C 4,9 C 11,3 km/h (2 Bft) 100,00 %
09.01.2012 19:05 4,9 C 70 % 1025,5 hPa 0,0 l/m 9,7 km/h (2 Bft) W 278 0 min 0,000 mm 0 W/m -0,1 C 2,2 C 17,7 km/h (3 Bft) 100,00 %
09.01.2012 19:06 4,9 C 70 % 1025,5 hPa 0,0 l/m 8,0 km/h (2 Bft) W 280 0 min 0,000 mm 0 W/m -0,1 C 3,5 C 14,5 km/h (3 Bft) 100,00 %
09.01.2012 19:07 4,9 C 70 % 1025,5 hPa 0,0 l/m 9,0 km/h (2 Bft) W-NW 292 0 min 0,000 mm 0 W/m -0,1 C 2,7 C 14,5 km/h (3 Bft) 100,00 %
09.01.2012 19:08 4,9 C 71 % 1025,5 hPa 0,0 l/m 7,7 km/h (2 Bft) W-NW 295 0 min 0,000 mm 0 W/m 0,1 C 3,8 C 11,3 km/h (2 Bft) 100,00 %
09.01.2012 19:09 4,9 C 71 % 1025,5 hPa 0,0 l/m 5,7 km/h (1 Bft) W-NW 288 0 min 0,000 mm 0 W/m 0,1 C 4,9 C 9,7 km/h (2 Bft) 100,00 %
09.01.2012 19:10 4,9 C 71 % 1025,5 hPa 0,0 l/m 2,6 km/h (1 Bft) W-NW 287 0 min 0,000 mm 0 W/m 0,1 C 4,9 C 6,4 km/h (2 Bft) 100,00 %
09.01.2012 19:11 4,9 C 71 % 1025,6 hPa 0,0 l/m 4,0 km/h (1 Bft) W-NW 288 0 min 0,000 mm 0 W/m 0,1 C 4,9 C 9,7 km/h (2 Bft) 100,00 %
09.01.2012 19:12 4,9 C 71 % 1025,5 hPa 0,0 l/m 5,0 km/h (1 Bft) W-NW 292 0 min 0,000 mm 0 W/m 0,1 C 4,9 C 14,5 km/h (3 Bft) 100,00 %
09.01.2012 19:13 4,9 C 71 % 1025,5 hPa 0,0 l/m 6,0 km/h (2 Bft) W-NW 287 0 min 0,000 mm 0 W/m 0,1 C 4,9 C 9,7 km/h (2 Bft) 100,00 %
09.01.2012 19:14 4,9 C 71 % 1025,5 hPa 0,0 l/m 2,6 km/h (1 Bft) W-NW 287 0 min 0,000 mm 0 W/m 0,1 C 4,9 C 6,4 km/h (2 Bft) 100,00 %
09.01.2012 19:15 4,9 C 71 % 1025,5 hPa 0,0 l/m 5,0 km/h (1 Bft) W-NW 293 0 min 0,000 mm 0 W/m 0,1 C 4,9 C 8,0 km/h (2 Bft) 100,00 %
09.01.2012 19:16 4,9 C 71 % 1025,5 hPa 0,0 l/m 5,4 km/h (1 Bft) W-NW 296 0 min 0,000 mm 0 W/m 0,1 C 4,9 C 8,0 km/h (2 Bft) 100,00 %
09.01.2012 19:17 4,9 C 71 % 1025,5 hPa 0,0 l/m 0,0 km/h (0 Bft) W-NW 296 0 min 0,000 mm 0 W/m 0,1 C 4,9 C 0,0 km/h (0 Bft) 100,00 %
09.01.2012 19:18 4,9 C 71 % 1025,5 hPa 0,0 l/m 5,8 km/h (2 Bft) W-NW 300 0 min 0,000 mm 0 W/m 0,1 C 4,9 C 11,3 km/h (2 Bft) 100,00 %
09.01.2012 19:19 4,9 C 71 % 1025,5 hPa 0,0 l/m 3,8 km/h (1 Bft) W-NW 300 0 min 0,000 mm 0 W/m 0,1 C 4,9 C 8,0 km/h (2 Bft) 100,00 %
09.01.2012 19:20 4,9 C 72 % 1025,5 hPa 0,0 l/m 6,3 km/h (2 Bft) W-NW 301 0 min 0,000 mm 0 W/m 0,3 C 4,9 C 9,7 km/h (2 Bft) 100,00 %
09.01.2012 19:21 4,9 C 72 % 1025,5 hPa 0,0 l/m 0,8 km/h (0 Bft) W-NW 301 0 min 0,000 mm 0 W/m 0,3 C 4,9 C 6,4 km/h (2 Bft) 100,00 %
09.01.2012 19:22 4,8 C 72 % 1025,5 hPa 0,0 l/m 0,0 km/h (0 Bft) W-NW 300 0 min 0,000 mm 0 W/m 0,2 C 4,8 C 0,0 km/h (0 Bft) 100,00 %
09.01.2012 19:23 4,8 C 72 % 1025,5 hPa 0,0 l/m 1,7 km/h (1 Bft) W-NW 302 0 min 0,000 mm 0 W/m 0,2 C 4,8 C 8,0 km/h (2 Bft) 100,00 %
09.01.2012 19:24 4,8 C 72 % 1025,5 hPa 0,0 l/m 3,4 km/h (1 Bft) W-NW 300 0 min 0,000 mm 0 W/m 0,2 C 4,8 C 9,7 km/h (2 Bft) 100,00 %
09.01.2012 19:25 4,8 C 72 % 1025,5 hPa 0,0 l/m 7,0 km/h (2 Bft) W-NW 301 0 min 0,000 mm 0 W/m 0,2 C 4,3 C 16,1 km/h (3 Bft) 100,00 %
09.01.2012 19:26 4,8 C 72 % 1025,5 hPa 0,0 l/m 5,4 km/h (1 Bft) W-NW 290 0 min 0,000 mm 0 W/m 0,2 C 4,8 C 12,9 km/h (3 Bft) 100,00 %
09.01.2012 19:27 4,8 C 72 % 1025,5 hPa 0,0 l/m 9,6 km/h (2 Bft) W-NW 284 0 min 0,000 mm 0 W/m 0,2 C 2,1 C 17,7 km/h (3 Bft) 100,00 %
09.01.2012 19:28 4,8 C 72 % 1025,5 hPa 0,0 l/m 7,5 km/h (2 Bft) W-NW 292 0 min 0,000 mm 0 W/m 0,2 C 3,8 C 11,3 km/h (2 Bft) 100,00 %
09.01.2012 19:29 4,8 C 72 % 1025,5 hPa 0,0 l/m 5,5 km/h (1 Bft) W-NW 292 0 min 0,000 mm 0 W/m 0,2 C 4,8 C 8,0 km/h (2 Bft) 100,00 %
09.01.2012 19:30 4,8 C 72 % 1025,5 hPa 0,0 l/m 4,5 km/h (1 Bft) W-NW 296 0 min 0,000 mm 0 W/m 0,2 C 4,8 C 9,7 km/h (2 Bft) 100,00 %
09.01.2012 19:31 4,8 C 72 % 1025,5 hPa 0,0 l/m 5,8 km/h (2 Bft) W-NW 302 0 min 0,000 mm 0 W/m 0,2 C 4,8 C 8,0 km/h (2 Bft) 100,00 %
09.01.2012 19:32 4,8 C 72 % 1025,5 hPa 0,0 l/m 15,0 km/h (3 Bft) W-NW 299 0 min 0,000 mm 0 W/m 0,2 C -1,2 C 20,9 km/h (4 Bft) 100,00 %
09.01.2012 19:33 4,8 C 72 % 1025,5 hPa 0,0 l/m 11,9 km/h (2 Bft) NW 316 0 min 0,000 mm 0 W/m 0,2 C 0,6 C 17,7 km/h (3 Bft) 100,00 %
09.01.2012 19:34 4,8 C 72 % 1025,5 hPa 0,0 l/m 12,7 km/h (3 Bft) NW 307 0 min 0,000 mm 0 W/m 0,2 C 0,1 C 17,7 km/h (3 Bft) 95,83 %
09.01.2012 19:35 4,8 C 72 % 1025,5 hPa 0,0 l/m 9,7 km/h (2 Bft) W-NW 282 0 min 0,000 mm 0 W/m 0,2 C 2,1 C 16,1 km/h (3 Bft) 100,00 %
09.01.2012 19:36 4,8 C 72 % 1025,5 hPa 0,0 l/m 9,2 km/h (2 Bft) NW 309 0 min 0,000 mm 0 W/m 0,2 C 2,4 C 12,9 km/h (3 Bft) 100,00 %
09.01.2012 19:37 4,8 C 72 % 1025,5 hPa 0,0 l/m 8,4 km/h (2 Bft) NW 304 0 min 0,000 mm 0 W/m 0,2 C 3,1 C 12,9 km/h (3 Bft) 100,00 %
09.01.2012 19:38 4,8 C 72 % 1025,5 hPa 0,0 l/m 8,9 km/h (2 Bft) NW 305 0 min 0,000 mm 0 W/m 0,2 C 2,7 C 19,3 km/h (3 Bft) 100,00 %
09.01.2012 19:39 4,8 C 72 % 1025,5 hPa 0,0 l/m 11,8 km/h (2 Bft) NW 304 0 min 0,000 mm 0 W/m 0,2 C 0,7 C 19,3 km/h (3 Bft) 100,00 %
09.01.2012 19:40 4,8 C 73 % 1025,5 hPa 0,0 l/m 14,8 km/h (3 Bft) W-NW 291 0 min 0,000 mm 0 W/m 0,4 C -1,1 C 19,3 km/h (3 Bft) 100,00 %
09.01.2012 19:41 4,8 C 73 % 1025,5 hPa 0,0 l/m 9,9 km/h (2 Bft) W-NW 299 0 min 0,000 mm 0 W/m 0,4 C 1,9 C 16,1 km/h (3 Bft) 100,00 %
09.01.2012 19:42 4,8 C 73 % 1025,5 hPa 0,0 l/m 8,1 km/h (2 Bft) W-NW 300 0 min 0,000 mm 0 W/m 0,4 C 3,3 C 16,1 km/h (3 Bft) 100,00 %
09.01.2012 19:43 4,8 C 73 % 1025,5 hPa 0,0 l/m 10,2 km/h (2 Bft) NW 304 0 min 0,000 mm 0 W/m 0,4 C 1,7 C 16,1 km/h (3 Bft) 100,00 %
09.01.2012 19:44 4,8 C 73 % 1025,6 hPa 0,0 l/m 15,7 km/h (3 Bft) NW 306 0 min 0,000 mm 0 W/m 0,4 C -1,5 C 24,1 km/h (4 Bft) 100,00 %
09.01.2012 19:45 4,8 C 73 % 1025,5 hPa 0,0 l/m 14,7 km/h (3 Bft) W-NW 288 0 min 0,000 mm 0 W/m 0,4 C -1,0 C 19,3 km/h (3 Bft) 100,00 %
09.01.2012 19:46 4,8 C 73 % 1025,5 hPa 0,0 l/m 13,9 km/h (3 Bft) W-NW 295 0 min 0,000 mm 0 W/m 0,4 C -0,6 C 22,5 km/h (4 Bft) 100,00 %
09.01.2012 19:47 4,8 C 73 % 1025,5 hPa 0,0 l/m 16,6 km/h (3 Bft) W-NW 282 0 min 0,000 mm 0 W/m 0,4 C -2,0 C 24,1 km/h (4 Bft) 100,00 %
09.01.2012 19:48 4,8 C 73 % 1025,5 hPa 0,0 l/m 16,7 km/h (3 Bft) W 279 0 min 0,000 mm 0 W/m 0,4 C -2,0 C 22,5 km/h (4 Bft) 100,00 %
09.01.2012 19:49 4,8 C 73 % 1025,5 hPa 0,0 l/m 16,7 km/h (3 Bft) W-NW 296 0 min 0,000 mm 0 W/m 0,4 C -2,0 C 25,7 km/h (4 Bft) 100,00 %
09.01.2012 19:50 4,8 C 73 % 1025,5 hPa 0,0 l/m 13,8 km/h (3 Bft) NW 319 0 min 0,000 mm 0 W/m 0,4 C -0,5 C 25,7 km/h (4 Bft) 100,00 %
09.01.2012 19:51 4,8 C 73 % 1025,5 hPa 0,0 l/m 9,7 km/h (2 Bft) W-NW 299 0 min 0,000 mm 0 W/m 0,4 C 2,1 C 14,5 km/h (3 Bft) 100,00 %
09.01.2012 19:52 4,8 C 73 % 1025,5 hPa 0,0 l/m 12,0 km/h (2 Bft) W-NW 291 0 min 0,000 mm 0 W/m 0,4 C 0,5 C 16,1 km/h (3 Bft) 100,00 %
09.01.2012 19:53 4,8 C 73 % 1025,5 hPa 0,0 l/m 13,7 km/h (3 Bft) NW 306 0 min 0,000 mm 0 W/m 0,4 C -0,5 C 19,3 km/h (3 Bft) 100,00 %
09.01.2012 19:54 4,8 C 74 % 1025,5 hPa 0,0 l/m 17,6 km/h (3 Bft) NW 311 0 min 0,000 mm 0 W/m 0,6 C -2,4 C 22,5 km/h (4 Bft) 100,00 %
09.01.2012 19:55 4,8 C 74 % 1025,5 hPa 0,0 l/m 20,8 km/h (4 Bft) W-NW 299 0 min 0,000 mm 0 W/m 0,6 C -3,7 C 24,1 km/h (4 Bft) 100,00 %
09.01.2012 19:56 4,8 C 74 % 1025,5 hPa 0,0 l/m 13,3 km/h (3 Bft) NW 314 0 min 0,000 mm 0 W/m 0,6 C -0,2 C 20,9 km/h (4 Bft) 100,00 %
09.01.2012 19:57 4,9 C 74 % 1025,5 hPa 0,0 l/m 15,4 km/h (3 Bft) W 275 0 min 0,000 mm 0 W/m 0,7 C -1,2 C 22,5 km/h (4 Bft) 100,00 %
09.01.2012 19:58 4,9 C 74 % 1025,5 hPa 0,0 l/m 13,3 km/h (3 Bft) W 264 0 min 0,000 mm 0 W/m 0,7 C -0,1 C 19,3 km/h (3 Bft) 100,00 %
09.01.2012 19:59 4,9 C 78 % 1025,5 hPa 0,0 l/m 13,9 km/h (3 Bft) W-NW 284 0 min 0,000 mm 0 W/m 1,4 C -0,5 C 20,9 km/h (4 Bft) 100,00 %
09.01.2012 20:00 4,9 C 74 % 1025,5 hPa 0,0 l/m 8,7 km/h (2 Bft) NW 313 0 min 0,000 mm 0 W/m 0,7 C 2,9 C 11,3 km/h (2 Bft) 95,83 %
09.01.2012 20:01 4,9 C 74 % 1025,5 hPa 0,0 l/m 14,3 km/h (3 Bft) NW 306 0 min 0,025 mm 0 W/m 0,7 C -0,7 C 19,3 km/h (3 Bft) 100,00 %
09.01.2012 20:02 4,9 C 74 % 1025,5 hPa 0,0 l/m 11,7 km/h (2 Bft) NW 309 0 min 0,000 mm 0 W/m 0,7 C 0,8 C 17,7 km/h (3 Bft) 100,00 %
09.01.2012 20:03 4,9 C 74 % 1025,5 hPa 0,0 l/m 12,6 km/h (3 Bft) NW 309 0 min 0,000 mm 0 W/m 0,7 C 0,3 C 24,1 km/h (4 Bft) 100,00 %
09.01.2012 20:04 4,9 C 74 % 1025,5 hPa 0,0 l/m 17,8 km/h (3 Bft) NW 310 0 min 0,000 mm 0 W/m 0,7 C -2,4 C 22,5 km/h (4 Bft) 100,00 %
09.01.2012 20:05 4,9 C 74 % 1025,5 hPa 0,0 l/m 12,3 km/h (3 Bft) W-NW 302 0 min 0,000 mm 0 W/m 0,7 C 0,5 C 20,9 km/h (4 Bft) 100,00 %
09.01.2012 20:06 4,9 C 75 % 1025,6 hPa 0,0 l/m 17,4 km/h (3 Bft) NW 319 0 min 0,000 mm 0 W/m 0,8 C -2,2 C 24,1 km/h (4 Bft) 100,00 %
09.01.2012 20:07 4,9 C 75 % 1025,6 hPa 0,0 l/m 10,6 km/h (2 Bft) NW 322 0 min 0,000 mm 0 W/m 0,8 C 1,5 C 17,7 km/h (3 Bft) 100,00 %
09.01.2012 20:08 4,9 C 75 % 1025,5 hPa 0,0 l/m 11,1 km/h (2 Bft) NW 321 0 min 0,000 mm 0 W/m 0,8 C 1,2 C 20,9 km/h (4 Bft) 100,00 %
09.01.2012 20:09 4,9 C 75 % 1025,6 hPa 0,0 l/m 13,8 km/h (3 Bft) NW 315 0 min 0,000 mm 0 W/m 0,8 C -0,4 C 20,9 km/h (4 Bft) 100,00 %
09.01.2012 20:10 4,9 C 75 % 1025,5 hPa 0,0 l/m 11,8 km/h (2 Bft) NW 307 0 min 0,000 mm 0 W/m 0,8 C 0,8 C 17,7 km/h (3 Bft) 100,00 %
09.01.2012 20:11 4,9 C 75 % 1025,6 hPa 0,0 l/m 9,1 km/h (2 Bft) W-NW 300 0 min 0,000 mm 0 W/m 0,8 C 2,6 C 11,3 km/h (2 Bft) 100,00 %
09.01.2012 20:12 4,9 C 75 % 1025,6 hPa 0,0 l/m 12,3 km/h (3 Bft) N-NW 328 0 min 0,000 mm 0 W/m 0,8 C 0,5 C 20,9 km/h (4 Bft) 100,00 %
09.01.2012 20:13 4,8 C 75 % 1025,6 hPa 0,0 l/m 15,8 km/h (3 Bft) NW 307 0 min 0,000 mm 0 W/m 0,8 C -1,6 C 24,1 km/h (4 Bft) 100,00 %
09.01.2012 20:14 4,8 C 75 % 1025,6 hPa 0,0 l/m 12,0 km/h (2 Bft) W 281 0 min 0,000 mm 0 W/m 0,8 C 0,5 C 19,3 km/h (3 Bft) 100,00 %
09.01.2012 20:15 4,8 C 75 % 1025,6 hPa 0,0 l/m 13,6 km/h (3 Bft) NW 309 0 min 0,000 mm 0 W/m 0,8 C -0,4 C 17,7 km/h (3 Bft) 100,00 %
09.01.2012 20:16 4,8 C 75 % 1025,6 hPa 0,0 l/m 9,5 km/h (2 Bft) W-NW 303 0 min 0,000 mm 0 W/m 0,8 C 2,2 C 19,3 km/h (3 Bft) 100,00 %
09.01.2012 20:17 4,8 C 75 % 1025,5 hPa 0,0 l/m 17,9 km/h (3 Bft) N-NW 329 0 min 0,000 mm 0 W/m 0,8 C -2,5 C 22,5 km/h (4 Bft) 100,00 %
09.01.2012 20:18 4,8 C 75 % 1025,6 hPa 0,0 l/m 13,5 km/h (3 Bft) W-NW 291 0 min 0,000 mm 0 W/m 0,8 C -0,4 C 20,9 km/h (4 Bft) 100,00 %
09.01.2012 20:19 4,8 C 75 % 1025,5 hPa 0,0 l/m 16,7 km/h (3 Bft) NW 311 0 min 0,000 mm 0 W/m 0,8 C -2,0 C 22,5 km/h (4 Bft) 100,00 %
09.01.2012 20:20 4,8 C 75 % 1025,5 hPa 0,0 l/m 21,1 km/h (4 Bft) W-NW 300 0 min 0,000 mm 0 W/m 0,8 C -3,9 C 29,0 km/h (5 Bft) 100,00 %
09.01.2012 20:21 4,8 C 76 % 1025,6 hPa 0,0 l/m 15,5 km/h (3 Bft) W-NW 288 0 min 0,000 mm 0 W/m 0,9 C -1,4 C 24,1 km/h (4 Bft) 100,00 %
09.01.2012 20:22 4,8 C 76 % 1025,5 hPa 0,0 l/m 12,0 km/h (2 Bft) W-NW 302 0 min 0,000 mm 0 W/m 0,9 C 0,5 C 20,9 km/h (4 Bft) 100,00 %
09.01.2012 20:23 4,8 C 76 % 1025,5 hPa 0,0 l/m 20,6 km/h (4 Bft) NW 304 0 min 0,000 mm 0 W/m 0,9 C -3,7 C 25,7 km/h (4 Bft) 100,00 %
09.01.2012 20:24 4,8 C 76 % 1025,5 hPa 0,0 l/m 21,3 km/h (4 Bft) NW 309 0 min 0,000 mm 0 W/m 0,9 C -3,9 C 27,4 km/h (4 Bft) 95,83 %
09.01.2012 20:25 4,8 C 76 % 1025,5 hPa 0,0 l/m 17,1 km/h (3 Bft) W-NW 297 0 min 0,000 mm 0 W/m 0,9 C -2,2 C 27,4 km/h (4 Bft) 100,00 %
09.01.2012 20:26 4,8 C 76 % 1025,5 hPa 0,0 l/m 16,2 km/h (3 Bft) NW 309 0 min 0,000 mm 0 W/m 0,9 C -1,8 C 24,1 km/h (4 Bft) 100,00 %
09.01.2012 20:27 4,8 C 76 % 1025,4 hPa 0,0 l/m 15,0 km/h (3 Bft) NW 317 0 min 0,000 mm 0 W/m 0,9 C -1,2 C 27,4 km/h (4 Bft) 100,00 %
09.01.2012 20:28 4,8 C 76 % 1025,5 hPa 0,0 l/m 14,6 km/h (3 Bft) W-NW 300 0 min 0,000 mm 0 W/m 0,9 C -1,0 C 19,3 km/h (3 Bft) 100,00 %
09.01.2012 20:29 4,8 C 76 % 1025,5 hPa 0,0 l/m 17,3 km/h (3 Bft) NW 306 0 min 0,000 mm 0 W/m 0,9 C -2,3 C 22,5 km/h (4 Bft) 100,00 %
09.01.2012 20:30 4,8 C 76 % 1025,5 hPa 0,0 l/m 15,4 km/h (3 Bft) W-NW 301 0 min 0,000 mm 0 W/m 0,9 C -1,4 C 22,5 km/h (4 Bft) 100,00 %
09.01.2012 20:31 4,8 C 76 % 1025,5 hPa 0,0 l/m 12,6 km/h (3 Bft) W-NW 303 0 min 0,000 mm 0 W/m 0,9 C 0,2 C 17,7 km/h (3 Bft) 100,00 %
09.01.2012 20:32 4,8 C 76 % 1025,5 hPa 0,0 l/m 15,7 km/h (3 Bft) W-NW 287 0 min 0,000 mm 0 W/m 0,9 C -1,5 C 24,1 km/h (4 Bft) 100,00 %
09.01.2012 20:33 4,8 C 76 % 1025,4 hPa 0,0 l/m 8,5 km/h (2 Bft) W-NW 291 0 min 0,000 mm 0 W/m 0,9 C 3,0 C 14,5 km/h (3 Bft) 100,00 %
09.01.2012 20:34 4,8 C 76 % 1025,5 hPa 0,0 l/m 15,0 km/h (3 Bft) NW 306 0 min 0,000 mm 0 W/m 0,9 C -1,2 C 20,9 km/h (4 Bft) 100,00 %
09.01.2012 20:35 4,8 C 76 % 1025,4 hPa 0,0 l/m 13,2 km/h (3 Bft) W-NW 287 0 min 0,000 mm 0 W/m 0,9 C -0,2 C 20,9 km/h (4 Bft) 100,00 %
09.01.2012 20:36 4,8 C 76 % 1025,4 hPa 0,0 l/m 11,6 km/h (2 Bft) W-NW 302 0 min 0,000 mm 0 W/m 0,9 C 0,8 C 16,1 km/h (3 Bft) 100,00 %
09.01.2012 20:37 4,8 C 77 % 1025,4 hPa 0,0 l/m 12,3 km/h (3 Bft) NW 324 0 min 0,000 mm 0 W/m 1,1 C 0,3 C 16,1 km/h (3 Bft) 100,00 %
09.01.2012 20:38 4,8 C 77 % 1025,4 hPa 0,0 l/m 10,6 km/h (2 Bft) N-NW 327 0 min 0,000 mm 0 W/m 1,1 C 1,4 C 16,1 km/h (3 Bft) 100,00 %
09.01.2012 20:39 4,8 C 77 % 1025,4 hPa 0,0 l/m 14,7 km/h (3 Bft) W 272 0 min 0,000 mm 0 W/m 1,1 C -1,0 C 19,3 km/h (3 Bft) 100,00 %
09.01.2012 20:40 4,8 C 77 % 1025,4 hPa 0,0 l/m 14,0 km/h (3 Bft) W-NW 298 0 min 0,000 mm 0 W/m 1,1 C -0,6 C 19,3 km/h (3 Bft) 100,00 %
09.01.2012 20:41 4,8 C 77 % 1025,5 hPa 0,0 l/m 13,0 km/h (3 Bft) W-NW 298 0 min 0,000 mm 0 W/m 1,1 C -0,1 C 19,3 km/h (3 Bft) 100,00 %
09.01.2012 20:42 4,8 C 77 % 1025,4 hPa 0,0 l/m 13,6 km/h (3 Bft) NW 316 0 min 0,000 mm 0 W/m 1,1 C -0,4 C 19,3 km/h (3 Bft) 100,00 %
09.01.2012 20:43 4,8 C 77 % 1025,4 hPa 0,0 l/m 13,7 km/h (3 Bft) W-NW 298 0 min 0,000 mm 0 W/m 1,1 C -0,5 C 22,5 km/h (4 Bft) 100,00 %
09.01.2012 20:44 4,8 C 77 % 1025,4 hPa 0,0 l/m 17,5 km/h (3 Bft) NW 318 0 min 0,000 mm 0 W/m 1,1 C -2,4 C 27,4 km/h (4 Bft) 100,00 %
09.01.2012 20:45 4,8 C 77 % 1025,4 hPa 0,0 l/m 16,8 km/h (3 Bft) W-NW 296 0 min 0,000 mm 0 W/m 1,1 C -2,0 C 24,1 km/h (4 Bft) 100,00 %
09.01.2012 20:46 4,9 C 77 % 1025,4 hPa 0,0 l/m 17,8 km/h (3 Bft) W 259 0 min 0,000 mm 0 W/m 1,2 C -2,4 C 29,0 km/h (5 Bft) 100,00 %
09.01.2012 20:47 4,9 C 77 % 1025,4 hPa 0,0 l/m 14,5 km/h (3 Bft) W 280 0 min 0,000 mm 0 W/m 1,2 C -0,8 C 22,5 km/h (4 Bft) 100,00 %
09.01.2012 20:48 4,9 C 81 % 1025,4 hPa 0,0 l/m 13,9 km/h (3 Bft) W 265 0 min 0,000 mm 0 W/m 1,9 C -0,5 C 22,5 km/h (4 Bft) 100,00 %
09.01.2012 20:49 4,9 C 82 % 1025,5 hPa 0,0 l/m 10,6 km/h (2 Bft) W-NW 285 0 min 0,000 mm 0 W/m 2,1 C 1,5 C 16,1 km/h (3 Bft) 100,00 %
09.01.2012 20:50 4,9 C 77 % 1025,4 hPa 0,0 l/m 17,7 km/h (3 Bft) NW 314 0 min 0,000 mm 0 W/m 1,2 C -2,3 C 27,4 km/h (4 Bft) 100,00 %
09.01.2012 20:51 4,9 C 77 % 1025,5 hPa 0,0 l/m 23,4 km/h (4 Bft) W-NW 295 0 min 0,000 mm 0 W/m 1,2 C -4,6 C 29,0 km/h (5 Bft) 100,00 %
09.01.2012 20:52 4,9 C 77 % 1025,5 hPa 0,0 l/m 15,0 km/h (3 Bft) W-NW 288 0 min 0,000 mm 0 W/m 1,2 C -1,0 C 20,9 km/h (4 Bft) 100,00 %
09.01.2012 20:53 4,9 C 77 % 1025,5 hPa 0,0 l/m 13,9 km/h (3 Bft) W-NW 286 0 min 0,000 mm 0 W/m 1,2 C -0,5 C 22,5 km/h (4 Bft) 100,00 %
09.01.2012 20:54 4,9 C 77 % 1025,5 hPa 0,0 l/m 14,6 km/h (3 Bft) W 269 0 min 0,000 mm 0 W/m 1,2 C -0,8 C 22,5 km/h (4 Bft) 100,00 %
09.01.2012 20:55 4,9 C 78 % 1025,5 hPa 0,0 l/m 14,0 km/h (3 Bft) W 270 0 min 0,000 mm 0 W/m 1,4 C -0,5 C 22,5 km/h (4 Bft) 100,00 %
09.01.2012 20:56 5,0 C 78 % 1025,5 hPa 0,0 l/m 20,8 km/h (4 Bft) W-NW 299 0 min 0,000 mm 0 W/m 1,5 C -3,5 C 32,2 km/h (5 Bft) 100,00 %
09.01.2012 20:57 5,0 C 78 % 1025,5 hPa 0,0 l/m 15,4 km/h (3 Bft) W-NW 292 0 min 0,000 mm 0 W/m 1,5 C -1,1 C 24,1 km/h (4 Bft) 100,00 %
09.01.2012 20:58 5,0 C 78 % 1025,5 hPa 0,0 l/m 11,8 km/h (2 Bft) W 269 0 min 0,000 mm 0 W/m 1,5 C 0,9 C 19,3 km/h (3 Bft) 96,30 %
09.01.2012 20:59 5,0 C 78 % 1025,5 hPa 0,0 l/m 12,9 km/h (3 Bft) W 281 0 min 0,000 mm 0 W/m 1,5 C 0,2 C 24,1 km/h (4 Bft) 100,00 %
09.01.2012 21:00 5,1 C 78 % 1025,5 hPa 0,0 l/m 23,0 km/h (4 Bft) W-NW 290 0 min 0,025 mm 0 W/m 1,6 C -4,1 C 30,6 km/h (5 Bft) 100,00 %
09.01.2012 21:01 5,1 C 78 % 1025,6 hPa 0,0 l/m 21,3 km/h (4 Bft) NW 319 0 min 0,000 mm 0 W/m 1,6 C -3,5 C 32,2 km/h (5 Bft) 100,00 %
09.01.2012 21:02 5,1 C 78 % 1025,6 hPa 0,0 l/m 17,8 km/h (3 Bft) W-NW 287 0 min 0,000 mm 0 W/m 1,6 C -2,1 C 24,1 km/h (4 Bft) 100,00 %
09.01.2012 21:03 5,1 C 78 % 1025,6 hPa 0,0 l/m 12,6 km/h (3 Bft) W 275 0 min 0,000 mm 0 W/m 1,6 C 0,5 C 22,5 km/h (4 Bft) 100,00 %
09.01.2012 21:04 5,1 C 78 % 1025,6 hPa 0,0 l/m 13,5 km/h (3 Bft) W 276 0 min 0,000 mm 0 W/m 1,6 C -0,0 C 27,4 km/h (4 Bft) 100,00 %
09.01.2012 21:05 5,1 C 78 % 1025,6 hPa 0,0 l/m 13,7 km/h (3 Bft) W 273 0 min 0,000 mm 0 W/m 1,6 C -0,1 C 20,9 km/h (4 Bft) 100,00 %
09.01.2012 21:06 5,1 C 78 % 1025,6 hPa 0,0 l/m 20,4 km/h (4 Bft) W 263 0 min 0,000 mm 0 W/m 1,6 C -3,2 C 35,4 km/h (5 Bft) 100,00 %
09.01.2012 21:07 5,0 C 79 % 1025,6 hPa 0,0 l/m 17,1 km/h (3 Bft) W-NW 300 0 min 0,000 mm 0 W/m 1,7 C -1,9 C 27,4 km/h (4 Bft) 100,00 %
09.01.2012 21:08 5,0 C 79 % 1025,7 hPa 0,0 l/m 14,3 km/h (3 Bft) W 275 0 min 0,000 mm 0 W/m 1,7 C -0,6 C 27,4 km/h (4 Bft) 100,00 %
09.01.2012 21:09 5,0 C 79 % 1025,6 hPa 0,0 l/m 17,6 km/h (3 Bft) W-NW 294 0 min 0,000 mm 0 W/m 1,7 C -2,2 C 29,0 km/h (5 Bft) 100,00 %
09.01.2012 21:10 5,0 C 79 % 1025,6 hPa 0,0 l/m 16,4 km/h (3 Bft) W-NW 291 0 min 0,000 mm 0 W/m 1,7 C -1,6 C 25,7 km/h (4 Bft) 100,00 %
09.01.2012 21:11 5,0 C 79 % 1025,6 hPa 0,0 l/m 22,9 km/h (4 Bft) W-NW 299 0 min 0,000 mm 0 W/m 1,7 C -4,2 C 32,2 km/h (5 Bft) 100,00 %
09.01.2012 21:12 5,0 C 79 % 1025,6 hPa 0,0 l/m 17,3 km/h (3 Bft) W-SW 251 0 min 0,000 mm 0 W/m 1,7 C -2,0 C 27,4 km/h (4 Bft) 100,00 %
09.01.2012 21:13 4,9 C 79 % 1025,5 hPa 0,0 l/m 11,6 km/h (2 Bft) W 268 0 min 0,000 mm 0 W/m 1,6 C 0,9 C 19,3 km/h (3 Bft) 100,00 %
09.01.2012 21:14 4,9 C 80 % 1025,5 hPa 0,0 l/m 10,8 km/h (2 Bft) W 274 0 min 0,000 mm 0 W/m 1,7 C 1,4 C 19,3 km/h (3 Bft) 100,00 %
09.01.2012 21:15 4,9 C 80 % 1025,5 hPa 0,0 l/m 21,1 km/h (4 Bft) W 262 0 min 0,000 mm 0 W/m 1,7 C -3,7 C 29,0 km/h (5 Bft) 100,00 %
09.01.2012 21:16 4,9 C 80 % 1025,6 hPa 0,0 l/m 14,2 km/h (3 Bft) W-NW 284 0 min 0,000 mm 0 W/m 1,7 C -0,6 C 19,3 km/h (3 Bft) 100,00 %
09.01.2012 21:17 4,9 C 80 % 1025,5 hPa 0,0 l/m 10,3 km/h (2 Bft) W-NW 286 0 min 0,000 mm 0 W/m 1,7 C 1,8 C 19,3 km/h (3 Bft) 100,00 %
09.01.2012 21:18 4,8 C 85 % 1025,5 hPa 0,0 l/m 20,4 km/h (4 Bft) W-NW 282 0 min 0,000 mm 0 W/m 2,5 C -3,6 C 27,4 km/h (4 Bft) 100,00 %
09.01.2012 21:19 4,8 C 81 % 1025,5 hPa 0,0 l/m 20,9 km/h (4 Bft) W-NW 302 0 min 0,000 mm 0 W/m 1,8 C -3,8 C 27,4 km/h (4 Bft) 100,00 %
09.01.2012 21:20 4,8 C 81 % 1025,5 hPa 0,0 l/m 14,6 km/h (3 Bft) W 280 0 min 0,000 mm 0 W/m 1,8 C -1,0 C 22,5 km/h (4 Bft) 100,00 %
09.01.2012 21:21 4,8 C 81 % 1025,5 hPa 0,0 l/m 10,5 km/h (2 Bft) W-NW 287 0 min 0,000 mm 0 W/m 1,8 C 1,5 C 20,9 km/h (4 Bft) 100,00 %
09.01.2012 21:22 4,8 C 81 % 1025,5 hPa 0,0 l/m 14,6 km/h (3 Bft) W-NW 299 0 min 0,000 mm 0 W/m 1,8 C -1,0 C 19,3 km/h (3 Bft) 100,00 %
09.01.2012 21:23 4,8 C 81 % 1025,5 hPa 0,0 l/m 12,3 km/h (3 Bft) W-NW 286 0 min 0,000 mm 0 W/m 1,8 C 0,3 C 22,5 km/h (4 Bft) 100,00 %
09.01.2012 21:24 4,7 C 81 % 1025,5 hPa 0,0 l/m 12,8 km/h (3 Bft) W 264 0 min 0,000 mm 0 W/m 1,7 C -0,1 C 20,9 km/h (4 Bft) 100,00 %
09.01.2012 21:25 4,7 C 81 % 1025,5 hPa 0,0 l/m 15,0 km/h (3 Bft) NW 306 0 min 0,000 mm 0 W/m 1,7 C -1,3 C 22,5 km/h (4 Bft) 100,00 %
09.01.2012 21:26 4,7 C 82 % 1025,5 hPa 0,0 l/m 16,9 km/h (3 Bft) W-NW 302 0 min 0,000 mm 0 W/m 1,9 C -2,2 C 24,1 km/h (4 Bft) 100,00 %
09.01.2012 21:27 4,7 C 82 % 1025,5 hPa 0,0 l/m 22,3 km/h (4 Bft) W 281 0 min 0,000 mm 0 W/m 1,9 C -4,4 C 29,0 km/h (5 Bft) 100,00 %
09.01.2012 21:28 4,7 C 82 % 1025,4 hPa 0,0 l/m 18,3 km/h (3 Bft) NW 304 0 min 0,000 mm 0 W/m 1,9 C -2,9 C 24,1 km/h (4 Bft) 100,00 %
09.01.2012 21:29 4,7 C 82 % 1025,4 hPa 0,0 l/m 16,5 km/h (3 Bft) NW 306 0 min 0,000 mm 0 W/m 1,9 C -2,0 C 22,5 km/h (4 Bft) 100,00 %
09.01.2012 21:30 4,6 C 82 % 1025,5 hPa 0,0 l/m 11,1 km/h (2 Bft) NW 304 0 min 0,000 mm 0 W/m 1,8 C 0,9 C 16,1 km/h (3 Bft) 100,00 %
09.01.2012 21:31 4,6 C 82 % 1025,4 hPa 0,0 l/m 14,3 km/h (3 Bft) NW 315 0 min 0,000 mm 0 W/m 1,8 C -1,0 C 20,9 km/h (4 Bft) 100,00 %
09.01.2012 21:32 4,6 C 82 % 1025,5 hPa 0,0 l/m 18,5 km/h (3 Bft) W 264 0 min 0,000 mm 0 W/m 1,8 C -3,1 C 24,1 km/h (4 Bft) 100,00 %
09.01.2012 21:33 4,6 C 82 % 1025,4 hPa 0,0 l/m 14,3 km/h (3 Bft) W-NW 302 0 min 0,000 mm 0 W/m 1,8 C -1,0 C 19,3 km/h (3 Bft) 100,00 %
09.01.2012 21:34 4,6 C 82 % 1025,4 hPa 0,0 l/m 17,7 km/h (3 Bft) NW 306 0 min 0,000 mm 0 W/m 1,8 C -2,7 C 29,0 km/h (5 Bft) 100,00 %
09.01.2012 21:35 4,6 C 82 % 1025,5 hPa 0,0 l/m 15,5 km/h (3 Bft) W-NW 298 0 min 0,000 mm 0 W/m 1,8 C -1,7 C 25,7 km/h (4 Bft) 100,00 %
09.01.2012 21:36 4,6 C 82 % 1025,4 hPa 0,0 l/m 12,4 km/h (3 Bft) W-NW 293 0 min 0,000 mm 0 W/m 1,8 C 0,1 C 17,7 km/h (3 Bft) 100,00 %
09.01.2012 21:37 4,6 C 82 % 1025,4 hPa 0,0 l/m 14,1 km/h (3 Bft) W-NW 284 0 min 0,000 mm 0 W/m 1,8 C -0,9 C 22,5 km/h (4 Bft) 100,00 %
09.01.2012 21:38 4,6 C 83 % 1025,4 hPa 0,0 l/m 14,8 km/h (3 Bft) NW 310 0 min 0,000 mm 0 W/m 2,0 C -1,3 C 20,9 km/h (4 Bft) 100,00 %
09.01.2012 21:39 4,6 C 83 % 1025,4 hPa 0,0 l/m 17,1 km/h (3 Bft) W-NW 295 0 min 0,000 mm 0 W/m 2,0 C -2,4 C 25,7 km/h (4 Bft) 100,00 %
09.01.2012 21:40 4,6 C 83 % 1025,4 hPa 0,0 l/m 14,5 km/h (3 Bft) W-NW 292 0 min 0,000 mm 0 W/m 2,0 C -1,1 C 22,5 km/h (4 Bft) 100,00 %
09.01.2012 21:41 4,5 C 83 % 1025,4 hPa 0,0 l/m 12,5 km/h (3 Bft) W-NW 290 0 min 0,000 mm 0 W/m 1,9 C -0,1 C 17,7 km/h (3 Bft) 100,00 %
09.01.2012 21:42 4,5 C 83 % 1025,4 hPa 0,0 l/m 12,9 km/h (3 Bft) NW 314 0 min 0,000 mm 0 W/m 1,9 C -0,4 C 19,3 km/h (3 Bft) 100,00 %
09.01.2012 21:43 4,5 C 83 % 1025,4 hPa 0,0 l/m 16,0 km/h (3 Bft) W 276 0 min 0,000 mm 0 W/m 1,9 C -2,0 C 24,1 km/h (4 Bft) 100,00 %
09.01.2012 21:44 4,5 C 83 % 1025,4 hPa 0,0 l/m 8,3 km/h (2 Bft) W-NW 285 0 min 0,000 mm 0 W/m 1,9 C 2,8 C 11,3 km/h (2 Bft) 95,83 %
09.01.2012 21:45 4,5 C 83 % 1025,4 hPa 0,0 l/m 12,4 km/h (3 Bft) W-NW 284 0 min 0,000 mm 0 W/m 1,9 C -0,1 C 19,3 km/h (3 Bft) 100,00 %
09.01.2012 21:46 4,5 C 83 % 1025,4 hPa 0,0 l/m 12,3 km/h (3 Bft) W-NW 302 0 min 0,000 mm 0 W/m 1,9 C -0,0 C 17,7 km/h (3 Bft) 100,00 %
09.01.2012 21:47 4,5 C 83 % 1025,4 hPa 0,0 l/m 15,3 km/h (3 Bft) W-NW 289 0 min 0,000 mm 0 W/m 1,9 C -1,7 C 20,9 km/h (4 Bft) 100,00 %
09.01.2012 21:48 4,5 C 83 % 1025,4 hPa 0,0 l/m 10,0 km/h (2 Bft) W-NW 302 0 min 0,000 mm 0 W/m 1,9 C 1,5 C 14,5 km/h (3 Bft) 100,00 %
09.01.2012 21:49 4,5 C 83 % 1025,4 hPa 0,0 l/m 10,2 km/h (2 Bft) NW 319 0 min 0,000 mm 0 W/m 1,9 C 1,4 C 16,1 km/h (3 Bft) 100,00 %
09.01.2012 21:50 4,5 C 83 % 1025,4 hPa 0,0 l/m 10,1 km/h (2 Bft) W-NW 302 0 min 0,000 mm 0 W/m 1,9 C 1,4 C 14,5 km/h (3 Bft) 100,00 %
09.01.2012 21:51 4,4 C 83 % 1025,3 hPa 0,0 l/m 10,0 km/h (2 Bft) W 265 0 min 0,000 mm 0 W/m 1,8 C 1,4 C 19,3 km/h (3 Bft) 100,00 %
09.01.2012 21:52 4,4 C 83 % 1025,3 hPa 0,0 l/m 14,3 km/h (3 Bft) W-NW 294 0 min 0,000 mm 0 W/m 1,8 C -1,3 C 19,3 km/h (3 Bft) 100,00 %
09.01.2012 21:53 4,4 C 83 % 1025,3 hPa 0,0 l/m 13,8 km/h (3 Bft) W-NW 291 0 min 0,000 mm 0 W/m 1,8 C -1,0 C 19,3 km/h (3 Bft) 100,00 %
09.01.2012 21:54 4,4 C 83 % 1025,4 hPa 0,0 l/m 8,8 km/h (2 Bft) W-NW 303 0 min 0,000 mm 0 W/m 1,8 C 2,3 C 11,3 km/h (2 Bft) 100,00 %
09.01.2012 21:55 4,4 C 83 % 1025,3 hPa 0,0 l/m 9,0 km/h (2 Bft) W-NW 300 0 min 0,000 mm 0 W/m 1,8 C 2,2 C 12,9 km/h (3 Bft) 100,00 %
09.01.2012 21:56 4,4 C 83 % 1025,3 hPa 0,0 l/m 8,0 km/h (2 Bft) NW 315 0 min 0,000 mm 0 W/m 1,8 C 3,0 C 16,1 km/h (3 Bft) 100,00 %
09.01.2012 21:57 4,4 C 83 % 1025,3 hPa 0,0 l/m 8,0 km/h (2 Bft) W-NW 292 0 min 0,000 mm 0 W/m 1,8 C 3,0 C 19,3 km/h (3 Bft) 100,00 %
09.01.2012 21:58 4,4 C 83 % 1025,3 hPa 0,0 l/m 14,5 km/h (3 Bft) W-NW 292 0 min 0,000 mm 0 W/m 1,8 C -1,4 C 19,3 km/h (3 Bft) 100,00 %
09.01.2012 21:59 4,4 C 83 % 1025,3 hPa 0,0 l/m 9,7 km/h (2 Bft) W-NW 292 0 min 0,000 mm 0 W/m 1,8 C 1,6 C 16,1 km/h (3 Bft) 95,65 %
09.01.2012 22:00 4,4 C 83 % 1025,2 hPa 0,0 l/m 8,9 km/h (2 Bft) W-NW 303 0 min 0,000 mm 0 W/m 1,8 C 2,2 C 9,7 km/h (2 Bft) 99,11 %
09.01.2012 22:01 4,4 C 83 % 1025,2 hPa 0,0 l/m 10,1 km/h (2 Bft) W-NW 299 0 min 0,025 mm 0 W/m 1,8 C 1,3 C 16,1 km/h (3 Bft) 100,00 %
09.01.2012 22:02 4,4 C 83 % 1025,2 hPa 0,0 l/m 8,7 km/h (2 Bft) W-NW 302 0 min 0,001 mm 0 W/m 1,8 C 2,4 C 11,3 km/h (2 Bft) 100,00 %
09.01.2012 22:03 4,4 C 83 % 1025,2 hPa 0,0 l/m 8,9 km/h (2 Bft) NW 315 0 min 0,000 mm 0 W/m 1,8 C 2,2 C 14,5 km/h (3 Bft) 100,00 %
09.01.2012 22:04 4,4 C 83 % 1025,2 hPa 0,0 l/m 13,4 km/h (3 Bft) W-NW 291 0 min 0,000 mm 0 W/m 1,8 C -0,8 C 19,3 km/h (3 Bft) 100,00 %
09.01.2012 22:05 4,4 C 83 % 1025,2 hPa 0,0 l/m 10,0 km/h (2 Bft) NW 310 0 min 0,000 mm 0 W/m 1,8 C 1,4 C 16,1 km/h (3 Bft) 100,00 %
09.01.2012 22:06 4,3 C 84 % 1025,1 hPa 0,0 l/m 9,6 km/h (2 Bft) NW 307 0 min 0,000 mm 0 W/m 1,8 C 1,6 C 12,9 km/h (3 Bft) 100,00 %
09.01.2012 22:07 4,3 C 84 % 1025,2 hPa 0,0 l/m 9,2 km/h (2 Bft) NW 325 0 min 0,000 mm 0 W/m 1,8 C 1,9 C 17,7 km/h (3 Bft) 100,00 %
09.01.2012 22:08 4,3 C 84 % 1025,2 hPa 0,0 l/m 9,7 km/h (2 Bft) NW 315 0 min 0,000 mm 0 W/m 1,8 C 1,5 C 16,1 km/h (3 Bft) 100,00 %
09.01.2012 22:09 4,3 C 84 % 1025,1 hPa 0,0 l/m 11,3 km/h (2 Bft) W-NW 292 0 min 0,000 mm 0 W/m 1,8 C 0,4 C 17,7 km/h (3 Bft) 100,00 %
09.01.2012 22:10 4,3 C 84 % 1025,1 hPa 0,0 l/m 14,5 km/h (3 Bft) NW 315 0 min 0,000 mm 0 W/m 1,8 C -1,5 C 19,3 km/h (3 Bft) 100,00 %
09.01.2012 22:11 4,3 C 84 % 1025,1 hPa 0,0 l/m 9,7 km/h (2 Bft) NW 315 0 min 0,000 mm 0 W/m 1,8 C 1,5 C 14,5 km/h (3 Bft) 100,00 %
09.01.2012 22:12 4,3 C 84 % 1025,0 hPa 0,0 l/m 12,9 km/h (3 Bft) NW 315 0 min 0,000 mm 0 W/m 1,8 C -0,6 C 17,7 km/h (3 Bft) 100,00 %
09.01.2012 22:13 4,3 C 84 % 1025,0 hPa 0,0 l/m 8,0 km/h (2 Bft) NW 315 0 min 0,000 mm 0 W/m 1,8 C 2,9 C 17,7 km/h (3 Bft) 100,00 %
09.01.2012 22:14 4,3 C 84 % 1025,0 hPa 0,0 l/m 6,4 km/h (2 Bft) NW 315 0 min 0,000 mm 0 W/m 1,8 C 4,3 C 9,7 km/h (2 Bft) 100,00 %
09.01.2012 22:15 4,3 C 84 % 1025,0 hPa 0,0 l/m 9,7 km/h (2 Bft) NW 315 0 min 0,000 mm 0 W/m 1,8 C 1,5 C 14,5 km/h (3 Bft) 100,00 %
09.01.2012 22:16 4,3 C 84 % 1025,0 hPa 0,0 l/m 11,3 km/h (2 Bft) NW 315 0 min 0,000 mm 0 W/m 1,8 C 0,4 C 16,1 km/h (3 Bft) 100,00 %
09.01.2012 22:17 4,3 C 84 % 1025,0 hPa 0,0 l/m 11,3 km/h (2 Bft) W-NW 292 0 min 0,000 mm 0 W/m 1,8 C 0,4 C 16,1 km/h (3 Bft) 100,00 %
09.01.2012 22:18 4,2 C 84 % 1025,0 hPa 0,0 l/m 9,7 km/h (2 Bft) NW 315 0 min 0,000 mm 0 W/m 1,7 C 1,4 C 14,5 km/h (3 Bft) 100,00 %
09.01.2012 22:19 4,2 C 84 % 1025,0 hPa 0,0 l/m 8,0 km/h (2 Bft) NW 315 0 min 0,000 mm 0 W/m 1,7 C 2,8 C 9,7 km/h (2 Bft) 100,00 %
09.01.2012 22:20 4,2 C 84 % 1025,0 hPa 0,0 l/m 6,4 km/h (2 Bft) NW 315 0 min 0,000 mm 0 W/m 1,7 C 4,2 C 9,7 km/h (2 Bft) 100,00 %
09.01.2012 22:21 4,2 C 84 % 1025,0 hPa 0,0 l/m 6,4 km/h (2 Bft) W-NW 292 0 min 0,000 mm 0 W/m 1,7 C 4,2 C 11,3 km/h (2 Bft) 100,00 %
09.01.2012 22:22 4,2 C 84 % 1025,0 hPa 0,0 l/m 9,7 km/h (2 Bft) W-NW 292 0 min 0,000 mm 0 W/m 1,7 C 1,4 C 11,3 km/h (2 Bft) 100,00 %
09.01.2012 22:23 4,2 C 84 % 1024,9 hPa 0,0 l/m 8,0 km/h (2 Bft) W-NW 292 0 min 0,000 mm 0 W/m 1,7 C 2,8 C 11,3 km/h (2 Bft) 100,00 %
09.01.2012 22:24 4,2 C 85 % 1024,9 hPa 0,0 l/m 8,0 km/h (2 Bft) W-NW 300 0 min 0,000 mm 0 W/m 1,9 C 2,8 C 9,7 km/h (2 Bft) 80,00 %
09.01.2012 22:25 4,2 C 85 % 1024,9 hPa 0,0 l/m 6,9 km/h (2 Bft) W-NW 299 0 min 0,000 mm 0 W/m 1,9 C 3,8 C 11,3 km/h (2 Bft) 100,00 %
09.01.2012 22:26 4,2 C 85 % 1024,9 hPa 0,0 l/m 5,4 km/h (1 Bft) W-NW 298 0 min 0,000 mm 0 W/m 1,9 C 4,2 C 11,3 km/h (2 Bft) 100,00 %
09.01.2012 22:27 4,2 C 85 % 1024,9 hPa 0,0 l/m 6,3 km/h (2 Bft) W-NW 298 0 min 0,000 mm 0 W/m 1,9 C 4,2 C 9,7 km/h (2 Bft) 100,00 %
09.01.2012 22:28 4,2 C 85 % 1024,9 hPa 0,0 l/m 5,6 km/h (1 Bft) W-NW 297 0 min 0,000 mm 0 W/m 1,9 C 4,2 C 9,7 km/h (2 Bft) 100,00 %
09.01.2012 22:29 4,2 C 84 % 1024,9 hPa 0,0 l/m 4,2 km/h (1 Bft) W-NW 298 0 min 0,000 mm 0 W/m 1,7 C 4,2 C 9,7 km/h (2 Bft) 100,00 %
09.01.2012 22:30 4,2 C 85 % 1024,9 hPa 0,0 l/m 8,1 km/h (2 Bft) W-NW 284 0 min 0,000 mm 0 W/m 1,9 C 2,7 C 16,1 km/h (3 Bft) 100,00 %
09.01.2012 22:31 4,2 C 85 % 1024,9 hPa 0,0 l/m 4,0 km/h (1 Bft) W-NW 286 0 min 0,000 mm 0 W/m 1,9 C 4,2 C 8,0 km/h (2 Bft) 100,00 %
09.01.2012 22:32 4,2 C 85 % 1024,9 hPa 0,0 l/m 2,9 km/h (1 Bft) W-NW 286 0 min 0,000 mm 0 W/m 1,9 C 4,2 C 8,0 km/h (2 Bft) 100,00 %
09.01.2012 22:33 4,1 C 85 % 1024,9 hPa 0,0 l/m 1,9 km/h (1 Bft) W-NW 287 0 min 0,000 mm 0 W/m 1,8 C 4,1 C 6,4 km/h (2 Bft) 100,00 %
09.01.2012 22:34 4,2 C 85 % 1024,9 hPa 0,0 l/m 0,0 km/h (0 Bft) W-NW 288 0 min 0,000 mm 0 W/m 1,9 C 4,2 C 0,0 km/h (0 Bft) 100,00 %
09.01.2012 22:35 4,1 C 85 % 1024,8 hPa 0,0 l/m 2,3 km/h (1 Bft) W-NW 288 0 min 0,000 mm 0 W/m 1,8 C 4,1 C 6,4 km/h (2 Bft) 100,00 %
09.01.2012 22:36 4,1 C 85 % 1024,8 hPa 0,0 l/m 0,6 km/h (0 Bft) W-NW 288 0 min 0,000 mm 0 W/m 1,8 C 4,1 C 3,2 km/h (1 Bft) 100,00 %
09.01.2012 22:37 4,1 C 85 % 1024,9 hPa 0,0 l/m 0,0 km/h (0 Bft) W-NW 288 0 min 0,000 mm 0 W/m 1,8 C 4,1 C 0,0 km/h (0 Bft) 100,00 %
09.01.2012 22:38 4,1 C 85 % 1024,9 hPa 0,0 l/m 0,0 km/h (0 Bft) W-NW 289 0 min 0,000 mm 0 W/m 1,8 C 4,1 C 0,0 km/h (0 Bft) 100,00 %
09.01.2012 22:39 4,1 C 85 % 1024,9 hPa 0,0 l/m 3,6 km/h (1 Bft) W-NW 288 0 min 0,000 mm 0 W/m 1,8 C 4,1 C 8,0 km/h (2 Bft) 100,00 %
09.01.2012 22:40 4,1 C 85 % 1024,9 hPa 0,0 l/m 0,0 km/h (0 Bft) W-NW 288 0 min 0,000 mm 0 W/m 1,8 C 4,1 C 0,0 km/h (0 Bft) 100,00 %
09.01.2012 22:41 4,1 C 85 % 1024,9 hPa 0,0 l/m 0,0 km/h (0 Bft) W-NW 288 0 min 0,000 mm 0 W/m 1,8 C 4,1 C 0,0 km/h (0 Bft) 100,00 %
09.01.2012 22:42 4,1 C 85 % 1024,9 hPa 0,0 l/m 0,1 km/h (0 Bft) W-NW 288 0 min 0,000 mm 0 W/m 1,8 C 4,1 C 1,6 km/h (1 Bft) 100,00 %
09.01.2012 22:43 4,1 C 85 % 1024,9 hPa 0,3 l/m 0,0 km/h (0 Bft) W-NW 288 0 min 0,000 mm 0 W/m 1,8 C 4,1 C 0,0 km/h (0 Bft) 100,00 %
09.01.2012 22:44 4,1 C 85 % 1024,9 hPa 0,0 l/m 0,0 km/h (0 Bft) W-NW 288 0 min 0,000 mm 0 W/m 1,8 C 4,1 C 0,0 km/h (0 Bft) 100,00 %
09.01.2012 22:45 4,1 C 85 % 1024,8 hPa 0,0 l/m 3,5 km/h (1 Bft) W-NW 289 0 min 0,000 mm 0 W/m 1,8 C 4,1 C 9,7 km/h (2 Bft) 100,00 %
09.01.2012 22:46 4,1 C 85 % 1024,8 hPa 0,0 l/m 0,0 km/h (0 Bft) W-NW 288 0 min 0,000 mm 0 W/m 1,8 C 4,1 C 0,0 km/h (0 Bft) 100,00 %
09.01.2012 22:47 4,1 C 85 % 1024,9 hPa 0,0 l/m 0,1 km/h (0 Bft) W-NW 288 0 min 0,000 mm 0 W/m 1,8 C 4,1 C 1,6 km/h (1 Bft) 100,00 %
09.01.2012 22:48 4,1 C 86 % 1024,9 hPa 0,0 l/m 0,3 km/h (0 Bft) W-NW 288 0 min 0,000 mm 0 W/m 2,0 C 4,1 C 3,2 km/h (1 Bft) 100,00 %
09.01.2012 22:49 4,1 C 86 % 1024,9 hPa 0,0 l/m 0,0 km/h (0 Bft) W-NW 289 0 min 0,000 mm 0 W/m 2,0 C 4,1 C 0,0 km/h (0 Bft) 100,00 %
09.01.2012 22:50 4,1 C 85 % 1024,9 hPa 0,0 l/m 0,0 km/h (0 Bft) W-NW 289 0 min 0,000 mm 0 W/m 1,8 C 4,1 C 0,0 km/h (0 Bft) 100,00 %
09.01.2012 22:51 4,1 C 85 % 1024,9 hPa 0,0 l/m 0,0 km/h (0 Bft) W-NW 289 0 min 0,000 mm 0 W/m 1,8 C 4,1 C 0,0 km/h (0 Bft) 100,00 %
09.01.2012 22:52 4,1 C 86 % 1024,9 hPa 0,0 l/m 0,0 km/h (0 Bft) W-NW 289 0 min 0,000 mm 0 W/m 2,0 C 4,1 C 0,0 km/h (0 Bft) 100,00 %
09.01.2012 22:53 4,1 C 86 % 1024,9 hPa 0,0 l/m 1,3 km/h (1 Bft) W-NW 288 0 min 0,000 mm 0 W/m 2,0 C 4,1 C 6,4 km/h (2 Bft) 100,00 %
09.01.2012 22:54 4,1 C 86 % 1024,9 hPa 0,0 l/m 0,6 km/h (0 Bft) W-NW 288 0 min 0,000 mm 0 W/m 2,0 C 4,1 C 4,8 km/h (1 Bft) 100,00 %
09.01.2012 22:55 4,0 C 86 % 1024,9 hPa 0,0 l/m 0,0 km/h (0 Bft) W-NW 289 0 min 0,000 mm 0 W/m 1,9 C 4,0 C 0,0 km/h (0 Bft) 100,00 %
09.01.2012 22:56 4,0 C 86 % 1024,9 hPa 0,0 l/m 1,4 km/h (1 Bft) W-NW 288 0 min 0,000 mm 0 W/m 1,9 C 4,0 C 4,8 km/h (1 Bft) 100,00 %
09.01.2012 22:57 4,0 C 86 % 1024,9 hPa 0,0 l/m 2,3 km/h (1 Bft) W-NW 288 0 min 0,000 mm 0 W/m 1,9 C 4,0 C 6,4 km/h (2 Bft) 100,00 %
09.01.2012 22:58 4,0 C 86 % 1024,9 hPa 0,0 l/m 0,6 km/h (0 Bft) W-NW 288 0 min 0,000 mm 0 W/m 1,9 C 4,0 C 4,8 km/h (1 Bft) 100,00 %
09.01.2012 22:59 4,0 C 86 % 1024,9 hPa 0,0 l/m 2,0 km/h (1 Bft) W-NW 288 0 min 0,000 mm 0 W/m 1,9 C 4,0 C 8,0 km/h (2 Bft) 100,00 %
09.01.2012 23:00 3,9 C 86 % 1024,9 hPa 0,0 l/m 5,5 km/h (1 Bft) W-NW 288 0 min 0,000 mm 0 W/m 1,8 C 3,9 C 11,3 km/h (2 Bft) 100,00 %
09.01.2012 23:01 3,9 C 86 % 1024,9 hPa 0,0 l/m 3,4 km/h (1 Bft) W-NW 287 0 min 0,025 mm 0 W/m 1,8 C 3,9 C 8,0 km/h (2 Bft) 100,00 %
09.01.2012 23:03 3,9 C 86 % 1024,9 hPa 0,0 l/m 5,6 km/h (1 Bft) W 273 0 min 0,000 mm 0 W/m 1,8 C 3,9 C 11,3 km/h (2 Bft) 100,00 %
09.01.2012 23:04 3,9 C 86 % 1024,9 hPa 0,0 l/m 3,7 km/h (1 Bft) W 273 0 min 0,000 mm 0 W/m 1,8 C 3,9 C 9,7 km/h (2 Bft) 100,00 %
09.01.2012 23:05 3,9 C 86 % 1025,0 hPa 0,0 l/m 1,5 km/h (1 Bft) W 273 0 min 0,000 mm 0 W/m 1,8 C 3,9 C 6,4 km/h (2 Bft) 100,00 %
09.01.2012 23:07 3,9 C 86 % 1024,9 hPa 0,0 l/m 2,6 km/h (1 Bft) W 271 0 min 0,000 mm 0 W/m 1,8 C 3,9 C 9,7 km/h (2 Bft) 100,00 %
09.01.2012 23:08 3,9 C 86 % 1024,9 hPa 0,0 l/m 3,9 km/h (1 Bft) W 271 0 min 0,000 mm 0 W/m 1,8 C 3,9 C 6,4 km/h (2 Bft) 100,00 %
09.01.2012 23:09 3,9 C 86 % 1025,0 hPa 0,0 l/m 5,4 km/h (1 Bft) W 273 0 min 0,000 mm 0 W/m 1,8 C 3,9 C 8,0 km/h (2 Bft) 100,00 %
09.01.2012 23:10 3,9 C 87 % 1025,0 hPa 0,0 l/m 2,9 km/h (1 Bft) W 273 0 min 0,000 mm 0 W/m 1,9 C 3,9 C 4,8 km/h (1 Bft) 100,00 %
09.01.2012 23:11 3,9 C 87 % 1024,8 hPa 0,0 l/m 0,1 km/h (0 Bft) W 273 0 min 0,000 mm 0 W/m 1,9 C 3,9 C 1,6 km/h (1 Bft) 100,00 %
09.01.2012 23:12 3,9 C 87 % 1024,9 hPa 0,0 l/m 1,8 km/h (1 Bft) W 272 0 min 0,000 mm 0 W/m 1,9 C 3,9 C 8,0 km/h (2 Bft) 100,00 %
09.01.2012 23:13 3,9 C 87 % 1025,0 hPa 0,0 l/m 3,7 km/h (1 Bft) W 273 0 min 0,000 mm 0 W/m 1,9 C 3,9 C 6,4 km/h (2 Bft) 100,00 %
09.01.2012 23:14 3,9 C 86 % 1025,0 hPa 0,0 l/m 1,2 km/h (1 Bft) W 272 0 min 0,000 mm 0 W/m 1,8 C 3,9 C 3,2 km/h (1 Bft) 100,00 %
09.01.2012 23:15 3,9 C 86 % 1024,9 hPa 0,0 l/m 0,0 km/h (0 Bft) W 273 0 min 0,000 mm 0 W/m 1,8 C 3,9 C 0,0 km/h (0 Bft) 100,00 %
09.01.2012 23:16 3,9 C 87 % 1024,9 hPa 0,0 l/m 0,0 km/h (0 Bft) W 273 0 min 0,000 mm 0 W/m 1,9 C 3,9 C 0,0 km/h (0 Bft) 100,00 %
09.01.2012 23:17 3,9 C 87 % 1024,9 hPa 0,0 l/m 0,0 km/h (0 Bft) W 273 0 min 0,000 mm 0 W/m 1,9 C 3,9 C 0,0 km/h (0 Bft) 100,00 %
09.01.2012 23:18 3,9 C 87 % 1024,9 hPa 0,0 l/m 0,0 km/h (0 Bft) W 273 0 min 0,000 mm 0 W/m 1,9 C 3,9 C 0,0 km/h (0 Bft) 100,00 %
09.01.2012 23:19 3,9 C 87 % 1024,9 hPa 0,0 l/m 0,0 km/h (0 Bft) W 272 0 min 0,000 mm 0 W/m 1,9 C 3,9 C 0,0 km/h (0 Bft) 100,00 %
09.01.2012 23:20 3,9 C 87 % 1024,9 hPa 0,0 l/m 0,0 km/h (0 Bft) W 272 0 min 0,000 mm 0 W/m 1,9 C 3,9 C 0,0 km/h (0 Bft) 100,00 %
09.01.2012 23:21 3,9 C 87 % 1024,9 hPa 0,0 l/m 0,0 km/h (0 Bft) W 273 0 min 0,000 mm 0 W/m 1,9 C 3,9 C 0,0 km/h (0 Bft) 100,00 %
09.01.2012 23:22 3,9 C 87 % 1024,9 hPa 0,0 l/m 0,0 km/h (0 Bft) W 272 0 min 0,000 mm 0 W/m 1,9 C 3,9 C 0,0 km/h (0 Bft) 100,00 %
09.01.2012 23:23 3,9 C 87 % 1024,9 hPa 0,0 l/m 0,0 km/h (0 Bft) W 272 0 min 0,000 mm 0 W/m 1,9 C 3,9 C 0,0 km/h (0 Bft) 100,00 %
09.01.2012 23:24 3,9 C 87 % 1024,9 hPa 0,0 l/m 0,0 km/h (0 Bft) W 273 0 min 0,000 mm 0 W/m 1,9 C 3,9 C 0,0 km/h (0 Bft) 100,00 %
09.01.2012 23:25 3,9 C 87 % 1024,9 hPa 0,0 l/m 0,0 km/h (0 Bft) W 273 0 min 0,000 mm 0 W/m 1,9 C 3,9 C 0,0 km/h (0 Bft) 100,00 %
09.01.2012 23:26 3,9 C 87 % 1024,9 hPa 0,0 l/m 0,0 km/h (0 Bft) W 272 0 min 0,000 mm 0 W/m 1,9 C 3,9 C 0,0 km/h (0 Bft) 100,00 %
09.01.2012 23:27 3,9 C 87 % 1024,9 hPa 0,0 l/m 3,8 km/h (1 Bft) W 272 0 min 0,000 mm 0 W/m 1,9 C 3,9 C 4,8 km/h (1 Bft) 100,00 %
09.01.2012 23:28 3,9 C 87 % 1024,9 hPa 0,0 l/m 4,1 km/h (1 Bft) W 272 0 min 0,000 mm 0 W/m 1,9 C 3,9 C 4,8 km/h (1 Bft) 100,00 %
09.01.2012 23:29 3,9 C 87 % 1024,9 hPa 0,0 l/m 4,2 km/h (1 Bft) W 272 0 min 0,000 mm 0 W/m 1,9 C 3,9 C 6,4 km/h (2 Bft) 100,00 %
09.01.2012 23:30 3,9 C 87 % 1024,8 hPa 0,0 l/m 5,3 km/h (1 Bft) W 272 0 min 0,000 mm 0 W/m 1,9 C 3,9 C 6,4 km/h (2 Bft) 100,00 %
09.01.2012 23:31 3,9 C 87 % 1024,9 hPa 0,0 l/m 4,4 km/h (1 Bft) W 272 0 min 0,000 mm 0 W/m 1,9 C 3,9 C 6,4 km/h (2 Bft) 95,83 %
09.01.2012 23:32 3,9 C 87 % 1024,8 hPa 0,0 l/m 3,4 km/h (1 Bft) W 272 0 min 0,000 mm 0 W/m 1,9 C 3,9 C 8,0 km/h (2 Bft) 100,00 %
09.01.2012 23:33 3,9 C 87 % 1024,8 hPa 0,0 l/m 5,2 km/h (1 Bft) W 271 0 min 0,000 mm 0 W/m 1,9 C 3,9 C 8,0 km/h (2 Bft) 100,00 %
09.01.2012 23:34 3,9 C 87 % 1024,8 hPa 0,0 l/m 4,9 km/h (1 Bft) W 271 0 min 0,000 mm 0 W/m 1,9 C 3,9 C 6,4 km/h (2 Bft) 100,00 %
09.01.2012 23:35 3,9 C 87 % 1024,8 hPa 0,0 l/m 4,4 km/h (1 Bft) W 271 0 min 0,000 mm 0 W/m 1,9 C 3,9 C 8,0 km/h (2 Bft) 100,00 %
09.01.2012 23:36 3,9 C 88 % 1024,8 hPa 0,0 l/m 0,3 km/h (0 Bft) W 271 0 min 0,000 mm 0 W/m 2,1 C 3,9 C 1,6 km/h (1 Bft) 100,00 %
09.01.2012 23:37 3,9 C 88 % 1024,8 hPa 0,0 l/m 0,0 km/h (0 Bft) W 271 0 min 0,000 mm 0 W/m 2,1 C 3,9 C 0,0 km/h (0 Bft) 100,00 %
09.01.2012 23:38 3,9 C 88 % 1024,8 hPa 0,0 l/m 0,0 km/h (0 Bft) W 271 0 min 0,000 mm 0 W/m 2,1 C 3,9 C 0,0 km/h (0 Bft) 100,00 %
09.01.2012 23:40 3,9 C 88 % 1024,8 hPa 0,3 l/m 0,0 km/h (0 Bft) W 271 0 min 0,000 mm 0 W/m 2,1 C 3,9 C 0,0 km/h (0 Bft) 100,00 %
09.01.2012 23:41 3,9 C 88 % 1024,8 hPa 0,0 l/m 2,9 km/h (1 Bft) W 271 0 min 0,000 mm 0 W/m 2,1 C 3,9 C 4,8 km/h (1 Bft) 100,00 %
09.01.2012 23:42 3,8 C 88 % 1024,8 hPa 0,0 l/m 1,7 km/h (1 Bft) W 271 0 min 0,000 mm 0 W/m 2,0 C 3,8 C 4,8 km/h (1 Bft) 100,00 %
09.01.2012 23:43 3,8 C 88 % 1024,8 hPa 0,0 l/m 0,0 km/h (0 Bft) W 271 0 min 0,000 mm 0 W/m 2,0 C 3,8 C 0,0 km/h (0 Bft) 100,00 %
09.01.2012 23:44 3,8 C 88 % 1024,8 hPa 0,0 l/m 0,0 km/h (0 Bft) W 271 0 min 0,000 mm 0 W/m 2,0 C 3,8 C 0,0 km/h (0 Bft) 100,00 %
09.01.2012 23:45 3,8 C 88 % 1024,8 hPa 0,0 l/m 0,0 km/h (0 Bft) W 271 0 min 0,000 mm 0 W/m 2,0 C 3,8 C 0,0 km/h (0 Bft) 100,00 %
09.01.2012 23:46 3,8 C 88 % 1024,8 hPa 0,0 l/m 2,5 km/h (1 Bft) W 271 0 min 0,000 mm 0 W/m 2,0 C 3,8 C 6,4 km/h (2 Bft) 95,65 %
09.01.2012 23:47 3,8 C 88 % 1024,8 hPa 0,0 l/m 1,0 km/h (0 Bft) W 271 0 min 0,000 mm 0 W/m 2,0 C 3,8 C 3,2 km/h (1 Bft) 100,00 %
09.01.2012 23:48 3,8 C 88 % 1024,8 hPa 0,0 l/m 0,0 km/h (0 Bft) W 271 0 min 0,000 mm 0 W/m 2,0 C 3,8 C 0,0 km/h (0 Bft) 100,00 %
09.01.2012 23:49 3,8 C 88 % 1024,7 hPa 0,0 l/m 0,0 km/h (0 Bft) W 271 0 min 0,000 mm 0 W/m 2,0 C 3,8 C 0,0 km/h (0 Bft) 100,00 %
09.01.2012 23:50 3,8 C 88 % 1024,7 hPa 0,0 l/m 0,0 km/h (0 Bft) W 271 0 min 0,000 mm 0 W/m 2,0 C 3,8 C 0,0 km/h (0 Bft) 97,14 %
09.01.2012 23:51 3,8 C 88 % 1024,7 hPa 0,0 l/m 0,0 km/h (0 Bft) W 271 0 min 0,000 mm 0 W/m 2,0 C 3,8 C 0,0 km/h (0 Bft) 92,31 %
09.01.2012 23:52 3,8 C 88 % 1024,7 hPa 0,0 l/m 0,0 km/h (0 Bft) W 271 0 min 0,000 mm 0 W/m 2,0 C 3,8 C 0,0 km/h (0 Bft) 100,00 %
09.01.2012 23:53 3,8 C 88 % 1024,8 hPa 0,0 l/m 0,0 km/h (0 Bft) W 271 0 min 0,000 mm 0 W/m 2,0 C 3,8 C 0,0 km/h (0 Bft) 95,83 %
09.01.2012 23:54 3,8 C 88 % 1024,7 hPa 0,0 l/m 0,0 km/h (0 Bft) W 271 0 min 0,000 mm 0 W/m 2,0 C 3,8 C 0,0 km/h (0 Bft) 100,00 %
09.01.2012 23:55 3,7 C 88 % 1024,7 hPa 0,3 l/m 0,0 km/h (0 Bft) W 271 0 min 0,000 mm 0 W/m 1,9 C 3,7 C 0,0 km/h (0 Bft) 96,00 %
09.01.2012 23:56 3,7 C 88 % 1024,7 hPa 0,0 l/m 0,3 km/h (0 Bft) W 271 0 min 0,000 mm 0 W/m 1,9 C 3,7 C 1,6 km/h (1 Bft) 100,00 %
09.01.2012 23:57 3,7 C 88 % 1024,7 hPa 0,0 l/m 0,0 km/h (0 Bft) W 271 0 min 0,000 mm 0 W/m 1,9 C 3,7 C 0,0 km/h (0 Bft) 100,00 %
09.01.2012 23:58 3,7 C 88 % 1024,7 hPa 0,0 l/m 0,0 km/h (0 Bft) W 271 0 min 0,000 mm 0 W/m 1,9 C 3,7 C 0,0 km/h (0 Bft) 100,00 %
09.01.2012 23:59 3,7 C 88 % 1024,7 hPa 0,0 l/m 0,0 km/h (0 Bft) W 271 0 min 0,000 mm 0 W/m 1,9 C 3,7 C 0,0 km/h (0 Bft) 100,00 %
_ Min-Zeit 23:59 19:07 00:20 - 23:59 - - - - - 19:07 08:07 23:59 22:24
Minimum _ 3,7 C 70 % 1017,5 hPa - 0,0 km/h (0 Bft) - - - - - -0,1 C -5,9 C 0,0 km/h (0 Bft) 80,00 %
_ Max-Zeit 14:53 23:59 21:08 23:55 12:55 - - 14:38 11:01 10:25 08:57 15:05 12:54 23:59
Maximum _ 6,1 C 88 % 1025,7 hPa 0,3 l/m 31,7 km/h
W (5 Bft)
- - 2 min 0,127 mm 329 W/m 2,8 C 5,5 C 49,9 km/h
W-NW (6 Bft)
100,00 %
Durchschnitt _ 4,9 C 79 % 1022,4 hPa #1,3 l/m 13,2 km/h (3 Bft) W - #46 min. #0,965 mm 88 W/m 1,5 C 0,1 C 20,9 km/h (4 Bft) 99,86 %